[[{"header":{"parameterUnit":"m.s-1","parameterCategory":1,"la1":30.6,"la2":29.2853,"lo1":-89.7004,"lo2":-87.6739,"dy":0.0162,"dx":0.0183,"nx":112,"ny":82,"refTime":"2023-07-20T00:00:00:Z","depth":0,"parameterNumber":2,"parameterNumberName":"U-component_of_WINDS"},"data":[0.0,0.0,0.0,0.0,0.0,0.0,0.0,0.0,0.0,0.0,0.0,0.0,0.0,0.0,0.0,0.0,0.0,0.0,0.0,0.0,0.0,0.0,0.0,0.0,0.0,0.0,0.0,0.0,0.0,0.0,0.0,0.0,0.0,0.0,0.0,0.0,0.0,0.0,0.0,0.0,0.0,0.0,0.0,0.0,0.0,0.0,0.0,0.0,0.0,0.0,0.0,0.0,0.0,0.0,0.0,0.0,0.0,0.0,0.0,0.0,0.0,0.0,0.0,0.0,0.0,0.0,0.0,0.0,0.0,0.0,0.0,0.0,0.0,0.0,0.0,0.0,0.0,0.0,0.0,0.0,0.0,0.0,0.0,0.0,0.0,0.0,0.0,0.0,0.0,0.0,-3.4984,-3.3461,-3.3108,-3.2841,-3.2492,-3.2342,-3.1951,-3.1278,0.0,0.0,0.0,0.0,0.0,0.0,0.0,0.0,0.0,0.0,0.0,0.0,0.0,0.0,0.0,0.0,0.0,0.0,0.0,0.0,0.0,0.0,0.0,0.0,0.0,0.0,0.0,0.0,0.0,0.0,0.0,0.0,0.0,0.0,0.0,0.0,0.0,0.0,0.0,0.0,0.0,0.0,0.0,0.0,0.0,0.0,0.0,0.0,0.0,0.0,0.0,0.0,0.0,0.0,0.0,0.0,0.0,0.0,0.0,0.0,0.0,0.0,0.0,0.0,0.0,0.0,0.0,0.0,0.0,0.0,0.0,0.0,0.0,0.0,0.0,0.0,0.0,0.0,0.0,0.0,0.0,0.0,0.0,0.0,0.0,0.0,0.0,0.0,0.0,0.0,0.0,0.0,0.0,0.0,0.0,0.0,0.0,0.0,0.0,0.0,0.0,0.0,0.0,0.0,-3.4703,-3.3096,-3.2342,-3.1996,-3.1955,-3.1769,-3.1467,-3.1132,0.0,0.0,0.0,0.0,0.0,0.0,0.0,0.0,0.0,0.0,0.0,0.0,0.0,0.0,0.0,0.0,0.0,0.0,0.0,0.0,0.0,0.0,0.0,0.0,0.0,0.0,0.0,0.0,0.0,0.0,0.0,0.0,0.0,0.0,0.0,0.0,0.0,0.0,0.0,0.0,0.0,0.0,0.0,0.0,0.0,0.0,0.0,0.0,0.0,0.0,0.0,0.0,0.0,0.0,0.0,0.0,0.0,0.0,0.0,0.0,0.0,0.0,0.0,0.0,0.0,0.0,0.0,0.0,0.0,0.0,0.0,0.0,0.0,0.0,0.0,0.0,0.0,0.0,0.0,0.0,0.0,0.0,0.0,0.0,0.0,0.0,0.0,0.0,0.0,0.0,0.0,0.0,0.0,0.0,0.0,0.0,0.0,0.0,0.0,0.0,0.0,0.0,0.0,-3.3326,-3.3092,-3.2191,-3.1811,-3.167,-3.167,-3.1539,-3.1366,-3.1146,-3.1087,0.0,0.0,0.0,0.0,0.0,0.0,0.0,0.0,0.0,0.0,0.0,0.0,0.0,0.0,0.0,0.0,0.0,0.0,0.0,0.0,0.0,0.0,0.0,0.0,0.0,0.0,0.0,0.0,0.0,0.0,0.0,0.0,0.0,0.0,0.0,0.0,0.0,0.0,0.0,0.0,0.0,0.0,0.0,0.0,0.0,0.0,0.0,0.0,0.0,0.0,0.0,0.0,0.0,0.0,0.0,0.0,0.0,0.0,0.0,0.0,0.0,0.0,0.0,0.0,0.0,0.0,0.0,0.0,0.0,0.0,0.0,0.0,0.0,0.0,0.0,0.0,0.0,0.0,0.0,0.0,0.0,0.0,0.0,0.0,0.0,0.0,0.0,0.0,0.0,0.0,0.0,0.0,0.0,0.0,0.0,0.0,0.0,0.0,0.0,0.0,0.0,0.0,-3.1712,-3.167,-3.1539,-3.1482,-3.1482,-3.1482,-3.1482,-3.1366,-3.1146,-3.1087,0.0,0.0,0.0,0.0,0.0,0.0,0.0,0.0,0.0,0.0,0.0,0.0,0.0,0.0,0.0,0.0,0.0,0.0,0.0,0.0,0.0,0.0,0.0,0.0,0.0,0.0,0.0,0.0,0.0,0.0,0.0,0.0,0.0,0.0,0.0,0.0,0.0,0.0,0.0,0.0,0.0,0.0,0.0,0.0,0.0,0.0,0.0,0.0,0.0,0.0,0.0,0.0,0.0,0.0,0.0,0.0,0.0,0.0,0.0,0.0,0.0,0.0,0.0,0.0,0.0,0.0,0.0,0.0,0.0,0.0,0.0,0.0,0.0,0.0,0.0,0.0,0.0,0.0,0.0,0.0,0.0,0.0,0.0,0.0,0.0,0.0,0.0,0.0,0.0,0.0,0.0,0.0,0.0,0.0,0.0,0.0,0.0,0.0,0.0,0.0,0.0,0.0,-3.1853,-3.1539,-3.1482,-3.1482,-3.1482,-3.1482,-3.1482,-3.1366,-3.1146,-3.1087,0.0,0.0,0.0,0.0,0.0,0.0,0.0,0.0,0.0,0.0,0.0,0.0,0.0,0.0,0.0,0.0,0.0,0.0,0.0,0.0,0.0,0.0,0.0,0.0,0.0,0.0,0.0,0.0,0.0,0.0,0.0,0.0,0.0,0.0,0.0,0.0,0.0,0.0,0.0,0.0,0.0,0.0,0.0,0.0,0.0,0.0,0.0,0.0,0.0,0.0,0.0,0.0,0.0,0.0,0.0,0.0,0.0,0.0,0.0,0.0,0.0,0.0,0.0,0.0,0.0,0.0,0.0,0.0,0.0,0.0,0.0,0.0,0.0,0.0,0.0,0.0,0.0,0.0,0.0,0.0,0.0,0.0,0.0,0.0,0.0,0.0,0.0,0.0,0.0,0.0,0.0,0.0,0.0,0.0,0.0,0.0,0.0,0.0,0.0,0.0,0.0,0.0,-3.164,-3.1482,0.0,-3.1482,-3.1482,-3.1482,-3.1409,-3.1292,-3.1132,0.0,0.0,0.0,0.0,0.0,0.0,0.0,0.0,0.0,0.0,0.0,0.0,0.0,0.0,0.0,0.0,0.0,0.0,0.0,0.0,0.0,0.0,0.0,0.0,0.0,0.0,0.0,0.0,0.0,0.0,0.0,0.0,0.0,0.0,0.0,0.0,0.0,0.0,0.0,0.0,0.0,0.0,0.0,0.0,0.0,0.0,0.0,0.0,0.0,0.0,0.0,0.0,0.0,0.0,0.0,0.0,0.0,0.0,0.0,0.0,0.0,0.0,0.0,0.0,0.0,0.0,0.0,0.0,0.0,0.0,0.0,0.0,0.0,0.0,0.0,0.0,0.0,0.0,0.0,0.0,0.0,0.0,0.0,0.0,0.0,0.0,0.0,0.0,0.0,0.0,0.0,0.0,0.0,0.0,0.0,0.0,0.0,0.0,0.0,0.0,0.0,0.0,-3.1809,-3.1601,-3.1482,0.0,-3.1482,-3.1467,-3.1409,-3.1351,-3.1234,-3.1014,0.0,0.0,0.0,0.0,0.0,0.0,0.0,0.0,0.0,0.0,0.0,0.0,0.0,0.0,0.0,0.0,0.0,0.0,0.0,0.0,0.0,0.0,0.0,0.0,0.0,0.0,0.0,0.0,0.0,0.0,0.0,0.0,0.0,0.0,0.0,0.0,0.0,0.0,0.0,0.0,0.0,0.0,0.0,0.0,0.0,0.0,0.0,0.0,0.0,0.0,0.0,0.0,0.0,0.0,0.0,0.0,0.0,0.0,0.0,0.0,0.0,0.0,0.0,0.0,0.0,0.0,0.0,0.0,0.0,0.0,0.0,0.0,0.0,0.0,0.0,0.0,0.0,0.0,0.0,0.0,0.0,0.0,0.0,0.0,0.0,0.0,0.0,0.0,0.0,0.0,0.0,0.0,0.0,0.0,0.0,0.0,0.0,0.0,0.0,0.0,0.0,0.0,-3.2437,-3.1958,-3.1497,-3.1497,-3.1497,-3.1482,-3.1292,-3.1292,-3.119,0.0,0.0,0.0,0.0,0.0,0.0,0.0,0.0,0.0,0.0,0.0,0.0,0.0,0.0,0.0,0.0,0.0,0.0,0.0,0.0,0.0,0.0,0.0,0.0,0.0,0.0,0.0,0.0,0.0,0.0,0.0,0.0,0.0,0.0,0.0,0.0,0.0,0.0,0.0,0.0,0.0,0.0,0.0,0.0,0.0,0.0,0.0,0.0,0.0,0.0,0.0,0.0,0.0,0.0,0.0,0.0,0.0,0.0,0.0,0.0,0.0,0.0,0.0,0.0,0.0,0.0,0.0,0.0,0.0,0.0,0.0,0.0,0.0,0.0,0.0,0.0,0.0,0.0,0.0,0.0,0.0,0.0,0.0,0.0,0.0,0.0,0.0,0.0,0.0,0.0,0.0,0.0,0.0,0.0,0.0,0.0,0.0,0.0,0.0,0.0,0.0,0.0,0.0,-3.3185,-3.3036,-3.2916,-3.2916,-3.278,-3.2541,-3.2035,-3.1811,-3.1806,-3.2138,0.0,0.0,0.0,0.0,0.0,0.0,0.0,0.0,0.0,0.0,0.0,0.0,0.0,0.0,0.0,0.0,0.0,0.0,0.0,0.0,0.0,0.0,0.0,0.0,0.0,0.0,0.0,0.0,0.0,0.0,0.0,0.0,0.0,0.0,0.0,0.0,0.0,0.0,0.0,0.0,0.0,0.0,0.0,0.0,0.0,0.0,0.0,0.0,0.0,0.0,0.0,0.0,0.0,0.0,0.0,0.0,0.0,0.0,0.0,0.0,0.0,0.0,0.0,0.0,0.0,0.0,0.0,0.0,0.0,0.0,0.0,0.0,0.0,0.0,0.0,0.0,0.0,0.0,0.0,0.0,0.0,0.0,0.0,0.0,0.0,0.0,0.0,0.0,0.0,0.0,0.0,0.0,0.0,0.0,0.0,0.0,0.0,0.0,0.0,0.0,0.0,0.0,-3.3844,-3.3587,-3.3362,-3.3362,-3.3476,-3.3288,-3.2904,-3.2908,-3.2922,-3.299,0.0,0.0,0.0,0.0,0.0,0.0,0.0,0.0,0.0,0.0,0.0,0.0,0.0,0.0,0.0,0.0,0.0,0.0,0.0,0.0,0.0,0.0,0.0,0.0,0.0,0.0,0.0,0.0,0.0,0.0,0.0,0.0,0.0,0.0,0.0,0.0,0.0,0.0,0.0,0.0,0.0,0.0,0.0,0.0,0.0,0.0,0.0,0.0,0.0,0.0,0.0,0.0,0.0,0.0,0.0,0.0,0.0,0.0,0.0,0.0,0.0,0.0,0.0,0.0,0.0,0.0,0.0,0.0,0.0,0.0,0.0,0.0,0.0,0.0,0.0,0.0,0.0,0.0,0.0,0.0,0.0,0.0,0.0,0.0,0.0,0.0,0.0,0.0,0.0,0.0,0.0,0.0,0.0,0.0,0.0,0.0,0.0,0.0,0.0,0.0,0.0,0.0,-3.4577,-3.4003,-3.352,-3.358,-3.3938,-3.4082,-3.3878,-3.4339,-3.4389,-3.3827,0.0,0.0,0.0,0.0,0.0,0.0,0.0,0.0,0.0,0.0,0.0,0.0,0.0,0.0,0.0,0.0,0.0,0.0,0.0,0.0,0.0,0.0,0.0,0.0,0.0,0.0,0.0,0.0,0.0,0.0,0.0,0.0,0.0,0.0,0.0,0.0,0.0,0.0,0.0,0.0,0.0,0.0,0.0,0.0,0.0,0.0,0.0,0.0,0.0,0.0,0.0,0.0,0.0,0.0,0.0,0.0,0.0,0.0,0.0,0.0,-4.221,0.0,0.0,0.0,0.0,0.0,0.0,0.0,0.0,0.0,0.0,0.0,0.0,0.0,0.0,0.0,0.0,0.0,0.0,0.0,0.0,0.0,0.0,0.0,0.0,0.0,0.0,0.0,0.0,0.0,0.0,0.0,0.0,0.0,0.0,0.0,0.0,0.0,0.0,0.0,0.0,0.0,-3.5968,-3.5791,-3.5748,-3.62,-3.6104,-3.578,-3.5239,-3.5205,-3.5369,-3.5677,-3.5822,0.0,0.0,0.0,0.0,0.0,0.0,0.0,0.0,0.0,0.0,0.0,0.0,0.0,0.0,0.0,0.0,0.0,0.0,0.0,0.0,0.0,0.0,0.0,0.0,0.0,0.0,0.0,0.0,0.0,0.0,0.0,0.0,0.0,0.0,0.0,0.0,0.0,0.0,0.0,0.0,0.0,0.0,0.0,0.0,0.0,0.0,0.0,0.0,0.0,0.0,0.0,0.0,0.0,0.0,0.0,0.0,0.0,0.0,0.0,0.0,-4.3263,0.0,0.0,0.0,0.0,0.0,0.0,0.0,0.0,0.0,0.0,0.0,0.0,0.0,0.0,0.0,0.0,0.0,0.0,0.0,0.0,0.0,0.0,0.0,0.0,0.0,0.0,0.0,0.0,0.0,0.0,0.0,0.0,0.0,0.0,0.0,0.0,0.0,0.0,0.0,0.0,-3.676,-3.6532,-3.6512,-3.6851,-3.6892,-3.6807,-3.6458,-3.6619,-3.6592,-3.6153,-3.6439,0.0,0.0,0.0,0.0,0.0,0.0,0.0,0.0,0.0,0.0,0.0,0.0,0.0,0.0,0.0,0.0,0.0,0.0,0.0,0.0,0.0,0.0,0.0,0.0,0.0,0.0,0.0,0.0,0.0,0.0,0.0,0.0,0.0,0.0,0.0,0.0,0.0,0.0,0.0,0.0,0.0,0.0,0.0,0.0,0.0,0.0,0.0,0.0,0.0,0.0,0.0,0.0,0.0,-4.1925,-4.1894,-4.1763,-4.238,-4.2843,-4.3229,-4.3311,-4.3515,-4.382,0.0,0.0,0.0,0.0,0.0,0.0,0.0,0.0,0.0,0.0,0.0,0.0,0.0,0.0,0.0,0.0,0.0,0.0,0.0,0.0,0.0,0.0,0.0,0.0,0.0,-3.9424,-3.926,0.0,0.0,0.0,0.0,0.0,0.0,0.0,0.0,0.0,0.0,0.0,0.0,-3.7075,-3.6707,-3.6397,-3.6372,-3.6722,-3.6909,-3.6747,-3.7192,-3.6978,-3.5885,-3.6255,-3.5634,0.0,0.0,0.0,0.0,0.0,0.0,0.0,0.0,0.0,0.0,0.0,0.0,0.0,0.0,0.0,0.0,0.0,0.0,0.0,0.0,0.0,0.0,0.0,0.0,0.0,0.0,0.0,0.0,0.0,0.0,0.0,0.0,-3.9192,-3.9156,0.0,0.0,0.0,0.0,0.0,0.0,0.0,0.0,0.0,0.0,0.0,0.0,0.0,-4.3682,-4.3239,-4.3411,-4.346,-4.3301,-4.2299,-4.1763,-4.1613,-4.1597,-4.1631,-4.1716,-4.2257,0.0,-4.449,-4.4592,0.0,0.0,0.0,0.0,0.0,0.0,0.0,0.0,0.0,0.0,0.0,0.0,0.0,0.0,0.0,0.0,0.0,0.0,0.0,0.0,0.0,0.0,-3.9424,-3.9424,-3.9424,-3.9394,0.0,-3.929,-3.926,-3.917,-3.8676,0.0,0.0,0.0,0.0,0.0,0.0,0.0,-3.6821,-3.6241,-3.5732,-3.5639,-3.5549,-3.5208,-3.4506,-3.4499,-3.4657,-3.494,-3.5049,-3.4834,-3.4254,-3.3865,0.0,0.0,0.0,0.0,0.0,0.0,0.0,0.0,0.0,0.0,0.0,0.0,0.0,0.0,0.0,0.0,0.0,0.0,0.0,0.0,0.0,0.0,0.0,0.0,0.0,0.0,0.0,0.0,0.0,-3.9245,-3.9045,-3.8892,-3.878,-3.8891,0.0,0.0,0.0,0.0,0.0,0.0,0.0,0.0,0.0,-4.29,-4.2701,-4.2488,-4.2273,-4.2212,-4.2077,-4.1998,-4.1842,-4.1696,-4.1512,-4.1869,-4.1953,-4.1935,-4.2204,-4.2675,-4.3284,-4.2937,-4.2568,-4.2082,0.0,0.0,0.0,0.0,-3.9009,-3.8349,-3.8637,-3.8551,0.0,-3.8287,0.0,0.0,0.0,0.0,0.0,0.0,0.0,0.0,0.0,0.0,0.0,-3.9424,-3.9424,-3.932,-3.8931,-3.8784,-3.8832,0.0,-3.9098,-3.8698,-3.8198,0.0,0.0,0.0,0.0,-3.5884,-3.6461,-3.5733,-3.5255,-3.5502,-3.5176,-3.4816,-3.4494,-3.4194,-3.3883,-3.3607,-3.3634,-3.3501,-3.3226,-3.2605,-3.2333,0.0,0.0,0.0,0.0,0.0,0.0,0.0,0.0,0.0,0.0,0.0,0.0,0.0,0.0,0.0,0.0,0.0,0.0,0.0,0.0,0.0,0.0,0.0,0.0,0.0,0.0,0.0,0.0,-3.9073,-3.8921,-3.8719,-3.8707,-3.8946,0.0,0.0,0.0,0.0,0.0,0.0,-4.3303,-4.3069,-4.2806,-4.2537,-4.2058,-4.1743,-4.1653,-4.1479,-4.1464,-4.1523,-4.1816,-4.1988,-4.1919,-4.2072,-4.2104,-4.1999,-4.1813,-4.1659,-4.1516,-4.1615,-4.1372,-4.0852,-4.0049,-3.909,-3.8165,-3.8008,-3.7637,-3.7195,-3.736,-3.7404,-3.7404,-3.7404,0.0,-3.7494,-3.7988,0.0,0.0,0.0,0.0,-3.8916,-3.8916,-3.8916,-3.8916,-3.8916,-3.8829,-3.8695,-3.8187,-3.7786,-3.7777,0.0,-3.8686,-3.8307,-3.759,0.0,0.0,0.0,0.0,-3.5557,-3.5863,-3.5308,-3.4835,-3.4808,-3.4458,-3.4124,-3.3966,-3.3432,-3.2932,-3.2395,-3.2278,-3.214,-3.1976,-3.1486,-3.1379,-3.1751,0.0,0.0,0.0,0.0,0.0,0.0,0.0,0.0,0.0,0.0,0.0,0.0,0.0,0.0,0.0,0.0,0.0,0.0,0.0,0.0,0.0,0.0,0.0,0.0,0.0,0.0,0.0,0.0,0.0,-3.8707,-3.8707,0.0,0.0,0.0,0.0,-4.1111,-4.1882,-4.2498,-4.2921,-4.292,-4.2498,-4.1604,-4.2271,-4.2445,-4.1971,-4.2582,-4.3169,-4.3714,-4.2875,-4.2751,-4.325,-4.188,-4.1255,-4.1221,-4.0493,-3.9917,-3.9528,-4.1429,-4.1418,-4.0094,-3.9247,-3.8062,-3.6677,-3.6663,-3.6603,-3.6611,-3.721,-3.7404,-3.7404,-3.7404,-3.7404,-3.7419,-3.7449,-3.7479,0.0,0.0,-3.7509,-3.7509,-3.7509,-3.7509,-3.7509,-3.7509,-3.7386,-3.7317,-3.7287,-3.6499,-3.6114,0.0,-3.7178,-3.6728,-3.5826,0.0,-3.5483,-3.5,-3.5072,-3.5097,-3.4784,-3.4872,-3.4424,-3.287,-3.2698,-3.2367,-3.1668,-3.1107,-3.0939,-3.1442,-3.1002,-3.0884,-3.1411,-3.0934,-3.0909,-3.1424,-3.0382,0.0,0.0,0.0,0.0,0.0,0.0,0.0,0.0,0.0,0.0,0.0,0.0,0.0,0.0,0.0,0.0,0.0,0.0,0.0,0.0,0.0,0.0,0.0,0.0,0.0,0.0,0.0,0.0,-3.8738,-3.8707,0.0,-4.0157,-4.0047,-4.0653,-4.2506,-4.2433,-4.2463,-4.2884,-4.2634,-4.2115,-4.141,-4.1846,-4.1992,-4.1763,-4.2466,-4.2877,-4.2993,-4.2651,-4.2545,-4.2675,-4.2151,-4.1914,-4.188,-4.1627,-4.0889,-3.9972,-4.0612,-3.9738,-3.7955,-3.7156,-3.6427,-3.5861,-3.5889,-3.5863,-3.5893,-3.6103,-3.6193,-3.6193,-3.6193,-3.6462,-3.6821,-3.6821,-3.709,-3.7404,-3.7404,-3.7404,-3.7404,-3.7404,-3.7351,-3.7282,-3.7282,-3.6752,-3.6112,-3.5735,-3.4882,-3.4276,-3.4522,-3.4933,-3.5449,-3.6072,-3.5257,-3.4554,-3.4885,-3.4153,-3.363,-3.382,-3.3461,-3.3164,-3.2918,-3.2542,-3.2244,-3.1913,-3.1424,-3.1047,-3.0896,-3.0721,-3.0708,-3.0884,-3.0186,-3.0148,-3.0884,-2.9986,-2.9711,0.0,0.0,0.0,0.0,0.0,0.0,0.0,0.0,0.0,0.0,0.0,0.0,0.0,0.0,0.0,0.0,0.0,0.0,0.0,0.0,0.0,0.0,0.0,0.0,0.0,0.0,-3.9003,-3.9087,-3.9093,-3.9643,-4.0983,-4.0616,-4.1075,-4.2947,-4.2598,-4.2428,-4.2675,-4.257,-4.2192,-4.1493,-4.1891,-4.2073,-4.1988,-4.2415,-4.2686,-4.2889,-4.2853,-4.2918,-4.3047,-4.2794,-4.2675,-4.2658,-4.2173,-4.1355,-4.0278,-3.9861,-3.8762,-3.7202,-3.6348,-3.5831,-3.5504,-3.5504,-3.5504,-3.5504,-3.5504,-3.5504,-3.5504,-3.5504,-3.5804,-3.6148,-3.6148,-3.6447,-3.6761,-3.6761,-3.6694,-3.6611,-3.631,-3.6173,-3.5981,-3.5744,-3.5225,-3.475,-3.4369,-3.3611,-3.309,-3.3329,-3.3643,-3.4148,-3.5127,-3.4259,-3.356,-3.4032,-3.3383,-3.2982,-3.3238,-3.3078,-3.298,-3.3116,-3.2729,-3.2503,-3.2503,-3.1989,-3.1524,-3.1173,-3.0821,-3.0528,-3.0528,-2.9899,-2.9696,-3.0082,-2.9539,-2.9365,-2.9546,0.0,0.0,0.0,0.0,0.0,0.0,0.0,0.0,0.0,0.0,0.0,0.0,0.0,0.0,0.0,0.0,0.0,0.0,0.0,0.0,0.0,0.0,0.0,-3.9101,-3.8899,-3.9038,-3.9808,-3.9918,-4.0249,-4.1075,-4.1148,-4.1479,-4.2286,-4.2359,-4.2323,-4.2239,-4.2779,-4.2738,-4.183,-4.2398,-4.2757,-4.274,-4.2635,-4.2904,-4.3654,-4.3508,-4.3859,-4.4553,-4.3792,-4.3453,-4.3348,-4.1966,-4.0992,-4.0328,-3.9346,-3.8542,-3.7871,-3.6953,-3.6133,-3.5534,-3.5519,-3.5504,-3.5504,-3.5504,-3.5504,-3.5504,-3.5504,-3.5504,-3.5504,-3.5504,-3.5504,-3.5504,-3.5504,-3.5359,-3.5001,-3.4245,-3.3905,-3.3561,-3.282,-3.2859,-3.3151,-3.3151,-3.2794,-3.2752,-3.344,-3.3211,-3.2782,-3.2647,-3.2593,-3.2468,-3.2319,-3.2962,0.0,-3.3177,-3.3823,-3.4076,-3.3167,-3.3081,-3.3081,-3.3081,-3.2554,-3.2227,-3.2215,-3.1223,-3.0541,-3.0276,-3.0002,-2.9546,-2.9131,-2.9131,-2.9131,-2.9131,0.0,0.0,0.0,0.0,0.0,0.0,0.0,0.0,0.0,0.0,0.0,0.0,0.0,0.0,0.0,0.0,0.0,0.0,0.0,0.0,0.0,0.0,-3.881,-3.881,-3.9246,-3.9643,-3.9863,-4.0414,-4.1093,-4.1901,-4.1974,-4.2304,-4.3112,-4.3397,-4.3403,-4.3019,-4.3305,-4.3141,-4.245,-4.3028,-4.3314,-4.3223,-4.3728,-4.4118,-4.4304,-4.4321,-4.4367,-4.457,-4.435,-4.4265,-4.4248,-4.3322,-4.219,-4.0916,-4.0054,-3.8974,-3.7699,-3.6839,-3.6375,-3.6163,-3.5684,-3.5504,-3.5504,-3.5504,-3.5504,-3.5504,-3.5504,-3.5504,-3.5504,-3.5504,-3.5504,-3.5504,-3.5504,-3.5359,-3.5148,-3.492,-3.4221,-3.3506,-3.3283,-3.24,-3.1492,-3.1492,-3.0996,-3.0724,-3.1355,-3.1304,-3.1811,-3.3806,-3.3099,-3.2663,-3.3656,-3.3495,0.0,-3.3142,-3.3326,-3.3411,-3.3167,-3.3081,-3.3081,-3.3081,-3.293,-3.2667,-3.224,-3.1562,-3.0929,-3.0288,-2.9663,-2.9131,-2.8882,-2.9052,-2.9131,0.0,0.0,0.0,0.0,0.0,0.0,0.0,0.0,0.0,0.0,0.0,0.0,0.0,0.0,0.0,0.0,0.0,0.0,0.0,0.0,0.0,0.0,-3.8982,-3.9203,-3.9203,-3.9606,-4.0139,-4.0818,-4.1332,-4.1919,-4.2708,-4.28,-4.313,-4.3938,-4.4181,-4.4129,-4.3804,-4.4082,-4.3924,-4.3253,-4.3722,-4.4003,-4.391,-4.435,-4.4587,-4.4587,-4.4587,-4.4587,-4.4587,-4.4587,-4.444,0.0,-4.3333,-4.234,-4.1151,-4.0266,-3.9337,0.0,0.0,0.0,0.0,0.0,-3.5744,-3.5504,-3.5504,-3.5504,-3.5504,-3.5504,-3.5504,-3.5504,-3.5504,-3.5504,-3.5504,-3.5424,-3.5213,-3.4935,-3.4192,-3.3422,-3.272,-3.2074,-3.1329,-3.0766,-3.0766,-3.0582,-3.0557,-3.0871,-3.0947,0.0,-3.3025,-3.27,-3.2483,-3.3315,-3.3246,-3.3081,-3.3081,-3.3081,-3.3081,-3.3081,-3.3081,-3.3081,-3.3081,-3.3081,0.0,0.0,0.0,-3.1153,-3.014,-2.9346,0.0,0.0,0.0,-2.8816,-2.8816,0.0,0.0,0.0,-2.9352,-2.9794,0.0,0.0,0.0,0.0,0.0,0.0,0.0,0.0,0.0,0.0,0.0,0.0,0.0,0.0,0.0,0.0,-3.9423,-3.9955,-4.0139,-4.0157,-4.0689,-4.2139,-4.2378,-4.2708,-4.3424,-4.3571,-4.392,-4.4654,-4.4766,-4.4776,-4.4632,0.0,0.0,0.0,0.0,-4.4587,-4.4587,-4.4587,-4.4587,-4.4587,-4.4587,-4.4587,-4.4587,-4.4587,-4.4179,-4.3453,-4.2645,-4.1901,-4.1209,-4.0146,-3.9696,-3.9489,-3.8087,-3.7479,-3.7345,-3.6716,-3.6118,-3.5609,-3.5534,0.0,0.0,-3.5504,-3.5504,-3.5504,-3.5504,-3.5504,-3.5439,-3.5228,-3.5001,-3.4356,-3.2834,-3.2205,-3.1649,-3.0216,-3.0234,-3.052,-3.052,-3.0884,-3.121,-3.121,-3.121,-3.121,-3.121,-3.1712,-3.2127,-3.2127,-3.2554,-3.288,-3.288,-3.2943,-3.298,-3.298,0.0,0.0,-3.3081,-3.3068,-3.3068,-3.3068,-3.2237,-3.1178,-2.9898,-2.9027,-2.8578,-2.8724,-2.8578,-2.851,-2.851,-2.851,-2.851,-2.8522,-2.9382,-2.98,0.0,0.0,0.0,0.0,0.0,0.0,0.0,0.0,0.0,0.0,0.0,0.0,0.0,0.0,0.0,-3.9551,-3.979,-4.0341,-4.1644,-4.1846,-4.1956,-4.2268,-4.2873,-4.3314,-4.3461,-4.4085,-4.4544,-4.4709,-4.5196,-4.5513,-4.5481,-4.519,-4.4936,-4.4773,-4.4652,-4.4587,-4.4587,-4.4587,-4.4587,-4.4587,0.0,0.0,-4.4587,-4.4587,-4.4179,-4.3453,-4.2645,-4.182,-4.1008,-4.0091,-3.9625,-3.9406,-3.8512,-3.7883,-3.7345,-3.6716,-3.6402,-3.6222,-3.5684,-3.5504,-3.5504,-3.5504,-3.5504,-3.5504,-3.5504,-3.5359,0.0,-3.5213,-3.4505,-3.3713,-3.3353,-3.2191,-3.1044,-3.0758,-3.0292,-2.9942,-2.9942,-3.003,-3.0105,-3.0105,-3.0105,-3.0105,-3.0105,-3.0909,-3.1549,-3.1549,-3.1637,-3.1712,-3.1712,-3.2102,-3.2378,-3.2378,-3.2805,-3.3081,-3.3081,-3.2896,-3.281,-3.281,-3.1441,-3.0345,-2.9699,-2.8947,-2.851,-2.8578,-2.851,-2.851,-2.851,-2.851,-2.851,-2.851,-2.8833,-2.926,0.0,0.0,0.0,0.0,0.0,0.0,0.0,0.0,0.0,0.0,0.0,-3.8707,0.0,0.0,-3.9423,-3.9827,-4.0579,-4.1387,-4.2194,-4.2653,-4.2892,-4.2892,-4.3259,-4.3497,-4.3497,-4.4232,-4.4766,-4.4965,-4.5621,-4.5962,-4.5806,-4.5525,-4.5213,-4.494,-4.4682,-4.4587,-4.4587,-4.4587,-4.4587,-4.4587,-4.4587,-4.4587,-4.4587,-4.4587,-4.3989,-4.2953,-4.2379,-4.1509,-4.0439,-3.9824,-3.9481,-3.9394,-3.9035,-3.8497,-3.7853,-3.7554,-3.703,-3.6432,-3.6118,-3.5774,-3.5504,-3.5504,-3.5504,-3.5504,-3.5504,-3.5359,-3.5082,-3.4639,-3.4002,-3.3283,-3.242,-3.1536,-3.082,-3.0406,-3.0075,-2.9792,-2.9792,-2.9792,-2.9792,-2.9792,-2.9792,-2.9792,-2.9792,-3.0231,-3.0683,-3.0959,-3.1223,-3.1386,-3.1386,-3.1625,-3.18,-3.18,-3.2231,-3.2484,-3.2484,-3.2574,-3.2463,-3.2376,-3.1333,-3.0554,-2.9866,-2.9265,-2.8775,-2.8522,-2.851,-2.851,-2.851,-2.851,-2.851,-2.851,-2.8578,-2.8935,0.0,0.0,0.0,0.0,0.0,0.0,0.0,0.0,-3.8707,-3.8707,-3.8707,-3.8762,-3.8909,-3.946,-3.9992,-4.0322,-4.1442,-4.2359,-4.2506,-4.3075,-4.3497,-4.3497,-4.3497,-4.3552,-4.3718,-4.4381,-4.4984,-4.5417,-4.599,-4.6257,-4.5982,-4.5716,-4.5337,-4.4831,-4.4682,-4.4587,-4.4587,-4.4587,-4.4587,-4.4587,-4.4587,-4.4587,-4.4587,-4.444,-4.368,-4.2458,-4.1885,-4.0925,-3.9854,-3.9568,-3.9424,-3.9424,-3.9424,-3.908,-3.8571,-3.8437,-3.7734,-3.6821,-3.6567,-3.6148,-3.5669,-3.5549,-3.5439,-3.5439,-3.5439,-3.5294,-3.4935,-3.4002,-3.3506,-3.2861,-3.1328,-3.0833,-3.0558,-2.9934,-2.9792,-2.9792,-2.9792,-2.9792,-2.9792,-2.9792,-2.9792,-2.9792,-2.9792,-2.9792,-2.9942,-3.0382,-3.0809,-3.1085,-3.1085,-3.1173,-3.1235,-3.1235,-3.1572,-3.1779,-3.1794,-3.2056,-3.2103,-3.1937,-3.1416,-3.0797,-3.011,-2.9581,-2.9051,-2.8522,-2.851,-2.851,-2.851,-2.851,-2.851,-2.851,-2.851,-2.8739,-4.0234,-3.9954,-3.9599,-3.9599,-3.9165,-3.875,0.0,0.0,-3.8707,-3.8707,-3.8707,-3.8927,-3.9625,-3.9827,-4.0359,-4.1791,-4.2176,-4.2543,-4.3259,-4.3424,-4.3497,-4.3497,-4.3497,-4.3773,-4.4507,-4.4945,-4.5454,-4.6191,-4.6229,-4.6227,-4.6168,-4.5477,-4.5032,-4.4978,-4.4737,-4.4587,-4.4587,-4.4587,-4.4587,-4.4587,-4.4587,-4.4587,-4.457,-4.3914,-4.3196,-4.2395,-4.0888,-3.991,-3.9496,-3.9424,-3.9424,-3.9424,-3.9424,-3.9364,-3.923,-3.8616,-3.8302,-3.8018,-3.6881,-3.6432,-3.6282,-3.5684,-3.5359,-3.5213,-3.5213,-3.503,-3.4616,-3.3796,-3.2932,-3.2074,-3.1119,-3.0406,-2.9934,-2.9792,-2.9792,-2.9792,-2.9792,-2.9792,-2.9792,-2.9792,-2.9792,-2.9792,-2.9792,-2.9792,-2.9817,-2.988,-2.993,-2.9967,-2.9967,-3.0394,-3.0708,-3.0708,-3.1023,-3.119,-3.1235,-3.1333,-3.1404,-3.1725,-3.1255,-3.0724,-3.011,-2.9581,-2.9051,-2.8522,-2.851,-2.851,-2.851,-2.851,-2.851,-2.851,-2.851,-2.8546,-4.0057,-3.9804,-3.9502,0.0,-3.9101,-3.8719,-3.891,-3.8792,-3.8836,-3.9294,-3.9405,-3.9643,-4.0451,-4.0983,-4.1515,0.0,-4.269,-4.3112,-4.3442,-4.3497,-4.3497,-4.3497,-4.3901,-4.4342,-4.4672,-4.5662,-4.6208,-4.6,-4.6308,-4.62,-4.5529,-4.5514,-4.5495,-4.5382,-4.5693,-4.5872,-4.5872,-4.5449,-4.5229,-4.5229,-4.479,-4.4587,-4.457,-4.3839,-4.2814,-4.1575,-4.0439,-3.9783,-3.9424,-3.9424,-3.9424,-3.9424,-3.9424,-3.9424,-3.9394,-3.9095,-3.8736,-3.8317,-3.7778,-3.7105,-3.6432,-3.603,-3.5606,-3.5148,-3.5082,-3.4883,-3.4399,-3.3129,-3.2492,-3.1796,-3.057,-2.9998,-2.9792,-2.9792,-2.9792,-2.9792,-2.9792,-2.9792,-2.9792,-2.9792,-2.9792,-2.9792,-2.9792,-2.9792,-2.9792,-2.9792,-2.9792,-2.9702,-2.9611,-2.9799,-2.9903,-2.9985,-3.0138,-3.0318,-3.0531,-3.0568,-3.0712,-3.1168,-3.0999,-3.0639,-3.011,-2.9869,-2.9364,-2.8522,-2.851,-2.851,-2.851,-2.851,-2.851,-2.851,-2.851,-2.851,-3.9954,0.0,0.0,-3.9427,-3.9045,-3.875,-3.895,-3.9017,-3.9203,-3.9772,-4.0065,-4.0487,-4.1295,-4.1919,-4.2378,-4.2598,-4.3112,-4.3497,-4.3497,-4.3497,-4.3571,-4.3791,-4.4544,-4.5077,-4.515,-4.621,-4.6644,-4.6079,-4.634,-4.6102,-4.514,-4.5601,-4.5915,-4.576,-4.6413,-4.6786,-4.6786,-4.6075,-4.5703,-4.5703,-4.4942,-4.4587,-4.457,-4.3604,-4.2252,-4.0684,-4.0176,-3.9711,-3.9424,-3.9424,-3.9424,-3.9424,-3.9424,-3.9424,-3.9424,-3.9424,-3.9095,-3.8646,-3.8452,-3.7793,-3.6956,-3.638,-3.58,-3.5304,-3.4927,-3.4601,-3.4031,-3.2621,-3.206,-3.1502,-3.0152,-2.9792,-2.9792,-2.9792,-2.9792,-2.9792,-2.9792,-2.9792,-2.9792,-2.9792,-2.9792,-2.9792,-2.9792,-2.9792,-2.9792,-2.9792,-2.9702,-2.9611,-2.9419,-2.9341,-2.9345,-2.9407,-2.9375,-2.9525,-2.9821,-2.9869,-3.0098,-3.0627,-3.0651,-3.0422,-2.9893,-2.9869,-2.9436,-2.8522,-2.851,-2.851,-2.851,-2.851,-2.851,-2.851,-2.851,-2.851,0.0,0.0,-3.9452,-3.9183,-3.8892,-3.8707,-3.8707,-3.9294,-3.9863,-3.9882,-4.0524,-4.1313,-4.2121,-4.2286,-4.2561,-4.3332,-4.3461,-4.3497,-4.3497,-4.3497,-4.3791,-4.458,-4.5369,-4.5992,0.0,-4.6395,-4.6513,-4.6864,-4.6442,-4.5938,-4.523,-4.5751,-4.601,-4.5915,-4.6455,-4.6786,-4.6786,-4.6075,-4.5703,-4.5703,-4.4942,-4.4587,-4.457,-4.3031,-4.1509,-3.9996,-3.9839,-3.9625,-3.9424,-3.9424,-3.9424,-3.9424,-3.9424,-3.9424,-3.9424,-3.9424,-3.9409,-3.929,-3.8616,-3.8362,-3.8123,-3.6663,-3.6029,-3.576,-3.494,-3.4031,-3.3087,-3.229,-3.1563,-3.0758,-2.9998,-2.9792,-2.9792,-2.9792,-2.9792,-2.9792,-2.9792,-2.9792,-2.9792,-2.9792,-2.9792,-2.9792,-2.9792,-2.9792,-2.9792,-2.9792,-2.9599,-2.9419,-2.9419,-2.9197,-2.9052,-2.8816,-2.8816,-2.8967,-2.928,-2.9316,-2.9544,-3.0074,-3.011,-2.9869,-2.9352,-2.9316,-2.9063,-2.8522,-2.851,-2.851,-2.851,-2.851,-2.851,-2.851,-2.851,-2.851,-3.9956,0.0,-3.9452,-3.9183,-3.9298,-3.9496,-3.9496,-4.012,-4.0855,-4.1387,-4.1717,-4.2139,-4.2947,-4.3094,-4.3167,-4.3442,-4.3497,-4.3497,-4.3497,-4.3956,-4.4397,-4.4672,-4.5605,0.0,0.0,0.0,0.0,-4.6472,-4.6084,-4.5875,-4.5805,-4.6277,-4.6767,-4.7217,-4.7885,-4.8257,-4.8257,-4.7039,-4.643,-4.6413,-4.5179,-4.4121,-4.3169,-4.2583,-4.1444,-3.9996,-3.9768,-3.9625,-3.9424,-3.9424,-3.9424,-3.9424,-3.9424,-3.9424,-3.9424,-3.9424,-3.9424,-3.9394,-3.9155,-3.871,-3.8121,-3.7493,-3.6615,-3.5644,-3.5234,-3.4209,-3.3073,-3.229,-3.1489,-3.0758,-2.9998,-2.9792,-2.9792,-2.9792,-2.9792,-2.9792,-2.9792,-2.9792,-2.9792,-2.9792,-2.9792,-2.9792,-2.9792,-2.9792,-2.9714,-2.9378,-2.9287,-2.9118,-2.9028,-2.8816,-2.8669,-2.8578,-2.8578,-2.8662,-2.8763,-2.8775,-2.9003,-2.9532,-2.9569,-2.9484,-2.9304,-2.9304,-2.9051,-2.8522,-2.851,-2.851,-2.851,-2.851,-2.851,-2.851,-2.851,-2.851,-3.987,-3.983,-3.9832,-3.949,-3.9853,-4.0322,-4.0322,-4.0946,-4.168,-4.2194,-4.2525,-4.2892,-4.3387,-4.3497,-4.3497,-4.3497,-4.3497,-4.3497,-4.3497,-4.4195,-4.4729,-4.4857,-4.5794,-4.6398,0.0,0.0,0.0,-4.6235,-4.6248,-4.6222,-4.6088,-4.6924,-4.753,-4.7902,-4.8629,-4.9001,-4.9001,-4.753,-4.6532,-4.5991,-4.5026,-4.3931,-4.2785,-4.2395,-4.1509,-4.0246,-3.9753,-3.9553,-3.9424,-3.9424,-3.9424,-3.9424,-3.9424,-3.9424,-3.9424,-3.9337,-3.9265,-3.9265,-3.9265,-3.8909,-3.8364,-3.7942,-3.7137,-3.6149,-3.5264,-3.4101,-3.2925,-3.1909,-3.1132,-3.0419,-2.9934,-2.9792,-2.9792,-2.9792,-2.9792,-2.9792,-2.9792,-2.9792,-2.9792,-2.9792,-2.9792,-2.9792,-2.9792,-2.9702,-2.9534,-2.9052,-2.8961,-2.8882,-2.8736,-2.8578,-2.851,-2.851,-2.851,-2.851,-2.851,-2.851,-2.8655,-2.8991,-2.9015,-2.9015,-2.9015,-2.9015,-2.8859,-2.8522,-2.8179,-2.8018,-2.8007,-2.7672,-2.7499,-2.7499,-2.7499,-2.7499,-3.9703,-4.0134,-4.0614,-4.0105,-4.0579,-4.1167,-4.1167,-4.1791,-4.2359,-4.2359,-4.2965,-4.3497,0.0,0.0,-4.3497,-4.3497,-4.3497,-4.3497,-4.3497,-4.4196,-4.4839,0.0,0.0,0.0,0.0,0.0,0.0,-4.6207,0.0,-4.6952,-4.6281,-4.7609,-4.8218,-4.797,-4.8646,-4.9001,-4.9001,-4.753,-4.6041,-4.4587,-4.457,-4.4138,-4.3246,-4.2395,-4.1494,-4.06,-3.9753,-3.9424,-3.9424,-3.9424,-3.9424,-3.9424,-3.9424,-3.9424,-3.9352,-3.9177,-3.9104,-3.9104,-3.9104,-3.9104,-3.8928,-3.7959,-3.7594,-3.7186,-3.4894,-3.3675,-3.2685,-3.1277,-3.0343,-2.9792,-2.9792,-2.9792,-2.9792,-2.9792,-2.9792,-2.9792,-2.9792,-2.9792,-2.9792,-2.9792,-2.9792,-2.9792,-2.9792,-2.9599,-2.9263,-2.887,-2.8803,-2.8724,-2.851,-2.851,-2.851,-2.851,-2.851,-2.851,-2.851,-2.851,-2.851,-2.851,-2.851,-2.851,-2.851,-2.8431,-2.8431,-2.8431,-2.7592,-2.7103,-2.7103,-2.6246,-2.5819,-2.5819,-2.5819,-2.5819,-4.0497,-4.0838,-4.1277,-4.1149,-4.153,-4.1992,-4.1992,-4.2616,-4.3185,-4.3185,-4.3351,-4.3497,0.0,0.0,0.0,-4.3497,-4.3497,0.0,-4.3497,-4.4437,0.0,-4.5178,0.0,-4.6247,-4.6217,-4.6394,0.0,0.0,-4.6514,-4.69,-4.7745,-4.8038,-4.8303,-4.8714,-4.89,-4.9001,-4.9001,-4.753,-4.6041,-4.4587,-4.444,-4.3739,-4.2537,-4.1997,-4.1095,-3.995,-3.9553,-3.9424,-3.9424,-3.9424,-3.9424,-3.9424,-3.9424,-3.9424,-3.9352,-3.9177,-3.9104,-3.9031,-3.8738,-3.8664,-3.8634,-3.8325,-3.7901,-3.707,-3.5419,-3.4007,-3.2685,-3.1277,-3.0343,-2.9792,-2.9792,-2.9792,-2.9792,-2.9792,-2.9792,-2.9792,-2.9792,-2.9792,-2.9792,-2.9792,-2.9792,-2.9702,-2.9521,-2.9353,-2.9118,-2.8882,-2.8657,-2.8578,-2.851,-2.851,-2.851,-2.851,-2.851,-2.851,-2.851,-2.851,-2.851,-2.851,-2.851,-2.851,-2.851,-2.7846,-2.751,-2.751,-2.667,-2.6163,-2.6163,-2.5902,-2.5819,-2.5819,-2.5819,-2.5819,-4.1015,-4.1529,-4.2013,-4.1878,-4.2345,-4.2818,-4.2818,-4.3167,-4.3497,-4.3497,-4.3497,0.0,0.0,0.0,0.0,0.0,0.0,0.0,-4.3232,-4.4183,-4.4791,0.0,-4.5552,0.0,-4.6342,-4.6498,-4.6889,0.0,-4.7489,-4.7683,-4.8343,-4.8609,-4.8787,-4.8984,-4.9001,-4.8697,-4.8037,-4.7208,-4.6041,-4.4587,-4.4384,-4.3722,-4.2567,-4.1981,-4.1095,-4.0021,0.0,-3.9424,-3.9424,-3.9424,-3.9424,-3.9424,-3.9424,-3.9424,-3.9337,-3.9104,-3.8943,-3.8943,-3.8516,-3.8366,-3.8366,-3.8366,-3.7806,-3.6878,-3.5446,-3.399,-3.2558,-3.1164,-3.033,-2.9792,-2.9792,-2.9792,-2.9792,-2.9792,-2.9792,-2.9792,-2.9792,-2.9792,-2.9792,-2.9792,-2.9702,-2.9521,-2.9275,-2.9118,-2.8882,-2.8736,-2.8578,-2.851,-2.851,-2.851,-2.851,-2.851,-2.851,-2.851,-2.851,-2.851,-2.851,-2.851,-2.851,-2.8351,-2.7926,-2.7429,-2.701,-2.6588,-2.5663,-2.5242,-2.5242,-2.4819,-2.4648,-2.4648,-2.4648,-2.4648,-4.1468,-4.2187,-4.2754,-4.2518,-4.2983,-4.3497,-4.3497,-4.3497,-4.3497,-4.3497,0.0,-4.3497,-4.3497,-4.3497,-4.3479,-4.341,0.0,-4.2882,-4.2806,-4.3704,-4.4254,-4.3851,-4.5141,-4.6219,-4.6581,-4.67,-4.7338,-4.8717,-4.8924,-4.8862,-4.8531,-4.9129,-4.9367,-4.9001,-4.9001,-4.8291,-4.6802,-4.6786,-4.6041,-4.4587,-4.4293,-4.3706,-4.286,-4.1917,-4.1095,-4.0355,0.0,0.0,-3.9424,-3.9424,-3.9424,-3.9424,-3.9337,-3.9337,-3.9337,-3.8943,-3.8782,-3.8723,-3.8352,-3.8202,-3.8202,-3.8202,-3.7644,-3.6654,-3.5237,-3.3832,-3.2475,-3.101,-3.0269,-2.988,-2.9817,-2.9792,-2.9792,-2.9792,-2.9792,-2.9792,-2.9792,-2.9792,-2.9792,-2.9792,-2.9521,-2.9275,-2.9118,-2.8882,-2.8724,-2.851,-2.851,-2.851,-2.851,-2.851,-2.851,-2.851,-2.851,-2.851,-2.851,-2.851,-2.8431,-2.8339,-2.8351,-2.7926,-2.701,-2.6928,-2.6423,-2.5652,-2.4744,-2.4327,-2.4327,-2.3474,-2.3135,-2.3135,-2.3135,-2.3135,-4.2193,-4.2754,-4.3345,-4.3311,-4.3387,-4.3497,-4.3497,-4.3497,0.0,0.0,-4.3497,-4.3497,-4.3497,-4.3497,-4.3375,-4.3069,0.0,0.0,0.0,0.0,-4.388,0.0,0.0,0.0,0.0,0.0,0.0,0.0,0.0,-4.967,-4.9359,-4.9419,-4.9367,-4.9001,-4.9001,-4.8291,-4.6802,-4.6786,-4.6041,-4.4587,-4.3647,-4.2876,-4.2125,-4.1178,-4.027,-3.9553,-3.9481,0.0,-3.9424,-3.9424,-3.9424,-3.9352,-3.9192,-3.9177,-3.9104,-3.8738,-3.859,-3.8516,-3.8277,-3.8202,-3.8202,-3.8202,-3.7644,-3.6654,-3.5237,-3.4126,-3.2982,-3.1124,-3.0545,-3.0369,-2.9917,-2.9792,-2.9792,-2.9792,-2.9792,-2.9792,-2.9792,-2.9611,-2.9509,-2.9509,-2.9275,-2.9118,-2.8882,-2.8791,-2.8724,-2.851,-2.851,-2.851,-2.851,-2.851,-2.851,-2.851,-2.851,-2.851,-2.851,-2.851,-2.8179,-2.7429,-2.7429,-2.701,-2.608,-2.5326,-2.4914,-2.4744,-2.382,-2.3299,-2.3299,-2.3135,-2.3135,-2.3135,-2.3135,-2.3135,-4.2834,-4.3204,-4.3497,-4.3497,-4.3497,-4.3497,-4.3497,0.0,0.0,0.0,-4.3497,-4.3497,-4.3497,0.0,0.0,0.0,0.0,0.0,0.0,0.0,0.0,0.0,0.0,0.0,0.0,0.0,0.0,0.0,0.0,-4.9725,-4.9488,-4.9307,-4.9185,-4.9001,-4.9001,-4.8291,-4.6802,-4.6786,-4.6041,-4.444,-4.3453,-4.2613,-4.1788,-4.0925,-4.0091,-3.9424,-3.9424,0.0,-3.9424,-3.9424,-3.9424,-3.9352,-3.9177,-3.9104,-3.9031,-3.8664,-3.8516,-3.8441,-3.8277,-3.8202,-3.8127,-3.7644,-3.6922,-3.5987,-3.4915,-3.3731,-3.2605,-3.1317,-3.0821,-3.0495,-2.993,-2.9792,-2.9792,-2.9792,-2.9792,-2.9792,-2.9611,-2.9509,-2.9341,-2.9275,-2.9118,-2.8882,-2.8803,-2.8724,-2.8578,-2.851,-2.851,-2.851,-2.851,-2.851,-2.851,-2.851,-2.851,-2.8351,-2.7846,-2.7846,-2.7429,-2.6505,-2.6505,-2.608,-2.5158,-2.4744,-2.4241,-2.382,-2.3309,-2.3135,-2.3135,-2.3135,-2.3135,-2.3135,-2.3135,-2.3135,-4.3298,-4.3497,-4.3497,-4.3497,-4.3497,-4.3497,-4.3497,-4.3497,0.0,0.0,-4.3497,-4.3479,-4.3375,0.0,-4.2844,0.0,0.0,0.0,0.0,0.0,0.0,0.0,0.0,0.0,0.0,0.0,0.0,0.0,0.0,0.0,-4.9411,-4.9033,-4.8765,-4.8765,-4.8612,-4.7902,-4.6583,-4.6549,-4.5814,-4.431,-4.3257,-4.2425,-4.1658,-4.0721,-3.995,-3.9424,-3.9424,0.0,0.0,-3.9424,-3.9424,-3.9352,-3.9104,-3.9031,-3.9031,-3.859,-3.8441,-3.8441,-3.8277,-3.8052,-3.781,-3.6922,-3.6188,-3.5467,-3.462,-3.3489,-3.2277,-3.1725,-3.1185,-3.0658,-3.0105,-2.988,-2.9792,-2.9702,-2.9702,-2.9611,-2.9431,-2.9263,-2.9184,-2.9052,-2.8882,-2.8724,-2.8724,-2.8578,-2.851,-2.851,-2.851,-2.851,-2.851,-2.851,-2.851,-2.851,-2.851,-2.8179,-2.7267,-2.7185,-2.6753,-2.5579,-2.5495,-2.5158,-2.4241,-2.4241,-2.382,-2.3135,-2.3135,-2.3135,-2.3135,-2.3135,-2.3135,-2.3135,-2.3135,-2.3135,-4.3358,-4.3446,-4.3497,-4.3497,-4.3497,-4.3497,-4.3497,0.0,0.0,-4.3497,-4.3497,-4.3375,-4.3032,-4.292,-4.2634,0.0,0.0,0.0,0.0,0.0,0.0,0.0,0.0,0.0,0.0,0.0,0.0,0.0,0.0,0.0,-4.9195,-4.8436,-4.802,-4.802,-4.7344,-4.6616,-4.5821,-4.5805,-4.5324,-4.4293,-4.2831,-4.1917,-4.1658,-4.02,-3.9481,-3.9424,-3.9424,0.0,0.0,-3.9424,-3.9424,-3.9337,-3.8943,-3.8855,-3.8797,-3.8352,-3.8202,-3.8202,-3.8202,-3.7644,-3.6844,-3.6029,-3.5695,-3.5467,-3.462,-3.3784,-3.288,-3.2303,-3.1738,-3.1198,-3.0683,-3.0168,-2.9702,-2.9509,-2.9419,-2.9353,-2.9209,-2.8961,-2.887,-2.8803,-2.8657,-2.851,-2.851,-2.851,-2.851,-2.851,-2.851,-2.851,-2.851,-2.851,-2.851,-2.851,-2.851,-2.8179,-2.7267,-2.7185,-2.6423,-2.4744,-2.4584,-2.4241,-2.3309,-2.3222,-2.3222,-2.3135,-2.3135,-2.3135,-2.3135,-2.3135,-2.3135,-2.3135,-2.3135,-2.3135,-4.334,-4.3446,-4.3497,-4.3497,-4.3497,-4.3497,-4.3497,0.0,-4.3497,-4.3497,-4.3497,-4.3375,-4.2957,-4.2673,-4.2239,0.0,0.0,0.0,0.0,0.0,0.0,0.0,0.0,0.0,0.0,0.0,0.0,0.0,0.0,0.0,-4.7785,-4.7454,-4.7242,-4.7242,-4.6955,-4.6447,-4.572,-4.5703,-4.4992,-4.3512,-4.2504,-4.1609,-4.0909,-3.9864,-3.9424,-3.9424,-3.9424,0.0,0.0,-3.9424,-3.9424,-3.9337,-3.8943,-3.8782,-3.8708,-3.8352,-3.8202,-3.8202,-3.8202,-3.7644,-3.6766,-3.5869,-3.5224,-3.469,-3.3894,-3.3411,-3.2955,-3.2378,-3.2051,-3.1687,-3.0834,-3.0102,-2.9509,-2.9419,-2.9353,-2.9197,-2.8961,-2.8882,-2.8724,-2.8657,-2.859,-2.851,-2.851,-2.851,-2.851,-2.851,-2.851,-2.851,-2.851,-2.851,-2.8259,-2.7765,-2.7684,-2.7348,-2.6412,-2.5913,-2.4999,-2.3734,-2.3647,-2.3474,-2.3135,-2.3135,-2.3135,-2.3135,-2.3135,-2.3135,-2.3135,-2.3135,-2.3135,-2.3135,-2.3135,-2.3135,-4.3305,-4.3393,-4.3463,-4.3497,-4.3497,-4.3497,0.0,0.0,-4.3339,-4.3497,-4.3286,-4.3014,-4.275,-4.2297,-4.1864,0.0,0.0,0.0,0.0,0.0,0.0,0.0,0.0,0.0,0.0,0.0,0.0,0.0,0.0,0.0,0.0,-4.6261,-4.6244,-4.6464,-4.6244,-4.5889,-4.5382,-4.5365,-4.4566,-4.2982,-4.23,-4.1494,-4.0478,-3.9753,-3.9424,-3.9424,0.0,0.0,0.0,-3.9424,-3.9337,-3.9265,-3.8943,-3.8782,-3.8649,-3.8352,-3.8202,-3.8127,-3.7886,-3.7246,-3.636,-3.5561,-3.469,-3.3907,-3.3326,-3.3081,-3.2993,-3.2591,-3.234,-3.1964,-3.0896,-3.0148,-2.963,-2.939,-2.9118,-2.8973,-2.8724,-2.8724,-2.8657,-2.851,-2.851,-2.851,-2.851,-2.851,-2.851,-2.851,-2.851,-2.8431,-2.8179,-2.8099,-2.7765,-2.6835,-2.6599,-2.6163,-2.5495,-2.5073,-2.4402,-2.3135,-2.3135,-2.3135,-2.3135,-2.3135,-2.3135,-2.3135,-2.3135,-2.3135,-2.3135,-2.3135,-2.3135,-2.3135,-2.3135,-2.3135,-4.3214,-4.3305,-4.3429,-4.3497,-4.3497,-4.3497,0.0,-4.3178,-4.3032,-4.341,-4.2808,-4.2198,-4.2198,-4.1821,-4.1356,-4.0965,0.0,0.0,0.0,0.0,0.0,0.0,0.0,0.0,0.0,0.0,0.0,0.0,0.0,0.0,0.0,-4.501,-4.4942,-4.5703,-4.4993,-4.4604,-4.4587,-4.4587,-4.4064,-4.2982,-4.23,-4.1494,-4.0478,-3.9753,-3.9424,0.0,0.0,0.0,0.0,-3.9424,-3.9265,-3.9104,-3.887,-3.8649,-3.8441,-3.8277,-3.8202,-3.8052,-3.7169,-3.636,-3.5467,-3.4703,-3.3823,-3.3081,-3.3081,-3.3081,-3.3081,-3.3068,-3.2654,-3.1964,-3.0896,-3.0436,-3.0127,-2.9266,-2.8961,-2.8724,-2.859,-2.851,-2.851,-2.851,-2.851,-2.851,-2.851,-2.851,-2.851,-2.851,-2.851,-2.8179,-2.7348,-2.7185,-2.6835,-2.5913,-2.5073,-2.4488,-2.4498,-2.5326,-2.4988,-2.3222,-2.3135,-2.3135,-2.3135,-2.3135,-2.3135,-2.3135,-2.3135,-2.3135,-2.3135,-2.3135,-2.3135,-2.3135,-2.3135,-2.3135,-4.3305,-4.3411,-4.3463,-4.3479,-4.3497,-4.341,-4.3142,-4.2995,-4.2844,-4.2655,-4.24,-4.2115,-4.1778,-4.1604,-4.1356,-4.0965,-4.0888,0.0,0.0,0.0,0.0,0.0,0.0,0.0,0.0,0.0,0.0,0.0,0.0,0.0,0.0,-4.4705,-4.4688,-4.4925,-4.4705,-4.4587,-4.4587,-4.4105,-4.3333,-4.2316,-4.1625,-4.0805,-3.9753,-3.9481,0.0,0.0,0.0,0.0,0.0,-3.9424,-3.9265,-3.9104,-3.887,-3.8649,-3.8441,-3.8277,-3.8202,-3.8052,-3.7169,-3.636,-3.5467,-3.462,-3.3823,-3.3081,-3.3081,-3.3081,-3.3081,-3.3081,-3.2667,-3.2051,-3.1336,-3.063,-2.9911,-2.9266,-2.8816,-2.8578,-2.851,-2.851,-2.851,-2.851,-2.851,-2.851,-2.851,-2.851,-2.851,-2.851,-2.851,-2.8179,-2.7348,-2.7185,-2.6588,-2.5084,-2.5158,-2.5158,-2.4573,-2.4145,-2.3724,-2.3144,-2.3135,-2.3135,-2.3135,-2.3135,-2.3135,-2.3135,-2.3135,-2.3135,-2.3135,-2.3135,-2.3057,-2.2882,-2.2706,-2.2706,0.0,-4.3411,-4.3463,-4.3497,-4.3375,0.0,0.0,-4.2634,-4.2338,-4.2198,-4.1948,-4.1666,-4.1534,-4.1356,-4.1209,-4.0918,-4.0888,0.0,0.0,0.0,0.0,0.0,0.0,0.0,0.0,0.0,0.0,0.0,0.0,0.0,0.0,-4.4587,-4.4587,-4.4587,-4.4587,-4.444,-4.4179,-4.3663,-4.2831,-4.1625,-4.1111,-4.0324,-3.9424,-3.9424,0.0,0.0,0.0,0.0,0.0,-3.9424,-3.9265,-3.8943,-3.887,-3.8649,-3.8366,-3.8277,-3.8202,-3.8037,-3.6844,-3.6029,-3.5373,-3.4301,-3.3569,-3.3081,-3.3081,-3.3081,-3.3081,-3.3081,-3.2817,-3.2403,-3.1768,-3.0984,-3.0126,-2.9481,-2.8882,-2.851,-2.851,-2.851,-2.851,-2.851,-2.851,-2.851,-2.851,-2.851,-2.851,-2.851,-2.8259,-2.7684,-2.6753,-2.634,-2.5579,-2.4155,-2.4488,-2.4563,-2.3983,-2.3734,-2.3484,-2.3135,-2.3057,-2.2969,-2.2969,-2.2872,-2.2872,-2.2872,-2.2872,-2.2872,-2.2872,-2.2872,-2.2784,-2.2618,-2.2441,-2.253,0.0,-4.3214,0.0,0.0,0.0,0.0,-4.2806,-4.2115,0.0,-4.2032,-4.1463,-4.0995,-4.1401,-4.1163,-4.0888,-4.0888,-4.0888,0.0,0.0,0.0,0.0,0.0,0.0,0.0,0.0,0.0,0.0,0.0,0.0,0.0,0.0,-4.4514,-4.4514,-4.444,-4.444,-4.4105,-4.3512,-4.329,-4.2411,-4.1008,-4.0774,-4.0185,-3.9424,-3.9424,0.0,0.0,0.0,0.0,0.0,-3.9424,-3.9177,-3.8782,-3.8782,-3.856,-3.8202,-3.8202,-3.8127,-3.7886,-3.6188,-3.5548,-3.5224,-3.3641,-3.3081,-3.3081,-3.3081,-3.3081,-3.3081,-3.3081,-3.3068,-3.2857,-3.2087,-3.1289,-3.0581,-2.976,-2.902,-2.851,-2.851,-2.851,-2.851,-2.851,-2.851,-2.851,-2.851,-2.851,-2.851,-2.8431,-2.7684,-2.6846,-2.583,-2.4988,-2.4155,-2.3222,-2.3135,-2.3135,-2.3135,-2.3907,-2.3993,-2.3135,-2.2882,-2.2794,-2.2794,-2.253,-2.2441,-2.2441,-2.2441,-2.2441,-2.2441,-2.2353,-2.2353,-2.2353,-2.2353,-2.2353,-4.2338,0.0,-4.2498,-4.248,-4.244,-4.2297,0.0,-4.1648,-4.1445,-4.1255,0.0,-4.0918,-4.1041,-4.0965,-4.0888,-4.0888,-4.0888,-4.0888,0.0,0.0,0.0,0.0,0.0,0.0,0.0,0.0,0.0,0.0,0.0,0.0,0.0,-4.3781,-4.3529,-4.3031,-4.2892,-4.3075,-4.3512,-4.2332,-4.1525,-4.1008,-4.027,-3.9737,-3.9424,-3.9424,0.0,0.0,0.0,0.0,-3.9424,-3.9424,-3.9177,-3.8782,-3.8782,-3.856,-3.8202,-3.8202,-3.781,-3.7092,-3.6056,-3.5264,-3.4538,-3.3398,-3.3081,-3.3081,-3.3081,-3.3081,-3.3081,-3.281,-3.281,-3.25,-3.1376,-3.0768,-3.0236,-2.9217,-2.8742,-2.851,-2.851,-2.851,-2.851,-2.851,-2.851,-2.851,-2.851,-2.851,-2.8259,-2.7603,-2.7348,-2.6588,-2.4999,-2.4659,-2.4155,-2.3222,-2.3135,-2.3135,-2.3135,-2.3135,-2.3144,-2.2882,-2.2618,-2.253,-2.253,-2.2432,-2.2441,-2.2441,-2.2441,-2.2441,-2.2441,-2.2264,-2.2185,-2.2185,-2.2008,-2.1998,-4.1821,-4.199,-4.2198,-4.2198,-4.2032,-4.1821,-4.1561,0.0,0.0,0.0,0.0,-4.0888,-4.0888,-4.0888,-4.0888,-4.0888,-4.0888,0.0,0.0,0.0,0.0,0.0,0.0,0.0,0.0,0.0,0.0,0.0,0.0,0.0,0.0,-4.3196,-4.2892,-4.252,-4.2078,-4.2078,-4.252,-4.1494,-4.0789,-4.0409,-3.9809,-3.9481,-3.9424,-3.9424,-3.9424,0.0,0.0,0.0,-3.9265,-3.9265,-3.9031,-3.8649,-3.8649,-3.8501,-3.8127,-3.772,-3.7323,-3.6702,-3.5507,-3.4551,-3.3738,-3.324,-3.3081,-3.3081,-3.3081,-3.2982,-3.2896,-3.2723,-3.2711,-3.2426,-3.1259,-3.0675,-3.0189,-2.9294,-2.8759,-2.851,-2.851,-2.851,-2.851,-2.851,-2.851,-2.851,-2.851,-2.8179,-2.7765,-2.7267,-2.6505,-2.5589,-2.4669,-2.4155,-2.3647,-2.3135,-2.3135,-2.3047,-2.2969,-2.2794,-2.2715,-2.2794,-2.253,-2.2353,-2.2264,-2.2176,-2.2087,-2.2087,-2.2087,-2.2087,-2.2087,-2.2008,-2.1919,-2.1919,-2.1741,-2.1741,-4.1401,-4.1692,-4.199,-4.199,-4.1692,-4.1401,-4.1401,0.0,0.0,0.0,0.0,0.0,0.0,-4.0888,0.0,0.0,0.0,0.0,0.0,0.0,0.0,0.0,0.0,0.0,0.0,0.0,0.0,0.0,0.0,0.0,0.0,-4.2707,-4.2332,-4.2205,-4.1459,-4.1075,-4.1075,-4.0706,-4.0255,-3.9681,-3.9481,-3.9424,-3.9424,-3.9424,-3.9424,0.0,0.0,0.0,-3.9104,-3.9104,-3.8885,-3.8516,-3.8516,-3.8277,-3.7886,-3.7169,-3.678,-3.6294,-3.4703,-3.3738,-3.3056,-3.2968,-3.2943,-3.293,-3.2855,-3.2646,-3.2462,-3.2389,-3.2438,-3.2265,-3.1199,-3.0531,-3.0058,-2.9386,-2.8835,-2.851,-2.851,-2.851,-2.851,-2.851,-2.851,-2.8431,-2.8339,-2.7684,-2.7103,-2.6846,-2.5505,-2.4413,-2.4327,-2.356,-2.3057,-2.3057,-2.3047,-2.2969,-2.2803,-2.253,-2.2441,-2.2715,-2.2441,-2.2176,-2.2008,-2.183,-2.1741,-2.1741,-2.1741,-2.1741,-2.1741,-2.1741,-2.1741,-2.1741,-2.1741,-2.1741,-4.1088,-4.1041,-4.1088,-4.1088,-4.1059,-4.1012,-4.1012,0.0,0.0,0.0,0.0,0.0,0.0,0.0,0.0,0.0,0.0,0.0,0.0,0.0,0.0,0.0,0.0,0.0,0.0,0.0,0.0,0.0,0.0,0.0,0.0,-4.2013,-4.1393,-4.0836,-4.0385,-4.0191,-4.0191,-3.9965,-3.9809,-3.9681,-3.9481,-3.9424,-3.9424,-3.9424,-3.9424,0.0,0.0,-3.9265,-3.9104,-3.9104,-3.8885,-3.8516,-3.8516,-3.7962,-3.7092,-3.6936,-3.5976,-3.4634,-3.3654,-3.324,-3.3006,-3.2503,-3.234,-3.2252,-3.1788,-3.1497,-3.1344,-3.1107,-3.1246,-3.1174,-2.9951,-2.9555,-2.9374,-2.8763,-2.857,-2.851,-2.851,-2.851,-2.851,-2.851,-2.851,-2.8259,-2.751,-2.7267,-2.6682,-2.5168,-2.4659,-2.4241,-2.3396,-2.3222,-2.3047,-2.2882,-2.2891,-2.2706,-2.2441,-2.2441,-2.2353,-2.2185,-2.2008,-2.182,-2.1741,-2.1741,-2.1741,-2.1741,-2.1741,-2.1741,-2.1741,-2.1741,-2.1741,-2.1741,-2.1741,-2.1741,-4.0918,-4.0888,-4.0888,-4.0888,-4.0888,-4.0888,-4.0888,0.0,0.0,0.0,0.0,0.0,0.0,0.0,0.0,0.0,0.0,0.0,0.0,0.0,0.0,0.0,0.0,0.0,0.0,0.0,0.0,0.0,0.0,0.0,0.0,0.0,-4.0836,-4.0524,-4.0207,-4.0011,-4.0011,-3.9335,-3.9178,-3.9553,-3.9409,-3.923,-3.8856,-3.8856,-3.8676,-3.8332,0.0,-3.8065,-3.7923,-3.7765,-3.7549,-3.7332,-3.7332,-3.679,-3.5863,-3.4991,-3.382,-3.272,-3.2331,-3.2164,-3.2127,-3.1851,-3.1763,-3.1725,-3.131,-3.1083,-3.0787,-3.0315,-3.0443,-3.0579,-2.9579,-2.9304,-2.916,-2.8643,-2.851,-2.851,-2.851,-2.851,-2.851,-2.851,-2.851,-2.8259,-2.7348,-2.6753,-2.5997,-2.4669,-2.3993,-2.3396,-2.2969,-2.2794,-2.2706,-2.2618,-2.2618,-2.253,-2.2274,-2.2274,-2.2185,-2.2097,-2.183,-2.1741,-2.1741,-2.1741,-2.1741,-2.1741,-2.1741,-2.1741,-2.1741,-2.1741,-2.1741,-2.1741,-2.1741,-2.1741,-4.0888,-4.0888,-4.0888,-4.0888,0.0,-4.0888,-4.0888,0.0,0.0,0.0,0.0,0.0,0.0,0.0,0.0,0.0,0.0,0.0,0.0,0.0,0.0,0.0,0.0,0.0,0.0,0.0,0.0,0.0,0.0,0.0,0.0,0.0,-3.9994,-3.9994,-3.9664,-3.954,-3.9455,-3.8562,-3.8497,-3.917,-3.902,-3.8676,-3.8167,-3.8167,-3.7883,-3.7404,-3.7297,-3.7104,-3.691,-3.6684,-3.6458,-3.6301,-3.6086,-3.5478,-3.441,-3.2948,-3.1941,-3.1386,-3.1386,-3.1386,-3.1373,-3.1248,-3.121,-3.1104,-3.0817,-3.0535,-3.0217,-2.9614,-2.9703,-2.9852,-2.9301,-2.9112,-2.9015,-2.8607,-2.851,-2.851,-2.851,-2.851,-2.851,-2.851,-2.8339,-2.7926,-2.701,-2.608,-2.5158,-2.4241,-2.3396,-2.2803,-2.2706,-2.253,-2.2353,-2.2353,-2.2353,-2.2264,-2.2008,-2.2008,-2.2008,-2.2008,-2.183,-2.1741,-2.1741,-2.1741,-2.1741,-2.1741,-2.1741,-2.1741,-2.1741,-2.1741,-2.1741,-2.1741,-2.1741,-2.1741,-4.0888,-4.0888,-4.0888,-4.0888,-4.0888,0.0,-4.0888,-4.0888,0.0,-4.0888,0.0,0.0,0.0,0.0,0.0,0.0,0.0,0.0,0.0,0.0,0.0,0.0,0.0,0.0,0.0,0.0,0.0,0.0,0.0,0.0,0.0,0.0,0.0,-3.8478,-3.8211,-3.8076,-3.7858,-3.7578,-3.7808,-3.8452,-3.7838,-3.7524,-3.7479,-3.7479,-3.7464,-3.7404,-3.7297,-3.7104,-3.691,-3.6684,-3.6458,-3.6229,-3.5551,-3.4334,-3.2791,-3.186,-3.1468,-3.1386,-3.1386,-3.1386,-3.1311,-3.0834,-3.0498,-3.0226,-2.9704,-2.9229,-2.8901,-2.8864,-2.873,-2.8607,-2.857,-2.857,-2.8558,-2.8522,-2.851,-2.851,-2.851,-2.851,-2.851,-2.851,-2.7846,-2.701,-2.608,-2.5158,-2.4241,-2.3057,-2.2891,-2.2706,-2.2441,-2.2432,-2.2353,-2.2185,-2.2097,-2.2008,-2.1731,-2.1741,-2.1741,-2.1741,-2.1731,-2.1741,-2.1741,-2.1741,-2.1741,-2.1741,-2.1741,-2.1741,-2.1741,-2.1741,-2.1741,-2.1741,-2.1741,-2.1741,-4.0888,-4.0888,-4.0888,-4.0888,-4.0888,0.0,0.0,-4.0888,-4.0888,0.0,0.0,0.0,0.0,0.0,0.0,0.0,0.0,0.0,0.0,0.0,0.0,0.0,0.0,0.0,0.0,0.0,0.0,0.0,0.0,0.0,0.0,0.0,0.0,-3.8274,-3.7992,-3.779,-3.7707,-3.7113,-3.6956,-3.721,-3.7345,-3.721,-3.6836,-3.6836,-3.6529,-3.6008,-3.5874,-3.5686,-3.5497,-3.5277,-3.4889,-3.4229,-3.3033,-3.2142,-3.1485,-3.0684,-3.0394,-3.0394,-3.0394,-3.0394,-3.0357,-2.9974,-2.982,-2.9626,-2.9167,-2.8949,-2.8803,-2.8657,-2.8578,-2.851,-2.851,-2.851,-2.851,-2.851,-2.851,-2.851,-2.851,-2.851,-2.8339,-2.7765,-2.7429,-2.6764,-2.5242,-2.4744,-2.4069,-2.2969,-2.2618,-2.2441,-2.2274,-2.2087,-2.1909,-2.183,-2.183,-2.183,-2.1741,-2.1741,-2.1741,-2.1741,-2.1741,-2.1741,-2.1741,-2.1741,-2.1741,-2.1741,-2.1741,-2.1741,-2.1741,-2.1741,-2.1741,-2.1741,-2.1741,-2.1741,-4.0888,-4.0888,-4.0888,-4.0888,0.0,0.0,-4.0888,0.0,0.0,0.0,0.0,0.0,0.0,0.0,0.0,0.0,0.0,0.0,0.0,0.0,0.0,0.0,0.0,0.0,0.0,0.0,0.0,0.0,0.0,0.0,0.0,0.0,0.0,0.0,-3.7207,-3.7074,-3.7037,-3.6454,-3.6178,-3.6178,-3.6611,-3.6582,-3.6178,-3.6096,-3.5776,-3.5213,-3.4949,-3.475,-3.4698,-3.4481,-3.3825,-3.272,-3.1402,-3.0758,-3.0482,-3.0011,-2.9792,-2.9792,-2.9792,-2.9792,-2.9792,-2.9509,-2.9341,-2.9275,-2.887,-2.8724,-2.8645,-2.851,-2.851,-2.851,-2.851,-2.851,-2.851,-2.851,-2.851,-2.851,-2.851,-2.8259,-2.7926,-2.7348,-2.6764,-2.5924,-2.4744,-2.4241,-2.3724,-2.2794,-2.253,-2.2264,-2.2008,-2.183,-2.1741,-2.1741,-2.1741,-2.1741,-2.1741,-2.1741,-2.1741,-2.1741,-2.1741,-2.1741,-2.1741,-2.1741,-2.1741,-2.1741,-2.1741,-2.1741,-2.1741,-2.1741,-2.1741,-2.1741,-2.1741,-2.1741,-4.0888,-4.0888,-4.0888,0.0,0.0,0.0,0.0,0.0,0.0,0.0,0.0,0.0,0.0,0.0,0.0,0.0,0.0,0.0,0.0,0.0,0.0,0.0,0.0,0.0,0.0,0.0,0.0,0.0,0.0,0.0,0.0,0.0,0.0,0.0,-3.5688,-3.5638,-3.5504,-3.5504,-3.5504,-3.5504,-3.5504,-3.5504,-3.5504,-3.5294,-3.5213,-3.5162,-3.4831,-3.4698,-3.4698,-3.4481,-3.3465,-3.2001,-3.118,-3.0406,-2.9792,-2.9792,-2.9792,-2.9792,-2.9792,-2.9792,-2.9779,-2.9509,-2.9275,-2.9052,-2.8882,-2.8657,-2.851,-2.851,-2.851,-2.851,-2.851,-2.851,-2.851,-2.851,-2.851,-2.851,-2.851,-2.7846,-2.7174,-2.7185,-2.5757,-2.4498,-2.4498,-2.3734,-2.296,-2.2441,-2.2441,-2.2264,-2.1741,-2.1741,-2.1741,-2.1741,-2.1741,-2.1741,-2.1741,-2.1741,-2.1741,-2.1741,-2.1741,-2.1741,-2.1741,-2.1741,-2.1741,-2.1741,-2.1741,-2.1741,-2.1741,-2.1741,-2.1741,-2.1741,-2.1741,-2.1741,-4.0888,-4.0888,0.0,-4.0385,0.0,0.0,0.0,0.0,0.0,0.0,0.0,0.0,0.0,0.0,0.0,0.0,0.0,0.0,0.0,0.0,0.0,0.0,0.0,0.0,0.0,0.0,0.0,0.0,0.0,0.0,0.0,0.0,0.0,0.0,-3.5589,-3.5554,-3.5504,-3.5504,-3.5504,-3.5504,-3.5359,-3.5359,-3.5504,-3.5294,-3.5148,-3.5001,-3.4765,-3.4631,-3.4414,-3.3241,-3.2146,-3.1193,-3.0419,-2.9998,-2.9792,-2.9792,-2.9792,-2.9792,-2.9792,-2.9702,-2.9509,-2.9275,-2.904,-2.8882,-2.8657,-2.859,-2.851,-2.851,-2.851,-2.851,-2.851,-2.851,-2.851,-2.851,-2.851,-2.8351,-2.7684,-2.7348,-2.6846,-2.5589,-2.484,-2.4327,-2.3647,-2.3135,-2.2794,-2.2441,-2.2264,-2.2087,-2.1741,-2.1741,-2.1741,-2.1741,-2.1741,-2.1741,-2.1741,-2.1741,-2.1741,-2.1741,-2.1741,-2.1741,-2.1741,-2.1741,-2.1741,-2.1741,-2.1741,-2.1741,-2.1741,-2.1741,-2.1741,-2.1741,-2.1741,-2.1365,-4.0549,-4.0402,0.0,-4.0053,-3.9851,-3.961,0.0,0.0,0.0,0.0,0.0,0.0,0.0,0.0,0.0,0.0,0.0,0.0,0.0,0.0,0.0,0.0,0.0,0.0,0.0,0.0,0.0,0.0,0.0,0.0,0.0,0.0,0.0,0.0,-3.5554,-3.5504,-3.5504,-3.5504,-3.5504,-3.5504,-3.5359,-3.5359,-3.5359,-3.5096,-3.4949,-3.4817,-3.4616,-3.4332,-3.3825,-3.2577,-3.1636,-3.082,-3.0075,-2.9792,-2.9792,-2.9792,-2.9702,-2.9611,-2.9611,-2.9521,-2.9275,-2.904,-2.8882,-2.8724,-2.8578,-2.851,-2.851,-2.851,-2.851,-2.851,-2.851,-2.8259,-2.8099,-2.8431,-2.8259,-2.7846,-2.7348,-2.6682,-2.5841,-2.4744,-2.4155,-2.3647,-2.3057,-2.2794,-2.253,-2.2353,-2.2097,-2.1919,-2.1741,-2.1741,-2.1741,-2.1741,-2.1741,-2.1741,-2.1741,-2.1741,-2.1741,-2.1741,-2.1741,-2.1741,-2.1741,-2.1741,-2.1741,-2.1741,-2.1741,-2.1741,-2.1741,-2.1741,-2.1741,-2.1731,-2.1365,-2.0808,-3.9902,0.0,0.0,-3.9749,-3.9437,0.0,0.0,0.0,0.0,0.0,0.0,0.0,0.0,0.0,0.0,0.0,0.0,0.0,0.0,0.0,0.0,0.0,0.0,0.0,0.0,0.0,0.0,0.0,0.0,0.0,0.0,0.0,0.0,-3.5504,-3.5504,-3.5504,-3.5504,-3.5504,-3.5504,0.0,-3.5439,-3.5359,-3.5148,-3.4817,-3.4698,-3.4549,-3.4332,-3.3825,-3.2932,-3.229,-3.1489,-3.0758,-3.0062,-2.9792,-2.9792,-2.9792,-2.9611,-2.9341,-2.9341,-2.9275,-2.9052,-2.8882,-2.8803,-2.8724,-2.8578,-2.851,-2.851,-2.851,-2.851,-2.851,-2.851,-2.7846,-2.7429,-2.8179,-2.7672,-2.701,-2.6928,-2.5673,-2.4498,-2.4413,-2.3474,-2.2803,-2.2803,-2.253,-2.2264,-2.2097,-2.183,-2.1741,-2.1741,-2.1741,-2.1741,-2.1741,-2.1741,-2.1741,-2.1741,-2.1741,-2.1741,-2.1741,-2.1741,-2.1741,-2.1741,-2.1741,-2.1741,-2.1741,-2.1741,-2.1741,-2.1741,-2.1741,-2.1651,-2.1553,-2.0718,-2.0158,-3.9348,-3.9312,0.0,0.0,-3.8254,0.0,0.0,0.0,0.0,0.0,0.0,0.0,0.0,0.0,0.0,0.0,0.0,0.0,0.0,0.0,0.0,0.0,0.0,0.0,0.0,0.0,0.0,0.0,0.0,0.0,0.0,0.0,0.0,-3.5504,-3.5504,-3.5504,-3.5504,-3.5504,-3.5439,0.0,-3.5082,-3.4949,-3.4831,-3.4817,-3.437,-3.352,-3.352,-3.2635,-3.1402,-3.118,-3.0696,-2.9998,-2.9856,-2.9689,-2.9509,-2.9509,-2.9353,-2.9131,-2.9131,-2.904,-2.8882,-2.8791,-2.8724,-2.8578,-2.851,-2.851,-2.851,-2.851,-2.851,-2.851,-2.851,-2.7846,-2.7267,-2.7429,-2.6753,-2.5913,-2.5253,-2.4744,-2.4241,-2.356,-2.3057,-2.2803,-2.2803,-2.2451,-2.2097,-2.183,-2.1741,-2.1741,-2.1741,-2.1741,-2.1741,-2.1741,-2.1741,-2.1741,-2.1741,-2.1741,-2.1741,-2.1741,-2.1741,-2.1741,-2.1741,-2.1741,-2.1741,-2.1741,-2.1741,-2.1741,-2.1741,-2.1741,-2.1365,-2.0619,-2.0439,-1.943,0.0,0.0,0.0,-3.8001,0.0,0.0,0.0,0.0,0.0,0.0,0.0,0.0,0.0,0.0,0.0,0.0,0.0,0.0,0.0,0.0,0.0,0.0,0.0,0.0,0.0,0.0,0.0,0.0,0.0,-3.5894,0.0,-3.5539,-3.5504,-3.5504,-3.5504,-3.5504,-3.5504,-3.5504,-3.5424,-3.5213,-3.5082,-3.4949,-3.4698,-3.4303,-3.3782,-3.3143,-3.2861,-3.1988,-3.0895,-3.0895,-3.0482,-2.9792,-2.9792,-2.9611,-2.9419,-2.9419,-2.9184,-2.8973,-2.8973,-2.8803,-2.8657,-2.8657,-2.8578,-2.851,-2.851,-2.851,-2.851,-2.851,-2.851,-2.851,-2.851,-2.751,-2.6505,-2.6505,-2.583,-2.4988,-2.4392,-2.3983,-2.3474,-2.2872,-2.2618,-2.2451,-2.2451,-2.2185,-2.183,-2.1741,-2.1741,-2.1741,-2.1741,-2.1741,-2.1741,-2.1741,-2.1741,-2.1741,-2.1741,-2.1741,-2.1741,-2.1741,-2.1741,-2.1741,-2.1741,-2.1741,-2.1741,-2.1741,-2.1741,-2.1741,-2.1741,-2.1266,-2.0808,-2.0249,-1.9338,-1.8334,0.0,0.0,-3.7421,0.0,0.0,0.0,0.0,0.0,0.0,0.0,0.0,0.0,0.0,0.0,0.0,0.0,0.0,0.0,0.0,0.0,0.0,0.0,0.0,0.0,0.0,0.0,0.0,0.0,0.0,-3.5894,-3.5703,-3.5554,-3.5504,-3.5504,-3.5504,-3.5504,-3.5504,-3.5504,-3.5359,-3.5148,-3.5082,-3.4817,-3.4399,-3.3451,-3.3003,-3.2932,-3.2218,-3.1415,-3.0683,-3.0683,-3.033,-2.9702,-2.9702,-2.9521,-2.9263,-2.9263,-2.9028,-2.8724,-2.8724,-2.8657,-2.851,-2.851,-2.851,-2.851,-2.851,-2.851,-2.851,-2.851,-2.851,-2.851,-2.8339,-2.708,-2.5735,-2.5568,-2.4819,-2.4155,-2.3887,-2.3299,-2.2715,-2.2441,-2.2274,-2.2097,-2.2008,-2.183,-2.1741,-2.1741,-2.1741,-2.1741,-2.1741,-2.1741,-2.1741,-2.1741,-2.1741,-2.1741,-2.1741,-2.1741,-2.1741,-2.1741,-2.1741,-2.1741,-2.1741,-2.1741,-2.1741,-2.1741,-2.1741,-2.1741,-2.1741,-2.0718,-2.0249,-1.9977,-1.8149,-1.7239,0.0,0.0,0.0,0.0,0.0,0.0,0.0,0.0,0.0,0.0,0.0,0.0,0.0,0.0,0.0,0.0,0.0,0.0,0.0,0.0,0.0,0.0,0.0,0.0,0.0,0.0,0.0,0.0,-3.5752,-3.5703,-3.5554,-3.5504,-3.5504,-3.5504,-3.5504,-3.5504,-3.5504,-3.5504,-3.5294,-3.4935,-3.4683,-3.4113,-3.3367,-3.2577,-3.2218,-3.2218,-3.1415,-3.062,-2.9934,-2.9934,-2.9754,-2.9419,-2.9419,-2.9184,-2.887,-2.887,-2.8724,-2.851,-2.851,-2.851,-2.851,-2.851,-2.851,-2.851,-2.851,-2.851,-2.851,-2.851,-2.851,-2.8351,-2.7592,-2.6588,-2.5568,-2.4553,-2.3637,-2.3057,-2.2969,-2.2706,-2.2441,-2.2441,-2.2274,-2.2008,-2.182,-2.1741,-2.1741,-2.1741,-2.1741,-2.1741,-2.1741,-2.1741,-2.1741,-2.1741,-2.1741,-2.1741,-2.1741,-2.1741,-2.1741,-2.1741,-2.1741,-2.1741,-2.1741,-2.1741,-2.1741,-2.1741,-2.1741,-2.1741,-2.1741,-2.0718,-1.9886,-1.8972,-1.7878,-1.6864,-3.7015,0.0,0.0,0.0,0.0,0.0,0.0,0.0,0.0,0.0,0.0,0.0,0.0,0.0,0.0,0.0,0.0,0.0,0.0,0.0,0.0,0.0,0.0,0.0,0.0,0.0,0.0,0.0,-3.5688,-3.5638,-3.5504,-3.5504,-3.5504,-3.5504,-3.5504,-3.5439,-3.5359,-3.5359,-3.4935,-3.407,-3.3879,-3.3311,-3.2577,-3.1769,-3.1415,-3.1415,-3.0633,-3.0062,-2.9792,-2.9792,-2.9611,-2.9419,-2.9419,-2.9184,-2.8791,-2.8791,-2.8657,-2.851,-2.851,-2.851,-2.851,-2.851,-2.851,-2.851,-2.851,-2.851,-2.851,-2.851,-2.8179,-2.7684,-2.7267,-2.6174,-2.4904,-2.4221,-2.329,-2.253,-2.2451,-2.2362,-2.2176,-2.1998,-2.1909,-2.183,-2.1741,-2.1741,-2.1741,-2.1741,-2.1741,-2.1741,-2.1741,-2.1741,-2.1741,-2.1741,-2.1741,-2.1741,-2.1741,-2.1741,-2.1741,-2.1741,-2.1741,-2.1741,-2.1741,-2.1741,-2.1741,-2.1741,-2.1741,-2.1454,-2.0898,-1.9985,-1.8972,-1.7971,-1.6951,-1.6204,0.0,0.0,0.0,0.0,0.0,0.0,0.0,0.0,0.0,0.0,0.0,0.0,0.0,0.0,0.0,0.0,0.0,0.0,0.0,0.0,0.0,0.0,0.0,0.0,0.0,0.0,0.0,0.0,-3.5638,-3.5604,-3.5504,-3.5504,-3.5504,-3.5504,-3.5504,-3.5424,-3.5213,-3.4935,-3.4221,-3.3199,-3.3003,-3.2506,-3.1783,-3.1193,-3.082,-3.062,-3.0075,-2.9792,-2.9792,-2.9702,-2.9521,-2.9341,-2.9263,-2.9028,-2.8724,-2.8724,-2.8657,-2.851,-2.851,-2.851,-2.851,-2.851,-2.851,-2.851,-2.851,-2.8351,-2.8179,-2.8179,-2.751,-2.6753,-2.6588,-2.5505,-2.4317,-2.38,-2.3028,-2.2353,-2.2097,-2.2008,-2.1919,-2.1741,-2.1741,-2.1741,-2.1741,-2.1741,-2.1741,-2.1741,-2.1741,-2.1741,-2.1741,-2.1741,-2.1741,-2.1741,-2.1741,-2.1741,-2.1741,-2.1741,-2.1741,-2.1741,-2.1741,-2.1741,-2.1741,-2.1741,-2.1553,-2.1365,-2.1365,-2.0997,-2.0339,-1.9063,-1.8064,-1.7232,-1.6298,-1.5832,0.0,0.0,0.0,0.0,0.0,0.0,0.0,0.0,0.0,0.0,0.0,0.0,0.0,0.0,0.0,0.0,0.0,0.0,0.0,0.0,0.0,0.0,0.0,0.0,0.0,0.0,0.0,0.0,-3.5504,-3.5504,-3.5504,-3.5504,-3.5504,-3.5504,-3.5504,-3.5424,-3.5213,-3.4153,-3.3199,-3.2393,-3.2205,-3.1709,-3.0957,-3.0895,-3.0558,-2.9869,-2.9792,-2.9792,-2.9792,-2.9521,-2.9275,-2.9131,-2.8882,-2.8724,-2.851,-2.851,-2.851,-2.851,-2.851,-2.851,-2.851,-2.851,-2.851,-2.851,-2.851,-2.7926,-2.7267,-2.7267,-2.6588,-2.5652,-2.4829,-2.4584,-2.4155,-2.2775,-2.2432,-2.2264,-2.182,-2.1741,-2.1741,-2.1741,-2.1741,-2.1741,-2.1741,-2.1741,-2.1741,-2.1741,-2.1741,-2.1741,-2.1741,-2.1741,-2.1741,-2.1741,-2.1741,-2.1741,-2.1741,-2.1741,-2.1741,-2.1741,-2.1741,-2.1741,-2.1741,-2.1741,-2.1275,-2.0439,-2.0348,-2.0348,-2.0339,-1.8334,-1.7326,-1.7232,-1.6298,-1.5832,0.0,0.0,0.0,0.0,0.0,0.0,0.0,0.0,0.0,0.0,0.0,0.0,0.0,0.0,0.0,0.0,0.0,0.0,0.0,0.0,0.0,0.0,0.0,0.0,0.0,0.0,0.0,0.0,0.0,-3.5504,-3.5504,-3.5504,-3.5439,-3.5294,-3.5294,-3.4935,-3.4153,-3.3575,-3.2635,-3.1389,-3.1328,-3.0908,-3.0203,-3.0203,-3.0075,-2.9792,-2.9611,-2.9521,-2.9521,-2.9275,-2.9118,-2.8882,-2.8803,-2.8645,-2.851,-2.851,-2.851,-2.851,-2.851,-2.851,-2.851,-2.851,-2.851,-2.8431,-2.7846,-2.7429,-2.7092,-2.6505,-2.5663,-2.4829,-2.4392,-2.381,-2.3222,-2.2441,-2.2087,-2.1909,-2.1741,-2.1741,-2.1741,-2.1741,-2.1741,-2.1741,-2.1741,-2.1741,-2.1741,-2.1741,-2.1741,-2.1741,-2.1741,-2.1741,-2.1741,-2.1741,-2.1741,-2.1741,-2.1741,-2.1741,-2.1741,-2.1741,-2.1741,-2.1741,-2.1741,-2.1087,-2.0619,-2.0348,-1.9063,-1.8334,-1.8334,-1.7699,-1.6951,-1.6298,-1.6015,-1.5832,0.0,0.0,0.0,0.0,0.0,0.0,0.0,0.0,0.0,0.0,0.0,0.0,0.0,0.0,0.0,0.0,0.0,0.0,0.0,0.0,0.0,0.0,0.0,0.0,0.0,0.0,0.0,0.0,0.0,0.0,-3.4721,-3.4986,-3.5133,-3.5213,-3.4854,-3.4138,-3.3129,-3.2635,-3.1769,-3.0545,-3.0545,-3.0266,-2.9792,-2.9792,-2.9779,-2.9611,-2.9431,-2.9341,-2.9419,-2.9118,-2.8882,-2.8803,-2.8724,-2.8657,-2.851,-2.851,-2.851,-2.851,-2.851,-2.851,-2.851,-2.851,-2.851,-2.8339,-2.7429,-2.6928,-2.6423,-2.5484,-2.4563,-2.3724,-2.3541,-2.3038,-2.2451,-2.2185,-2.1919,-2.1741,-2.1741,-2.1741,-2.1741,-2.1741,-2.1741,-2.1741,-2.1741,-2.1741,-2.1741,-2.1741,-2.1741,-2.1741,-2.1741,-2.1741,-2.1741,-2.1741,-2.1741,-2.1741,-2.1741,-2.1741,-2.1741,-2.1741,-2.1741,-2.1553,-2.1275,-2.0619,-1.9977,-1.9338,-1.7963,-1.7138,-1.6763,-1.6763,-1.6487,-1.5832,-1.5832,-1.5832,0.0,0.0,0.0,0.0,0.0,0.0,0.0,0.0,0.0,0.0,0.0,0.0,0.0,0.0,0.0,0.0,0.0,0.0,0.0,0.0,0.0,0.0,0.0,0.0,0.0,0.0,0.0,0.0,-3.3837,-3.3973,-3.3213,-3.3837,-3.4543,-3.5082,-3.407,-3.3059,-3.2249,-3.1389,-3.0545,-2.9792,-2.9792,-2.9792,-2.9792,-2.9792,-2.9611,-2.9419,-2.9197,-2.9197,-2.9341,-2.8949,-2.8803,-2.8803,-2.8578,-2.851,-2.851,-2.851,-2.851,-2.851,-2.851,-2.851,-2.851,-2.851,-2.8431,-2.8259,-2.7348,-2.6329,-2.5231,-2.4296,-2.329,-2.2441,-2.2344,-2.2274,-2.2097,-2.2097,-2.1919,-2.1741,-2.1741,-2.1741,-2.1741,-2.1741,-2.1741,-2.1741,-2.1741,-2.1741,-2.1741,-2.1741,-2.1741,-2.1741,-2.1741,-2.1741,-2.1741,-2.1741,-2.1741,-2.1741,-2.1741,-2.1741,-2.1741,-2.1741,-2.1642,-2.1266,-2.0339,-2.0249,-1.9247,-1.7326,-1.7232,-1.677,-1.5832,-1.5832,-1.5832,-1.5832,-1.5832,-1.5832,-3.5973,0.0,0.0,0.0,0.0,0.0,0.0,0.0,0.0,0.0,0.0,0.0,0.0,0.0,0.0,0.0,0.0,0.0,0.0,0.0,0.0,0.0,0.0,0.0,0.0,0.0,0.0,0.0,-3.3422,-3.3339,-3.2975,-3.289,-3.2961,-3.3115,-3.2706,-3.206,-3.1328,-3.1031,-3.0545,-2.9792,-2.9792,-2.9792,-2.9792,-2.9599,-2.9509,-2.9419,-2.904,-2.887,-2.8949,-2.8657,-2.8578,-2.8578,-2.851,-2.851,-2.851,-2.851,-2.851,-2.851,-2.851,-2.851,-2.8431,-2.7765,-2.7418,-2.6987,-2.54,-2.4648,-2.4049,-2.3115,-2.2599,-2.2353,-2.2185,-2.2008,-2.183,-2.183,-2.1731,-2.1741,-2.1741,-2.1741,-2.1741,-2.1741,-2.1741,-2.1741,-2.1741,-2.1741,-2.1741,-2.1741,-2.1741,-2.1741,-2.1741,-2.1741,-2.1741,-2.1741,-2.1741,-2.1741,-2.1741,-2.1741,-2.1741,-2.1741,-2.1087,-2.0529,-2.0348,-1.888,-1.7878,-1.7326,-1.6581,-1.6109,-1.5832,-1.5832,-1.5832,-1.5832,-1.5832,-1.5832,0.0,0.0,0.0,0.0,0.0,0.0,-3.3115,-3.3045,-3.3045,0.0,0.0,0.0,0.0,0.0,0.0,0.0,0.0,0.0,0.0,0.0,0.0,0.0,0.0,0.0,0.0,-3.2918,-3.2777,-3.2074,-3.229,-3.242,-3.2335,-3.1974,-3.1974,-3.2321,-3.1829,-3.1341,-3.0895,-3.062,-3.0203,-2.9792,-2.9792,-2.9792,-2.9792,-2.9509,-2.9341,-2.9275,-2.8961,-2.8724,-2.8657,-2.859,-2.851,-2.851,-2.851,-2.851,-2.851,-2.851,-2.851,-2.851,-2.851,-2.8351,-2.8111,-2.7336,-2.6835,-2.6246,-2.4467,-2.379,-2.3444,-2.252,-2.2176,-2.2087,-2.2008,-2.183,-2.1741,-2.1741,-2.1741,-2.1741,-2.1741,-2.1741,-2.1741,-2.1741,-2.1741,-2.1741,-2.1741,-2.1741,-2.1741,-2.1741,-2.1741,-2.1741,-2.1741,-2.1741,-2.1741,-2.1741,-2.1741,-2.1741,-2.1741,-2.1741,-2.1553,-2.1177,-2.0619,-1.9886,-1.9063,-1.7878,-1.7138,-1.6676,-1.6109,-1.5832,-1.5832,-1.5832,-1.5832,-1.5832,-1.5832,-1.5832,0.0,0.0,0.0,0.0,0.0,0.0,-3.1942,-3.1942,-3.1942,0.0,0.0,0.0,0.0,0.0,0.0,0.0,0.0,0.0,0.0,0.0,0.0,0.0,0.0,0.0,-3.1723,-3.2277,-3.206,-3.0508,-3.1009,-3.1368,-3.1368,-3.1158,-3.1355,-3.196,-3.118,-3.0758,-3.0758,-3.0139,-2.9792,-2.9792,-2.9792,-2.9792,-2.9792,-2.9521,-2.9275,-2.9052,-2.8882,-2.8657,-2.851,-2.851,-2.851,-2.851,-2.851,-2.851,-2.851,-2.851,-2.851,-2.851,-2.851,-2.8283,-2.78,-2.6917,-2.6329,-2.5673,-2.4145,-2.3444,-2.3008,-2.2264,-2.1919,-2.1741,-2.1741,-2.1741,-2.1741,-2.1741,-2.1741,-2.1741,-2.1741,-2.1741,-2.1741,-2.1741,-2.1741,-2.1741,-2.1741,-2.1741,-2.1741,-2.1741,-2.1741,-2.1741,-2.1741,-2.1741,-2.1741,-2.1741,-2.1741,-2.1741,-2.1741,-2.1642,-2.1177,-2.0348,-2.0068,-1.9155,-1.7326,-1.7232,-1.6669,-1.5825,-1.5832,-1.5832,-1.5832,-1.5832,-1.5832,-1.5832,-1.5832,-1.5832,0.0,0.0,0.0,0.0,0.0,0.0,-3.111,-3.1123,-3.111,0.0,0.0,0.0,0.0,0.0,0.0,0.0,0.0,0.0,0.0,0.0,0.0,0.0,0.0,0.0,-3.0898,-3.1035,-3.096,-3.0444,-3.0368,-3.0368,-3.0368,-3.0152,-3.0152,-3.0292,-3.0139,-2.9998,-2.9998,-2.9856,-2.9792,-2.9792,-2.9792,-2.9792,-2.9792,-2.9378,-2.9131,-2.9052,-2.8736,-2.851,-2.851,-2.851,-2.851,-2.851,-2.851,-2.851,-2.851,-2.851,-2.851,-2.851,-2.851,-2.8283,-2.7626,-2.6246,-2.5326,-2.4488,-2.295,-2.2255,-2.1989,-2.183,-2.1741,-2.1741,-2.1741,-2.1741,-2.1741,-2.1741,-2.1741,-2.1741,-2.1741,-2.1741,-2.1741,-2.1741,-2.1741,-2.1741,-2.1741,-2.1741,-2.1741,-2.1741,-2.1741,-2.1741,-2.1741,-2.1741,-2.1741,-2.1741,-2.1741,-2.1741,-2.1741,-2.0997,-2.0529,-2.0348,-1.8788,-1.7692,-1.7326,-1.6487,-1.6015,-1.5832,-1.5832,-1.5832,-1.5832,-1.5832,-1.5832,-1.5832,-1.5832,-1.5832,0.0,0.0,0.0,-3.2074,0.0,0.0,0.0,-3.0609,-3.0672,0.0,0.0,0.0,0.0,0.0,0.0,0.0,0.0,0.0,0.0,0.0,0.0,0.0,0.0,0.0,-3.0394,-3.0394,-3.0318,-3.0088,-3.0011,-2.9934,-2.9934,-2.9869,-2.9792,-2.9792,-2.9792,-2.9792,-2.9792,-2.9792,-2.9792,-2.9792,-2.9792,-2.9702,-2.9611,-2.9287,-2.9052,-2.8961,-2.8657,-2.851,-2.851,-2.851,-2.851,-2.851,-2.851,-2.851,-2.851,-2.851,-2.851,-2.851,-2.8271,-2.7708,-2.6869,-2.5421,-2.4402,-2.3387,-2.2264,-2.183,-2.1741,-2.1741,-2.1741,-2.1741,-2.1741,-2.1741,-2.1741,-2.1741,-2.1741,-2.1741,-2.1741,-2.1741,-2.1741,-2.1741,-2.1741,-2.1741,-2.1741,-2.1741,-2.1741,-2.1741,-2.1741,-2.1741,-2.1741,-2.1741,-2.1741,-2.1741,-2.1741,-2.1553,-2.1087,-2.0529,-1.9886,-1.888,-1.7878,-1.7044,-1.6574,-1.6109,-1.5832,-1.5832,-1.5832,-1.5832,-1.5832,-1.5832,-1.5832,-1.5832,-1.5832,-1.5832,0.0,0.0,0.0,0.0,0.0,-3.0622,0.0,0.0,0.0,0.0,0.0,0.0,0.0,0.0,0.0,0.0,0.0,0.0,0.0,0.0,0.0,0.0,0.0,0.0,0.0,-3.0088,-2.9934,-2.9792,-2.9792,-2.9792,-2.9792,-2.9792,-2.9792,-2.9792,-2.9792,-2.9792,-2.9792,-2.9792,-2.9792,-2.9792,-2.9792,-2.9611,-2.9419,-2.9118,-2.8961,-2.8803,-2.8578,-2.851,-2.851,-2.851,-2.851,-2.851,-2.851,-2.851,-2.851,-2.851,-2.851,-2.8431,-2.7869,-2.7033,-2.6019,-2.4744,-2.3551,-2.2451,-2.1909,-2.1741,-2.1741,-2.1741,-2.1741,-2.1741,-2.1741,-2.1741,-2.1741,-2.1741,-2.1741,-2.1741,-2.1741,-2.1741,-2.1741,-2.1741,-2.1741,-2.1741,-2.1741,-2.1741,-2.1741,-2.1741,-2.1741,-2.1741,-2.1741,-2.1741,-2.1741,-2.1741,-2.1553,-2.1087,-2.0339,-1.9977,-1.9063,-1.7419,-1.7138,-1.6676,-1.5832,-1.5832,-1.5832,-1.5832,-1.5832,-1.5832,-1.5832,-1.5832,-1.5832,-1.5832,-1.5832,-1.5832,0.0,0.0,0.0,0.0,-3.0609,0.0,0.0,0.0,0.0,-2.9934,0.0,0.0,0.0,0.0,0.0,0.0,0.0,0.0,0.0,0.0,0.0,0.0,0.0,0.0,0.0,-2.9934,-2.9792,-2.9792,-2.9792,-2.9792,-2.9792,-2.9792,-2.9792,-2.9792,-2.9792,-2.9792,-2.9792,-2.9792,-2.9792,-2.9792,-2.9599,-2.9419,-2.9419,-2.9028,-2.8803,-2.8803,-2.8578,-2.851,-2.851,-2.851,-2.851,-2.851,-2.851,-2.851,-2.851,-2.851,-2.851,-2.8339,-2.7325,-2.6588,-2.5924,-2.4125,-2.2755,-2.183,-2.1741,-2.1741,-2.1741,-2.1741,-2.1741,-2.1741,-2.1741,-2.1741,-2.1741,-2.1741,-2.1741,-2.1741,-2.1741,-2.1741,-2.1741,-2.1741,-2.1741,-2.1741,-2.1741,-2.1741,-2.1741,-2.1741,-2.1741,-2.1741,-2.1741,-2.1741,-2.1741,-2.1741,-2.0997,-2.0439,-2.0348,-1.8696,-1.7512,-1.7326,-1.648,-1.592,-1.5832,-1.5832,-1.5832,-1.5832,-1.5832,-1.5832,-1.5832,-1.5832,-1.5832,-1.5832,-1.5832,-1.5832,0.0,0.0,0.0,0.0,0.0,0.0,-2.9934,0.0,-3.0011,0.0,0.0,0.0,0.0,0.0,0.0,0.0,-2.9792,0.0,0.0,0.0,0.0,0.0,0.0,0.0,0.0,0.0,0.0,0.0,-2.9792,-2.9792,-2.9792,-2.9792,-2.9792,-2.9792,-2.9792,-2.9792,-2.9792,-2.9792,-2.9702,-2.9599,-2.9419,-2.9263,-2.9028,-2.8882,-2.8724,-2.8657,-2.851,-2.851,-2.851,-2.851,-2.851,-2.8419,-2.7742,-2.7914,-2.8431,-2.7742,-2.7487,-2.7325,-2.5913,-2.5062,-2.4296,-2.2843,-2.2078,-2.1741,-2.1741,-2.1741,-2.1741,-2.1741,-2.1741,-2.1741,-2.1741,-2.1741,-2.1741,-2.1741,-2.1741,-2.1741,-2.1741,-2.1741,-2.1741,-2.1741,-2.1741,-2.1741,-2.1741,-2.1741,-2.1741,-2.1741,-2.1741,-2.1741,-2.1741,-2.1741,-2.1463,-2.0988,-2.0529,-1.9795,-1.8703,-1.7785,-1.7044,-1.6487,-1.6015,-1.5832,-1.5832,-1.5832,-1.5832,-1.5832,-1.5832,-1.5832,-1.5832,-1.5832,-1.5832,-1.5832,-1.5832,-1.5832,-3.0368,0.0,0.0,0.0,0.0,0.0,0.0,0.0,0.0,0.0,0.0,0.0,0.0,0.0,0.0,0.0,0.0,0.0,0.0,0.0,0.0,0.0,0.0,0.0,0.0,0.0,0.0,-2.9792,-2.9792,-2.9792,-2.9792,-2.9792,-2.9792,-2.9792,-2.9792,-2.9792,-2.9792,-2.9792,-2.9702,-2.9419,-2.9341,-2.9118,-2.8791,-2.8724,-2.8657,-2.851,-2.851,-2.851,-2.851,-2.8259,-2.8179,-2.8007,-2.6905,-2.6987,-2.758,-2.6648,-2.6307,-2.6141,-2.4723,-2.3617,-2.2843,-2.1989,-2.1741,-2.1741,-2.1741,-2.1741,-2.1741,-2.1741,-2.1741,-2.1741,-2.1741,-2.1741,-2.1741,-2.1741,-2.1741,-2.1741,-2.1741,-2.1741,-2.1741,-2.1741,-2.1741,-2.1741,-2.1741,-2.1741,-2.1741,-2.1741,-2.1741,-2.1642,-2.1365,-2.1365,-2.0907,-1.9977,-1.9613,-1.888,-1.7419,-1.7044,-1.6581,-1.5825,-1.5832,-1.5832,-1.5832,-1.5832,-1.5832,-1.5832,-1.5832,-1.5832,-1.5832,-1.5832,-1.5832,-1.5832,-1.5832,-1.5832,0.0,0.0,0.0,-3.0075,0.0,0.0,0.0,0.0,-2.9792,0.0,0.0,0.0,0.0,0.0,0.0,0.0,0.0,0.0,0.0,0.0,0.0,0.0,0.0,0.0,0.0,0.0,0.0,-2.9792,-2.9792,-2.9792,-2.9792,-2.9792,-2.9792,-2.9792,-2.9792,-2.9792,-2.9792,-2.9792,-2.9702,-2.9419,-2.9197,-2.8961,-2.8803,-2.8578,-2.851,-2.851,-2.851,-2.851,-2.8431,-2.7592,-2.7267,-2.7092,-2.5997,-2.5568,-2.5568,-2.5294,-2.5115,-2.4957,-2.3856,-2.2668,-2.1731,-2.1731,-2.1741,-2.1741,-2.1741,-2.1741,-2.1741,-2.1741,-2.1741,-2.1741,-2.1741,-2.1741,-2.1741,-2.1741,-2.1741,-2.1741,-2.1741,-2.1741,-2.1741,-2.1741,-2.1741,-2.1741,-2.1741,-2.1741,-2.1741,-2.1741,-2.1741,-2.1365,-2.0439,-2.0339,-1.9977,-1.8972,-1.7963,-1.7326,-1.7333,-1.6393,-1.5832,-1.5832,-1.5832,-1.5832,-1.5832,-1.5832,-1.5832,-1.5832,-1.5832,-1.5832,-1.5832,-1.5832,-1.5832,-1.5832,-1.5832,-1.5832,0.0,0.0,-2.9856,-2.9856,0.0,0.0,0.0,0.0,0.0,0.0,0.0,0.0,0.0,0.0,0.0,0.0,0.0,0.0,0.0,0.0,0.0,0.0,0.0,0.0,0.0,0.0,0.0,-2.9792,-2.9792,-2.9792,-2.9792,-2.9792,-2.9792,-2.9792,-2.9792,-2.9534,-2.8961,-2.8767,-2.8279,-2.7464,-2.7879,-2.7983,-2.7753,-2.7672,-2.7603,-2.7603,-2.6999,-2.6741,-2.6659,-2.6412,-2.6163,-2.5997,-2.4808,-2.4296,-2.4114,-2.4029,-2.3943,-2.377,-2.2668,-2.1989,-2.1741,-2.1741,-2.1741,-2.1741,-2.1741,-2.1741,-2.1741,-2.1741,-2.1741,-2.1741,-2.1741,-2.1741,-2.1741,-2.1741,-2.1741,-2.1741,-2.1741,-2.1741,-2.1741,-2.1741,-2.1741,-2.1741,-2.1741,-2.1177,-2.0997,-2.1642,-2.1177,-2.0628,-2.0339,-1.9704,-1.888,-1.7878,-1.7512,-1.7044,-1.6386,-1.6015,-1.5832,-1.5832,-1.5832,-1.5832,-1.5832,-1.5832,-1.5832,-1.5832,-1.5832,-1.5832,-1.5832,-1.5832,-1.5832,-1.5832,-1.5832,-1.5832,-2.9792,-2.9792,0.0,-2.9378,-2.9378,0.0,-2.9378,0.0,0.0,0.0,0.0,0.0,0.0,0.0,0.0,0.0,0.0,0.0,0.0,-2.8961,0.0,0.0,0.0,0.0,0.0,0.0,-2.8791,-2.8803,-2.8791,-2.8791,0.0,0.0,-2.8803,-2.8803,-2.8803,-2.8554,-2.7879,-2.7695,-2.7197,-2.6378,-2.6789,-2.6894,-2.667,-2.667,-2.667,-2.667,-2.608,-2.5819,-2.5746,-2.5495,-2.5242,-2.4893,-2.3714,-2.3105,-2.2931,-2.2843,-2.2843,-2.2668,-2.1989,-2.1741,-2.1741,-2.1741,-2.1741,-2.1741,-2.1741,-2.1741,-2.1741,-2.1741,-2.1741,-2.1741,-2.1741,-2.1741,-2.1741,-2.1741,-2.1741,-2.1741,-2.1741,-2.1741,-2.1741,-2.1741,-2.1741,-2.1553,-2.1275,-2.0718,-2.0529,-2.1087,-2.0348,-1.9613,-1.9247,-1.8696,-1.787,-1.6857,-1.6763,-1.6487,-1.5832,-1.5832,-1.5832,-1.5832,-1.5832,-1.5832,-1.5832,-1.5832,-1.5832,-1.5832,-1.5832,-1.5832,-1.5832,-1.5832,-1.5832,-1.5832,-1.5832,-1.5832]},{"header":{"parameterUnit":"m.s-1","parameterCategory":1,"la1":30.6,"la2":29.2853,"lo1":-89.7004,"lo2":-87.6739,"dy":0.0162,"dx":0.0183,"nx":112,"ny":82,"refTime":"2023-07-20T00:00:00:Z","depth":0,"parameterNumber":3,"parameterNumberName":"V-component_of_WINDS"},"data":[0.0,0.0,0.0,0.0,0.0,0.0,0.0,0.0,0.0,0.0,0.0,0.0,0.0,0.0,0.0,0.0,0.0,0.0,0.0,0.0,0.0,0.0,0.0,0.0,0.0,0.0,0.0,0.0,0.0,0.0,0.0,0.0,0.0,0.0,0.0,0.0,0.0,0.0,0.0,0.0,0.0,0.0,0.0,0.0,0.0,0.0,0.0,0.0,0.0,0.0,0.0,0.0,0.0,0.0,0.0,0.0,0.0,0.0,0.0,0.0,0.0,0.0,0.0,0.0,0.0,0.0,0.0,0.0,0.0,0.0,0.0,0.0,0.0,0.0,0.0,0.0,0.0,0.0,0.0,0.0,0.0,0.0,0.0,0.0,0.0,0.0,0.0,0.0,0.0,0.0,-2.461,-2.4089,-2.4276,-2.4636,-2.5158,-2.5382,-2.5873,-2.6714,0.0,0.0,0.0,0.0,0.0,0.0,0.0,0.0,0.0,0.0,0.0,0.0,0.0,0.0,0.0,0.0,0.0,0.0,0.0,0.0,0.0,0.0,0.0,0.0,0.0,0.0,0.0,0.0,0.0,0.0,0.0,0.0,0.0,0.0,0.0,0.0,0.0,0.0,0.0,0.0,0.0,0.0,0.0,0.0,0.0,0.0,0.0,0.0,0.0,0.0,0.0,0.0,0.0,0.0,0.0,0.0,0.0,0.0,0.0,0.0,0.0,0.0,0.0,0.0,0.0,0.0,0.0,0.0,0.0,0.0,0.0,0.0,0.0,0.0,0.0,0.0,0.0,0.0,0.0,0.0,0.0,0.0,0.0,0.0,0.0,0.0,0.0,0.0,0.0,0.0,0.0,0.0,0.0,0.0,0.0,0.0,0.0,0.0,0.0,0.0,0.0,0.0,0.0,0.0,-2.3851,-2.449,-2.5382,-2.591,-2.5992,-2.6188,-2.6521,-2.6943,0.0,0.0,0.0,0.0,0.0,0.0,0.0,0.0,0.0,0.0,0.0,0.0,0.0,0.0,0.0,0.0,0.0,0.0,0.0,0.0,0.0,0.0,0.0,0.0,0.0,0.0,0.0,0.0,0.0,0.0,0.0,0.0,0.0,0.0,0.0,0.0,0.0,0.0,0.0,0.0,0.0,0.0,0.0,0.0,0.0,0.0,0.0,0.0,0.0,0.0,0.0,0.0,0.0,0.0,0.0,0.0,0.0,0.0,0.0,0.0,0.0,0.0,0.0,0.0,0.0,0.0,0.0,0.0,0.0,0.0,0.0,0.0,0.0,0.0,0.0,0.0,0.0,0.0,0.0,0.0,0.0,0.0,0.0,0.0,0.0,0.0,0.0,0.0,0.0,0.0,0.0,0.0,0.0,0.0,0.0,0.0,0.0,0.0,0.0,0.0,0.0,0.0,0.0,-2.4999,-2.505,-2.5606,-2.6107,-2.6339,-2.6339,-2.6465,-2.6671,-2.6956,-2.7024,0.0,0.0,0.0,0.0,0.0,0.0,0.0,0.0,0.0,0.0,0.0,0.0,0.0,0.0,0.0,0.0,0.0,0.0,0.0,0.0,0.0,0.0,0.0,0.0,0.0,0.0,0.0,0.0,0.0,0.0,0.0,0.0,0.0,0.0,0.0,0.0,0.0,0.0,0.0,0.0,0.0,0.0,0.0,0.0,0.0,0.0,0.0,0.0,0.0,0.0,0.0,0.0,0.0,0.0,0.0,0.0,0.0,0.0,0.0,0.0,0.0,0.0,0.0,0.0,0.0,0.0,0.0,0.0,0.0,0.0,0.0,0.0,0.0,0.0,0.0,0.0,0.0,0.0,0.0,0.0,0.0,0.0,0.0,0.0,0.0,0.0,0.0,0.0,0.0,0.0,0.0,0.0,0.0,0.0,0.0,0.0,0.0,0.0,0.0,0.0,0.0,0.0,-2.6258,-2.6339,-2.6465,-2.6533,-2.6533,-2.6533,-2.6533,-2.6671,-2.6956,-2.7024,0.0,0.0,0.0,0.0,0.0,0.0,0.0,0.0,0.0,0.0,0.0,0.0,0.0,0.0,0.0,0.0,0.0,0.0,0.0,0.0,0.0,0.0,0.0,0.0,0.0,0.0,0.0,0.0,0.0,0.0,0.0,0.0,0.0,0.0,0.0,0.0,0.0,0.0,0.0,0.0,0.0,0.0,0.0,0.0,0.0,0.0,0.0,0.0,0.0,0.0,0.0,0.0,0.0,0.0,0.0,0.0,0.0,0.0,0.0,0.0,0.0,0.0,0.0,0.0,0.0,0.0,0.0,0.0,0.0,0.0,0.0,0.0,0.0,0.0,0.0,0.0,0.0,0.0,0.0,0.0,0.0,0.0,0.0,0.0,0.0,0.0,0.0,0.0,0.0,0.0,0.0,0.0,0.0,0.0,0.0,0.0,0.0,0.0,0.0,0.0,0.0,0.0,-2.6025,-2.6465,-2.6533,-2.6533,-2.6533,-2.6533,-2.6533,-2.6671,-2.6956,-2.7024,0.0,0.0,0.0,0.0,0.0,0.0,0.0,0.0,0.0,0.0,0.0,0.0,0.0,0.0,0.0,0.0,0.0,0.0,0.0,0.0,0.0,0.0,0.0,0.0,0.0,0.0,0.0,0.0,0.0,0.0,0.0,0.0,0.0,0.0,0.0,0.0,0.0,0.0,0.0,0.0,0.0,0.0,0.0,0.0,0.0,0.0,0.0,0.0,0.0,0.0,0.0,0.0,0.0,0.0,0.0,0.0,0.0,0.0,0.0,0.0,0.0,0.0,0.0,0.0,0.0,0.0,0.0,0.0,0.0,0.0,0.0,0.0,0.0,0.0,0.0,0.0,0.0,0.0,0.0,0.0,0.0,0.0,0.0,0.0,0.0,0.0,0.0,0.0,0.0,0.0,0.0,0.0,0.0,0.0,0.0,0.0,0.0,0.0,0.0,0.0,0.0,0.0,-2.6314,-2.6533,0.0,-2.6533,-2.6533,-2.6533,-2.6589,-2.6726,-2.6943,0.0,0.0,0.0,0.0,0.0,0.0,0.0,0.0,0.0,0.0,0.0,0.0,0.0,0.0,0.0,0.0,0.0,0.0,0.0,0.0,0.0,0.0,0.0,0.0,0.0,0.0,0.0,0.0,0.0,0.0,0.0,0.0,0.0,0.0,0.0,0.0,0.0,0.0,0.0,0.0,0.0,0.0,0.0,0.0,0.0,0.0,0.0,0.0,0.0,0.0,0.0,0.0,0.0,0.0,0.0,0.0,0.0,0.0,0.0,0.0,0.0,0.0,0.0,0.0,0.0,0.0,0.0,0.0,0.0,0.0,0.0,0.0,0.0,0.0,0.0,0.0,0.0,0.0,0.0,0.0,0.0,0.0,0.0,0.0,0.0,0.0,0.0,0.0,0.0,0.0,0.0,0.0,0.0,0.0,0.0,0.0,0.0,0.0,0.0,0.0,0.0,0.0,-2.6691,-2.6634,-2.6533,0.0,-2.6533,-2.6521,-2.6589,-2.6658,-2.6794,-2.7079,0.0,0.0,0.0,0.0,0.0,0.0,0.0,0.0,0.0,0.0,0.0,0.0,0.0,0.0,0.0,0.0,0.0,0.0,0.0,0.0,0.0,0.0,0.0,0.0,0.0,0.0,0.0,0.0,0.0,0.0,0.0,0.0,0.0,0.0,0.0,0.0,0.0,0.0,0.0,0.0,0.0,0.0,0.0,0.0,0.0,0.0,0.0,0.0,0.0,0.0,0.0,0.0,0.0,0.0,0.0,0.0,0.0,0.0,0.0,0.0,0.0,0.0,0.0,0.0,0.0,0.0,0.0,0.0,0.0,0.0,0.0,0.0,0.0,0.0,0.0,0.0,0.0,0.0,0.0,0.0,0.0,0.0,0.0,0.0,0.0,0.0,0.0,0.0,0.0,0.0,0.0,0.0,0.0,0.0,0.0,0.0,0.0,0.0,0.0,0.0,0.0,0.0,-2.7218,-2.6816,-2.6546,-2.6546,-2.6546,-2.6533,-2.6726,-2.6726,-2.6875,0.0,0.0,0.0,0.0,0.0,0.0,0.0,0.0,0.0,0.0,0.0,0.0,0.0,0.0,0.0,0.0,0.0,0.0,0.0,0.0,0.0,0.0,0.0,0.0,0.0,0.0,0.0,0.0,0.0,0.0,0.0,0.0,0.0,0.0,0.0,0.0,0.0,0.0,0.0,0.0,0.0,0.0,0.0,0.0,0.0,0.0,0.0,0.0,0.0,0.0,0.0,0.0,0.0,0.0,0.0,0.0,0.0,0.0,0.0,0.0,0.0,0.0,0.0,0.0,0.0,0.0,0.0,0.0,0.0,0.0,0.0,0.0,0.0,0.0,0.0,0.0,0.0,0.0,0.0,0.0,0.0,0.0,0.0,0.0,0.0,0.0,0.0,0.0,0.0,0.0,0.0,0.0,0.0,0.0,0.0,0.0,0.0,0.0,0.0,0.0,0.0,0.0,0.0,-2.7846,-2.772,-2.762,-2.762,-2.775,-2.767,-2.736,-2.7531,-2.7893,-2.8433,0.0,0.0,0.0,0.0,0.0,0.0,0.0,0.0,0.0,0.0,0.0,0.0,0.0,0.0,0.0,0.0,0.0,0.0,0.0,0.0,0.0,0.0,0.0,0.0,0.0,0.0,0.0,0.0,0.0,0.0,0.0,0.0,0.0,0.0,0.0,0.0,0.0,0.0,0.0,0.0,0.0,0.0,0.0,0.0,0.0,0.0,0.0,0.0,0.0,0.0,0.0,0.0,0.0,0.0,0.0,0.0,0.0,0.0,0.0,0.0,0.0,0.0,0.0,0.0,0.0,0.0,0.0,0.0,0.0,0.0,0.0,0.0,0.0,0.0,0.0,0.0,0.0,0.0,0.0,0.0,0.0,0.0,0.0,0.0,0.0,0.0,0.0,0.0,0.0,0.0,0.0,0.0,0.0,0.0,0.0,0.0,0.0,0.0,0.0,0.0,0.0,0.0,-2.8398,-2.8308,-2.8243,-2.8243,-2.8591,-2.8809,-2.8477,-2.8859,-2.9256,-2.9444,0.0,0.0,0.0,0.0,0.0,0.0,0.0,0.0,0.0,0.0,0.0,0.0,0.0,0.0,0.0,0.0,0.0,0.0,0.0,0.0,0.0,0.0,0.0,0.0,0.0,0.0,0.0,0.0,0.0,0.0,0.0,0.0,0.0,0.0,0.0,0.0,0.0,0.0,0.0,0.0,0.0,0.0,0.0,0.0,0.0,0.0,0.0,0.0,0.0,0.0,0.0,0.0,0.0,0.0,0.0,0.0,0.0,0.0,0.0,0.0,0.0,0.0,0.0,0.0,0.0,0.0,0.0,0.0,0.0,0.0,0.0,0.0,0.0,0.0,0.0,0.0,0.0,0.0,0.0,0.0,0.0,0.0,0.0,0.0,0.0,0.0,0.0,0.0,0.0,0.0,0.0,0.0,0.0,0.0,0.0,0.0,0.0,0.0,0.0,0.0,0.0,0.0,-2.9013,-2.8785,-2.8629,-2.868,-2.9372,-2.9889,-2.9973,-3.0514,-3.0693,-3.0325,0.0,0.0,0.0,0.0,0.0,0.0,0.0,0.0,0.0,0.0,0.0,0.0,0.0,0.0,0.0,0.0,0.0,0.0,0.0,0.0,0.0,0.0,0.0,0.0,0.0,0.0,0.0,0.0,0.0,0.0,0.0,0.0,0.0,0.0,0.0,0.0,0.0,0.0,0.0,0.0,0.0,0.0,0.0,0.0,0.0,0.0,0.0,0.0,0.0,0.0,0.0,0.0,0.0,0.0,0.0,0.0,0.0,0.0,0.0,0.0,-2.3277,0.0,0.0,0.0,0.0,0.0,0.0,0.0,0.0,0.0,0.0,0.0,0.0,0.0,0.0,0.0,0.0,0.0,0.0,0.0,0.0,0.0,0.0,0.0,0.0,0.0,0.0,0.0,0.0,0.0,0.0,0.0,0.0,0.0,0.0,0.0,0.0,0.0,0.0,0.0,0.0,0.0,-3.0181,-3.03,-3.0532,-3.1055,-3.1523,-3.1656,-3.1177,-3.1421,-3.1707,-3.2123,-3.2254,0.0,0.0,0.0,0.0,0.0,0.0,0.0,0.0,0.0,0.0,0.0,0.0,0.0,0.0,0.0,0.0,0.0,0.0,0.0,0.0,0.0,0.0,0.0,0.0,0.0,0.0,0.0,0.0,0.0,0.0,0.0,0.0,0.0,0.0,0.0,0.0,0.0,0.0,0.0,0.0,0.0,0.0,0.0,0.0,0.0,0.0,0.0,0.0,0.0,0.0,0.0,0.0,0.0,0.0,0.0,0.0,0.0,0.0,0.0,0.0,-2.4477,0.0,0.0,0.0,0.0,0.0,0.0,0.0,0.0,0.0,0.0,0.0,0.0,0.0,0.0,0.0,0.0,0.0,0.0,0.0,0.0,0.0,0.0,0.0,0.0,0.0,0.0,0.0,0.0,0.0,0.0,0.0,0.0,0.0,0.0,0.0,0.0,0.0,0.0,0.0,0.0,-3.112,-3.1478,-3.1739,-3.2034,-3.2639,-3.2852,-3.254,-3.2828,-3.3237,-3.3714,-3.398,0.0,0.0,0.0,0.0,0.0,0.0,0.0,0.0,0.0,0.0,0.0,0.0,0.0,0.0,0.0,0.0,0.0,0.0,0.0,0.0,0.0,0.0,0.0,0.0,0.0,0.0,0.0,0.0,0.0,0.0,0.0,0.0,0.0,0.0,0.0,0.0,0.0,0.0,0.0,0.0,0.0,0.0,0.0,0.0,0.0,0.0,0.0,0.0,0.0,0.0,0.0,0.0,0.0,-2.1825,-2.251,-2.2793,-2.313,-2.3748,-2.4458,-2.4629,-2.4745,-2.4919,0.0,0.0,0.0,0.0,0.0,0.0,0.0,0.0,0.0,0.0,0.0,0.0,0.0,0.0,0.0,0.0,0.0,0.0,0.0,0.0,0.0,0.0,0.0,0.0,0.0,-3.3081,-3.2943,0.0,0.0,0.0,0.0,0.0,0.0,0.0,0.0,0.0,0.0,0.0,0.0,-3.1805,-3.205,-3.2343,-3.2606,-3.321,-3.3673,-3.382,-3.423,-3.4633,-3.4958,-3.5473,-3.6261,0.0,0.0,0.0,0.0,0.0,0.0,0.0,0.0,0.0,0.0,0.0,0.0,0.0,0.0,0.0,0.0,0.0,0.0,0.0,0.0,0.0,0.0,0.0,0.0,0.0,0.0,0.0,0.0,0.0,0.0,0.0,0.0,-1.2357,-1.2534,0.0,0.0,0.0,0.0,0.0,0.0,0.0,0.0,0.0,0.0,0.0,0.0,0.0,-1.8205,-1.9138,-2.059,-2.1432,-2.1707,-2.2373,-2.2793,-2.3066,-2.3295,-2.3434,-2.3602,-2.4152,0.0,-2.5557,-2.5616,0.0,0.0,0.0,0.0,0.0,0.0,0.0,0.0,0.0,0.0,0.0,0.0,0.0,0.0,0.0,0.0,0.0,0.0,0.0,0.0,0.0,0.0,-3.3081,-3.3081,-3.3081,-3.3056,0.0,-3.2968,-3.2943,-3.2867,-3.2453,0.0,0.0,0.0,0.0,0.0,0.0,0.0,-3.2008,-3.1782,-3.2032,-3.3234,-3.3587,-3.4,-3.4657,-3.4802,-3.5113,-3.5711,-3.5823,-3.6547,-3.8043,-3.7446,0.0,0.0,0.0,0.0,0.0,0.0,0.0,0.0,0.0,0.0,0.0,0.0,0.0,0.0,0.0,0.0,0.0,0.0,0.0,0.0,0.0,0.0,0.0,0.0,0.0,0.0,0.0,0.0,0.0,-1.2186,-1.2875,-1.3392,-1.3828,-1.4155,0.0,0.0,0.0,0.0,0.0,0.0,0.0,0.0,0.0,-1.7333,-1.8567,-1.9475,-1.9937,-2.1046,-2.1787,-2.198,-2.2483,-2.2875,-2.3248,-2.3568,-2.3857,-2.3968,-2.4244,-2.4639,-2.499,-2.5545,-2.5704,-2.5788,0.0,0.0,0.0,0.0,-3.0204,-3.1193,-3.1427,-3.1779,0.0,-3.2127,0.0,0.0,0.0,0.0,0.0,0.0,0.0,0.0,0.0,0.0,0.0,-3.3081,-3.3081,-3.2993,-3.2667,-3.2689,-3.2874,0.0,-3.2953,-3.276,-3.2625,0.0,0.0,0.0,0.0,-3.2738,-3.341,-3.3762,-3.4344,-3.5347,-3.5176,-3.5121,-3.5409,-3.5102,-3.524,-3.6039,-3.6068,-3.6721,-3.8222,-3.7674,-3.7857,0.0,0.0,0.0,0.0,0.0,0.0,0.0,0.0,0.0,0.0,0.0,0.0,0.0,0.0,0.0,0.0,0.0,0.0,0.0,0.0,0.0,0.0,0.0,0.0,0.0,0.0,0.0,0.0,-1.279,-1.3307,-1.3997,-1.4088,-1.4175,0.0,0.0,0.0,0.0,0.0,0.0,-1.619,-1.6857,-1.7512,-1.8056,-1.9612,-2.0585,-2.0767,-2.1708,-2.2279,-2.2662,-2.2941,-2.3275,-2.3837,-2.3924,-2.4065,-2.4248,-2.4141,-2.4173,-2.4455,-2.5128,-2.5601,-2.6025,-2.7141,-2.8271,-2.9285,-2.9963,-3.0614,-3.121,-3.1348,-3.1386,-3.1386,-3.1386,0.0,-3.1461,-3.1876,0.0,0.0,0.0,0.0,-3.2654,-3.2654,-3.2654,-3.2654,-3.2654,-3.2726,-3.2613,-3.2185,-3.2415,-3.2695,0.0,-3.2895,-3.3008,-3.2821,0.0,0.0,0.0,0.0,-3.389,-3.4784,-3.5154,-3.5759,-3.6679,-3.6311,-3.6116,-3.6265,-3.5695,-3.5626,-3.6456,-3.6324,-3.681,-3.8108,-3.7524,-3.7563,-3.8346,0.0,0.0,0.0,0.0,0.0,0.0,0.0,0.0,0.0,0.0,0.0,0.0,0.0,0.0,0.0,0.0,0.0,0.0,0.0,0.0,0.0,0.0,0.0,0.0,0.0,0.0,0.0,0.0,0.0,-1.4088,-1.4088,0.0,0.0,0.0,0.0,-1.4963,-1.5244,-1.5889,-1.7124,-1.7232,-1.8149,-2.0068,-2.0617,-2.1278,-2.2199,-2.288,-2.3561,-2.4231,-2.4011,-2.4311,-2.4971,-2.418,-2.3818,-2.3799,-2.3379,-2.363,-2.4461,-2.4526,-2.4887,-2.5543,-2.6722,-2.7527,-2.8399,-2.9955,-3.0578,-3.0721,-3.1223,-3.1386,-3.1386,-3.1386,-3.1386,-3.1399,-3.1424,-3.1449,0.0,0.0,-3.1474,-3.1474,-3.1474,-3.1474,-3.1474,-3.1474,-3.165,-3.1731,-3.1706,-3.2434,-3.2804,0.0,-3.1894,-3.2352,-3.3263,0.0,-3.3968,-3.5461,-3.4615,-3.4339,-3.5863,-3.4872,-3.4574,-3.6187,-3.6315,-3.6585,-3.7243,-3.6745,-3.6709,-3.7306,-3.6783,-3.6806,-3.7434,-3.6866,-3.6836,-3.7449,-3.6207,0.0,0.0,0.0,0.0,0.0,0.0,0.0,0.0,0.0,0.0,0.0,0.0,0.0,0.0,0.0,0.0,0.0,0.0,0.0,0.0,0.0,0.0,0.0,0.0,0.0,0.0,0.0,0.0,-1.4004,-1.4088,0.0,-1.4616,-1.4576,-1.4796,-1.5471,-1.5444,-1.5982,-1.7217,-1.7878,-1.8972,-2.0421,-2.1552,-2.2327,-2.2793,-2.3298,-2.3767,-2.42,-2.4131,-2.4316,-2.4639,-2.4336,-2.4199,-2.418,-2.4033,-2.4326,-2.4856,-2.5009,-2.5806,-2.7073,-2.8127,-2.8846,-2.93,-2.9849,-3.0093,-3.0118,-3.0294,-3.0369,-3.0369,-3.0369,-3.0595,-3.0896,-3.0896,-3.1122,-3.1386,-3.1386,-3.1386,-3.1386,-3.1386,-3.148,-3.1562,-3.1562,-3.2089,-3.2515,-3.2176,-3.2814,-3.339,-3.3192,-3.3441,-3.3493,-3.2909,-3.3752,-3.4554,-3.4582,-3.506,-3.575,-3.6747,-3.6837,-3.7157,-3.8204,-3.7934,-3.7753,-3.8033,-3.7449,-3.7,-3.6821,-3.6611,-3.6596,-3.6806,-3.6295,-3.625,-3.6806,-3.6054,-3.5724,0.0,0.0,0.0,0.0,0.0,0.0,0.0,0.0,0.0,0.0,0.0,0.0,0.0,0.0,0.0,0.0,0.0,0.0,0.0,0.0,0.0,0.0,0.0,0.0,0.0,0.0,-1.343,-1.413,-1.4229,-1.4429,-1.4917,-1.4783,-1.495,-1.5631,-1.5504,-1.6075,-1.7677,-1.8621,-1.9787,-2.1256,-2.2391,-2.3082,-2.3275,-2.3632,-2.4028,-2.4265,-2.4368,-2.453,-2.4853,-2.4707,-2.4639,-2.4629,-2.4842,-2.5218,-2.5908,-2.6509,-2.7522,-2.8805,-2.8913,-2.9275,-2.9792,-2.9792,-2.9792,-2.9792,-2.9792,-2.9792,-2.9792,-2.9792,-3.0043,-3.0331,-3.0331,-3.0583,-3.0846,-3.0846,-3.0926,-3.0994,-3.1286,-3.1445,-3.1694,-3.1902,-3.2704,-3.3265,-3.2901,-3.3758,-3.4566,-3.4363,-3.4385,-3.4297,-3.3774,-3.471,-3.552,-3.5395,-3.6114,-3.6953,-3.79,-3.822,-3.8614,-3.9292,-3.9005,-3.8736,-3.8736,-3.8123,-3.7569,-3.715,-3.6731,-3.6543,-3.6543,-3.5949,-3.5864,-3.633,-3.5993,-3.5782,-3.5683,0.0,0.0,0.0,0.0,0.0,0.0,0.0,0.0,0.0,0.0,0.0,0.0,0.0,0.0,0.0,0.0,0.0,0.0,0.0,0.0,0.0,0.0,0.0,-1.2705,-1.3489,-1.4208,-1.4489,-1.4529,-1.4649,-1.495,-1.4977,-1.5097,-1.5391,-1.5418,-1.6458,-1.8696,-1.9495,-2.0729,-2.2712,-2.3381,-2.3701,-2.3691,-2.3999,-2.4397,-2.4698,-2.4993,-2.5322,-2.5723,-2.5283,-2.5088,-2.5153,-2.5717,-2.6494,-2.7459,-2.8849,-2.9978,-3.0667,-2.8871,-2.887,-2.9817,-2.9804,-2.9792,-2.9792,-2.9792,-2.9792,-2.9792,-2.9792,-2.9792,-2.9792,-2.9792,-2.9792,-2.9792,-2.9792,-2.9934,-3.0292,-3.097,-3.1341,-3.1709,-3.2393,-3.3292,-3.3882,-3.3882,-3.5168,-3.6057,-3.5392,-3.4693,-3.4697,-3.6099,-3.6357,-3.686,-3.8176,-3.7752,0.0,-3.919,-3.8738,-3.8516,-3.9352,-3.9424,-3.9424,-3.9424,-3.8796,-3.8407,-3.8392,-3.721,-3.6558,-3.6727,-3.5914,-3.5683,-3.5973,-3.5973,-3.5973,-3.5973,0.0,0.0,0.0,0.0,0.0,0.0,0.0,0.0,0.0,0.0,0.0,0.0,0.0,0.0,0.0,0.0,0.0,0.0,0.0,0.0,0.0,0.0,-1.3743,-1.3743,-1.4091,-1.4429,-1.4509,-1.471,-1.4957,-1.5251,-1.5277,-1.5398,-1.5691,-1.6658,-1.7757,-1.9153,-2.054,-2.1981,-2.3409,-2.4097,-2.4506,-2.4704,-2.5119,-2.5343,-2.545,-2.546,-2.5615,-2.5732,-2.5605,-2.5557,-2.5547,-2.6418,-2.7268,-2.8121,-2.9369,-3.0313,-3.0939,-3.0233,-3.0119,-3.0344,-2.9942,-2.9792,-2.9792,-2.9792,-2.9792,-2.9792,-2.9792,-2.9792,-2.9792,-2.9792,-2.9792,-2.9792,-2.9792,-2.9934,-3.0152,-3.0355,-3.1084,-3.1796,-3.2001,-3.3114,-3.4218,-3.4218,-3.5034,-3.5815,-3.607,-3.6011,-3.5956,-3.6094,-3.7084,-3.7908,-3.8209,-3.8531,0.0,-3.9322,-3.9192,-3.9119,-3.9352,-3.9424,-3.9424,-3.9424,-3.9245,-3.8931,-3.8422,-3.7614,-3.7023,-3.6743,-3.6144,-3.5973,-3.6148,-3.6037,-3.5973,0.0,0.0,0.0,0.0,0.0,0.0,0.0,0.0,0.0,0.0,0.0,0.0,0.0,0.0,0.0,0.0,0.0,0.0,0.0,0.0,0.0,0.0,-1.4188,-1.4269,-1.4269,-1.4416,-1.4609,-1.4856,-1.5044,-1.5257,-1.5545,-1.5578,-1.5698,-1.5992,-1.6739,-1.7941,-1.9503,-2.0908,-2.238,-2.3853,-2.4737,-2.515,-2.5352,-2.5605,-2.5742,-2.5742,-2.5742,-2.5742,-2.5742,-2.5742,-2.5917,0.0,-2.7474,-2.8424,-2.9353,-3.0619,-3.143,0.0,0.0,0.0,0.0,0.0,-2.9993,-2.9792,-2.9792,-2.9792,-2.9792,-2.9792,-2.9792,-2.9792,-2.9792,-2.9792,-2.9792,-2.9856,-3.0075,-3.0368,-3.1057,-3.1856,-3.2577,-3.3213,-3.434,-3.5236,-3.5236,-3.5807,-3.6417,-3.6791,-3.6881,0.0,-3.6678,-3.7617,-3.837,-3.8325,-3.8926,-3.9424,-3.9424,-3.9424,-3.9424,-3.9424,-3.9424,-3.9424,-3.9424,-3.9424,0.0,0.0,0.0,-3.7624,-3.6889,-3.6402,0.0,0.0,0.0,-3.6226,-3.6226,0.0,0.0,0.0,-3.6246,-3.6466,0.0,0.0,0.0,0.0,0.0,0.0,0.0,0.0,0.0,0.0,0.0,0.0,0.0,0.0,0.0,0.0,-1.4349,-1.4543,-1.4609,-1.4616,-1.481,-1.5337,-1.5424,-1.5545,-1.5805,-1.5858,-1.5985,-1.6253,-1.6626,-1.7638,-1.9755,0.0,0.0,0.0,0.0,-2.5742,-2.5742,-2.5742,-2.5742,-2.5742,-2.5742,-2.5742,-2.5742,-2.5742,-2.6284,-2.7284,-2.8495,-2.9612,-3.0633,-3.2077,-3.2723,-3.2698,-3.1818,-3.1449,-3.1336,-3.0809,-3.0306,-2.988,-2.9817,0.0,0.0,-2.9792,-2.9792,-2.9792,-2.9792,-2.9792,-2.9869,-3.0088,-3.0292,-3.0934,-3.2407,-3.3059,-3.3644,-3.5067,-3.5872,-3.6372,-3.6372,-3.6806,-3.7195,-3.7195,-3.7195,-3.7195,-3.7195,-3.7793,-3.8287,-3.8287,-3.8796,-3.9185,-3.9185,-3.926,-3.9305,-3.9305,0.0,0.0,-3.9424,-3.9409,-3.9409,-3.9409,-3.8933,-3.816,-3.7086,-3.6656,-3.6414,-3.6274,-3.6414,-3.6492,-3.6492,-3.6492,-3.6492,-3.6507,-3.6774,-3.6964,0.0,0.0,0.0,0.0,0.0,0.0,0.0,0.0,0.0,0.0,0.0,0.0,0.0,0.0,0.0,-1.4396,-1.4482,-1.4683,-1.5157,-1.5231,-1.5271,-1.5384,-1.5605,-1.5765,-1.5818,-1.6046,-1.6213,-1.6273,-1.8375,-1.9789,-2.0249,-2.2777,-2.4398,-2.4818,-2.5392,-2.5742,-2.5742,-2.5742,-2.5742,-2.5742,0.0,0.0,-2.5742,-2.5742,-2.6284,-2.7284,-2.8495,-2.9692,-3.0902,-3.2176,-3.281,-3.292,-3.2315,-3.1788,-3.1336,-3.0809,-3.0545,-3.0394,-2.9942,-2.9792,-2.9792,-2.9792,-2.9792,-2.9792,-2.9792,-2.9934,0.0,-3.0075,-3.0797,-3.1576,-3.1928,-3.3045,-3.4177,-3.4461,-3.5156,-3.5684,-3.5684,-3.5789,-3.5878,-3.5878,-3.5878,-3.5878,-3.5878,-3.6836,-3.7599,-3.7599,-3.7704,-3.7793,-3.7793,-3.8257,-3.8586,-3.8586,-3.9095,-3.9424,-3.9424,-3.9553,-3.9625,-3.9625,-3.8827,-3.7979,-3.717,-3.672,-3.6492,-3.6414,-3.6492,-3.6492,-3.6492,-3.6492,-3.6492,-3.6492,-3.6411,-3.6621,0.0,0.0,0.0,0.0,0.0,0.0,0.0,0.0,0.0,0.0,0.0,-1.4088,0.0,0.0,-1.4349,-1.4496,-1.477,-1.5064,-1.5357,-1.5524,-1.5611,-1.5611,-1.5745,-1.5832,-1.5832,-1.6099,-1.6626,-1.726,-1.8781,-2.0224,-2.1603,-2.3196,-2.4421,-2.5039,-2.5538,-2.5742,-2.5742,-2.5742,-2.5742,-2.5742,-2.5742,-2.5742,-2.5742,-2.5742,-2.6562,-2.8028,-2.8855,-3.0158,-3.1737,-3.2537,-3.2982,-3.3056,-3.2754,-3.2303,-3.1763,-3.1512,-3.1072,-3.057,-3.0306,-3.0018,-2.9792,-2.9792,-2.9792,-2.9792,-2.9792,-2.9934,-3.0228,-3.0646,-3.1294,-3.2001,-3.2847,-3.3671,-3.438,-3.4824,-3.5213,-3.5504,-3.5504,-3.5504,-3.5504,-3.5504,-3.5504,-3.5504,-3.5504,-3.6028,-3.6567,-3.6896,-3.721,-3.7404,-3.7404,-3.7689,-3.7898,-3.7898,-3.8582,-3.9058,-3.9058,-3.9516,-3.991,-3.998,-3.9215,-3.8412,-3.7885,-3.729,-3.683,-3.6507,-3.6492,-3.6492,-3.6492,-3.6492,-3.6492,-3.6492,-3.6414,-3.6704,0.0,0.0,0.0,0.0,0.0,0.0,0.0,0.0,-1.4088,-1.4088,-1.4088,-1.4108,-1.4162,-1.4362,-1.4556,-1.4676,-1.5084,-1.5418,-1.5471,-1.5678,-1.5832,-1.5832,-1.5832,-1.5852,-1.5912,-1.6373,-1.7155,-1.835,-1.9167,-2.0474,-2.2676,-2.3294,-2.4106,-2.5235,-2.5538,-2.5742,-2.5742,-2.5742,-2.5742,-2.5742,-2.5742,-2.5742,-2.5742,-2.5917,-2.703,-2.8773,-2.9601,-3.0979,-3.2562,-3.2909,-3.3081,-3.3081,-3.3081,-3.2792,-3.2365,-3.2252,-3.1662,-3.0896,-3.0683,-3.0331,-2.993,-2.9829,-2.9869,-2.9869,-2.9869,-3.0011,-3.0368,-3.1294,-3.1796,-3.2434,-3.3891,-3.4394,-3.4691,-3.5359,-3.5504,-3.5504,-3.5504,-3.5504,-3.5504,-3.5504,-3.5504,-3.5504,-3.5504,-3.5504,-3.5684,-3.6207,-3.6716,-3.7045,-3.7045,-3.715,-3.7225,-3.7225,-3.7961,-3.8551,-3.8741,-3.941,-3.9999,-4.0331,-3.9673,-3.9066,-3.8539,-3.7861,-3.7184,-3.6507,-3.6492,-3.6492,-3.6492,-3.6492,-3.6492,-3.6492,-3.6492,-3.6784,-0.8828,-0.9777,-1.0982,-1.0982,-1.2443,-1.3913,0.0,0.0,-1.4088,-1.4088,-1.4088,-1.4168,-1.4422,-1.4496,-1.4689,-1.5211,-1.5351,-1.5484,-1.5745,-1.5805,-1.5832,-1.5832,-1.5832,-1.5932,-1.6199,-1.7366,-1.8364,-1.878,-2.0825,-2.2173,-2.2518,-2.3926,-2.4833,-2.4932,-2.544,-2.5742,-2.5742,-2.5742,-2.5742,-2.5742,-2.5742,-2.5742,-2.5732,-2.6648,-2.7652,-2.8866,-3.1092,-3.2463,-3.2995,-3.3081,-3.3081,-3.3081,-3.3081,-3.3031,-3.2918,-3.2403,-3.2139,-3.1901,-3.0947,-3.057,-3.0444,-2.9942,-2.9934,-3.0075,-3.0075,-3.0318,-3.0761,-3.1516,-3.2362,-3.3213,-3.4109,-3.4824,-3.5359,-3.5504,-3.5504,-3.5504,-3.5504,-3.5504,-3.5504,-3.5504,-3.5504,-3.5504,-3.5504,-3.5504,-3.5534,-3.5609,-3.5669,-3.5714,-3.5714,-3.6222,-3.6596,-3.6596,-3.7301,-3.8175,-3.9093,-3.9215,-3.9657,-4.0424,-3.9825,-3.9149,-3.8539,-3.7861,-3.7184,-3.6507,-3.6492,-3.6492,-3.6492,-3.6492,-3.6492,-3.6492,-3.6492,-3.6538,-0.9432,-1.0294,-1.1327,0.0,-1.2705,-1.3997,-1.3398,-1.3737,-1.4135,-1.4302,-1.4342,-1.4429,-1.4723,-1.4917,-1.511,0.0,-1.5538,-1.5691,-1.5812,-1.5832,-1.5832,-1.5832,-1.5979,-1.6139,-1.6259,-1.7186,-1.8318,-1.9645,-2.0982,-2.2409,-2.3827,-2.497,-2.5609,-2.5807,-2.6248,-2.6484,-2.6484,-2.624,-2.6113,-2.6113,-2.5859,-2.5742,-2.5732,-2.6733,-2.8204,-3.0068,-3.1737,-3.2649,-3.3081,-3.3081,-3.3081,-3.3081,-3.3081,-3.3081,-3.3056,-3.2805,-3.2503,-3.2152,-3.17,-3.1135,-3.057,-3.0502,-3.0276,-3.0152,-3.0228,-3.0457,-3.0973,-3.2132,-3.2777,-3.3506,-3.4706,-3.5279,-3.5504,-3.5504,-3.5504,-3.5504,-3.5504,-3.5504,-3.5504,-3.5504,-3.5504,-3.5504,-3.5504,-3.5504,-3.5504,-3.5504,-3.5504,-3.5554,-3.5604,-3.5829,-3.6275,-3.6864,-3.7218,-3.7776,-3.8729,-3.8775,-3.9133,-3.9893,-3.9677,-3.9216,-3.8539,-3.8231,-3.7584,-3.6507,-3.6492,-3.6492,-3.6492,-3.6492,-3.6492,-3.6492,-3.6492,-3.6492,-0.9777,0.0,0.0,-1.1585,-1.2875,-1.3913,-1.3222,-1.3625,-1.4269,-1.4476,-1.4583,-1.4736,-1.503,-1.5257,-1.5424,-1.5504,-1.5691,-1.5832,-1.5832,-1.5832,-1.5858,-1.5939,-1.6213,-1.6518,-1.6993,-1.7392,-1.8491,-2.0395,-2.1241,-2.261,-2.4637,-2.5538,-2.5977,-2.6287,-2.6797,-2.7012,-2.7012,-2.6602,-2.6387,-2.6387,-2.5947,-2.5742,-2.5732,-2.7115,-2.9039,-3.1359,-3.2101,-3.2736,-3.3081,-3.3081,-3.3081,-3.3081,-3.3081,-3.3081,-3.3081,-3.3081,-3.2805,-3.2428,-3.2265,-3.1712,-3.1009,-3.0934,-3.0711,-3.042,-3.0496,-3.0748,-3.132,-3.2621,-3.3199,-3.3782,-3.5148,-3.5504,-3.5504,-3.5504,-3.5504,-3.5504,-3.5504,-3.5504,-3.5504,-3.5504,-3.5504,-3.5504,-3.5504,-3.5504,-3.5504,-3.5504,-3.5554,-3.5604,-3.5688,-3.5752,-3.6076,-3.6804,-3.6929,-3.7284,-3.8169,-3.8231,-3.8523,-3.92,-3.9231,-3.8939,-3.8262,-3.8231,-3.7677,-3.6507,-3.6492,-3.6492,-3.6492,-3.6492,-3.6492,-3.6492,-3.6492,-3.6492,0.0,0.0,-1.1499,-1.2448,-1.3392,-1.4088,-1.4088,-1.4302,-1.4509,-1.4516,-1.475,-1.5037,-1.5331,-1.5391,-1.5491,-1.5772,-1.5818,-1.5832,-1.5832,-1.5832,-1.5939,-1.6226,-1.6513,-1.7196,0.0,-1.8745,-1.9385,-2.0743,-2.1903,-2.3029,-2.443,-2.523,-2.5767,-2.5977,-2.6686,-2.7012,-2.7012,-2.6602,-2.6387,-2.6387,-2.5947,-2.5742,-2.5732,-2.7945,-3.0158,-3.2388,-3.255,-3.281,-3.3081,-3.3081,-3.3081,-3.3081,-3.3081,-3.3081,-3.3081,-3.3081,-3.3068,-3.2968,-3.2403,-3.219,-3.1989,-3.1175,-3.1044,-3.1086,-3.0777,-3.132,-3.2232,-3.3003,-3.3699,-3.4461,-3.5279,-3.5504,-3.5504,-3.5504,-3.5504,-3.5504,-3.5504,-3.5504,-3.5504,-3.5504,-3.5504,-3.5504,-3.5504,-3.5504,-3.5504,-3.5504,-3.5589,-3.5688,-3.5688,-3.5894,-3.6037,-3.6226,-3.6226,-3.658,-3.7477,-3.7523,-3.7815,-3.8492,-3.8539,-3.8231,-3.7569,-3.7523,-3.72,-3.6507,-3.6492,-3.6492,-3.6492,-3.6492,-3.6492,-3.6492,-3.6492,-3.6492,-0.9685,0.0,-1.1499,-1.2448,-1.3531,-1.4376,-1.4376,-1.4603,-1.487,-1.5064,-1.5184,-1.5337,-1.5631,-1.5685,-1.5712,-1.5812,-1.5832,-1.5832,-1.5832,-1.5999,-1.6159,-1.6259,-1.7392,0.0,0.0,0.0,0.0,-2.1794,-2.2601,-2.3627,-2.513,-2.6049,-2.673,-2.7124,-2.7646,-2.7861,-2.7861,-2.7158,-2.6807,-2.6797,-2.6084,-2.638,-2.7767,-2.8588,-3.0249,-3.2388,-3.2636,-3.281,-3.3081,-3.3081,-3.3081,-3.3081,-3.3081,-3.3081,-3.3081,-3.3081,-3.3081,-3.3056,-3.2855,-3.2626,-3.2415,-3.2306,-3.1829,-3.1397,-3.1447,-3.1761,-3.2218,-3.3003,-3.3768,-3.4461,-3.5279,-3.5504,-3.5504,-3.5504,-3.5504,-3.5504,-3.5504,-3.5504,-3.5504,-3.5504,-3.5504,-3.5504,-3.5504,-3.5504,-3.5569,-3.5797,-3.5846,-3.5958,-3.6006,-3.6226,-3.6367,-3.6414,-3.6414,-3.6521,-3.6815,-3.683,-3.7123,-3.78,-3.7846,-3.7738,-3.7507,-3.7507,-3.7184,-3.6507,-3.6492,-3.6492,-3.6492,-3.6492,-3.6492,-3.6492,-3.6492,-3.6492,-1.0033,-1.0952,-1.1799,-1.3022,-1.4015,-1.4676,-1.4676,-1.4903,-1.517,-1.5357,-1.5478,-1.5611,-1.5792,-1.5832,-1.5832,-1.5832,-1.5832,-1.5832,-1.5832,-1.6086,-1.6501,-1.6995,-1.8039,-1.91,0.0,0.0,0.0,-2.2426,-2.2932,-2.3934,-2.5547,-2.6413,-2.7166,-2.7656,-2.8076,-2.8291,-2.8291,-2.7441,-2.6865,-2.6553,-2.5996,-2.6658,-2.8319,-2.8866,-3.0158,-3.2013,-3.2624,-3.2896,-3.3081,-3.3081,-3.3081,-3.3081,-3.3081,-3.3081,-3.3081,-3.3154,-3.324,-3.324,-3.324,-3.3085,-3.2911,-3.2982,-3.2568,-3.2123,-3.2172,-3.2502,-3.2925,-3.3479,-3.4124,-3.4839,-3.5359,-3.5504,-3.5504,-3.5504,-3.5504,-3.5504,-3.5504,-3.5504,-3.5504,-3.5504,-3.5504,-3.5504,-3.5504,-3.5554,-3.5668,-3.6037,-3.6085,-3.6148,-3.6289,-3.6414,-3.6492,-3.6492,-3.6492,-3.6492,-3.6492,-3.6492,-3.6676,-3.7107,-3.7138,-3.7138,-3.7138,-3.7138,-3.6938,-3.6507,-3.6723,-3.6846,-3.6831,-3.7058,-3.7163,-3.7163,-3.7163,-3.7163,-1.0824,-1.1603,-1.232,-1.4005,-1.477,-1.4983,-1.4983,-1.5211,-1.5418,-1.5418,-1.5638,-1.5832,0.0,0.0,-1.5832,-1.5832,-1.5832,-1.5832,-1.5832,-1.6195,-1.6876,0.0,0.0,0.0,0.0,0.0,0.0,-2.2662,0.0,-2.3923,-2.5522,-2.639,-2.7142,-2.7695,-2.8086,-2.8291,-2.8291,-2.7441,-2.6582,-2.5742,-2.5732,-2.639,-2.7683,-2.8866,-3.0147,-3.1436,-3.2624,-3.3081,-3.3081,-3.3081,-3.3081,-3.3081,-3.3081,-3.3081,-3.3167,-3.3313,-3.3398,-3.3398,-3.3398,-3.3398,-3.3395,-3.3289,-3.326,-3.319,-3.3114,-3.3528,-3.4143,-3.4283,-3.4905,-3.5504,-3.5504,-3.5504,-3.5504,-3.5504,-3.5504,-3.5504,-3.5504,-3.5504,-3.5504,-3.5504,-3.5504,-3.5504,-3.5504,-3.5589,-3.5816,-3.6133,-3.6211,-3.6274,-3.6492,-3.6492,-3.6492,-3.6492,-3.6492,-3.6492,-3.6492,-3.6492,-3.6492,-3.6492,-3.6492,-3.6492,-3.6492,-3.6554,-3.6554,-3.6554,-3.7118,-3.7476,-3.7476,-3.801,-3.8278,-3.8278,-3.8278,-3.8278,-1.1326,-1.2388,-1.3213,-1.3668,-1.4605,-1.5284,-1.5284,-1.5511,-1.5718,-1.5718,-1.5778,-1.5832,0.0,0.0,0.0,-1.5832,-1.5832,0.0,-1.5832,-1.6947,0.0,-1.8368,0.0,-2.1812,-2.2417,-2.3512,0.0,0.0,-2.4472,-2.5201,-2.6466,-2.6903,-2.7468,-2.8125,-2.8232,-2.8291,-2.8291,-2.7441,-2.6582,-2.5742,-2.5917,-2.6935,-2.8691,-2.9407,-3.0687,-3.2351,-3.2896,-3.3081,-3.3081,-3.3081,-3.3081,-3.3081,-3.3081,-3.3081,-3.3167,-3.3313,-3.3398,-3.3484,-3.3823,-3.3907,-3.3882,-3.3907,-3.368,-3.3524,-3.3611,-3.3859,-3.4143,-3.4283,-3.4905,-3.5504,-3.5504,-3.5504,-3.5504,-3.5504,-3.5504,-3.5504,-3.5504,-3.5504,-3.5504,-3.5504,-3.5504,-3.5554,-3.5653,-3.5767,-3.5958,-3.6148,-3.6352,-3.6414,-3.6492,-3.6492,-3.6492,-3.6492,-3.6492,-3.6492,-3.6492,-3.6492,-3.6492,-3.6492,-3.6492,-3.6492,-3.6492,-3.6952,-3.7178,-3.7178,-3.7738,-3.8067,-3.8067,-3.8222,-3.8278,-3.8278,-3.8278,-3.8278,-1.2344,-1.3194,-1.3854,-1.4318,-1.4995,-1.5585,-1.5585,-1.5712,-1.5832,-1.5832,-1.5832,0.0,0.0,0.0,0.0,0.0,0.0,0.0,-1.6487,-1.7963,-1.9244,0.0,-2.1362,0.0,-2.3485,-2.4334,-2.4931,0.0,-2.5384,-2.589,-2.6797,-2.7083,-2.7603,-2.8281,-2.8291,-2.8115,-2.7734,-2.7256,-2.6582,-2.5742,-2.6014,-2.6924,-2.8577,-2.9396,-3.0687,-3.2264,0.0,-3.3081,-3.3081,-3.3081,-3.3081,-3.3081,-3.3081,-3.3081,-3.3154,-3.3398,-3.3556,-3.3556,-3.4076,-3.4243,-3.4243,-3.4243,-3.4341,-3.454,-3.4681,-3.4892,-3.5067,-3.5224,-3.5355,-3.5504,-3.5504,-3.5504,-3.5504,-3.5504,-3.5504,-3.5504,-3.5504,-3.5504,-3.5504,-3.5504,-3.5554,-3.5653,-3.5831,-3.5958,-3.6148,-3.6289,-3.6414,-3.6492,-3.6492,-3.6492,-3.6492,-3.6492,-3.6492,-3.6492,-3.6492,-3.6492,-3.6492,-3.6492,-3.6492,-3.6616,-3.6892,-3.7238,-3.7519,-3.7796,-3.8407,-3.8684,-3.8684,-3.8957,-3.9065,-3.9065,-3.9065,-3.9065,-1.3574,-1.4013,-1.4409,-1.5266,-1.5645,-1.5832,-1.5832,-1.5832,-1.5832,-1.5832,0.0,-1.5832,-1.5832,-1.5832,-1.5825,-1.6015,0.0,-1.7326,-1.7512,-1.9003,-2.0401,-2.1388,-2.2261,-2.3296,-2.4637,-2.4831,-2.517,-2.5903,-2.6013,-2.6254,-2.6901,-2.7233,-2.7647,-2.8291,-2.8291,-2.7881,-2.7021,-2.7012,-2.6582,-2.5742,-2.6091,-2.6914,-2.81,-2.9487,-3.0687,-3.1813,0.0,0.0,-3.3081,-3.3081,-3.3081,-3.3081,-3.3154,-3.3154,-3.3154,-3.3556,-3.3713,-3.381,-3.423,-3.4397,-3.4397,-3.4397,-3.495,-3.5707,-3.5857,-3.6122,-3.6385,-3.6469,-3.6073,-3.5609,-3.5534,-3.5504,-3.5504,-3.5504,-3.5504,-3.5504,-3.5504,-3.5504,-3.5504,-3.5504,-3.5653,-3.5831,-3.5958,-3.6148,-3.6274,-3.6492,-3.6492,-3.6492,-3.6492,-3.6492,-3.6492,-3.6492,-3.6492,-3.6492,-3.6492,-3.6492,-3.6554,-3.66,-3.6616,-3.6892,-3.7519,-3.7578,-3.7911,-3.839,-3.9028,-3.9312,-3.9312,-3.985,-4.007,-4.007,-4.007,-4.007,-1.4838,-1.5245,-1.5563,-1.5657,-1.5792,-1.5832,-1.5832,-1.5832,0.0,0.0,-1.5832,-1.5832,-1.5832,-1.5832,-1.6109,-1.6857,0.0,0.0,0.0,0.0,-2.1283,0.0,0.0,0.0,0.0,0.0,0.0,0.0,0.0,-2.6689,-2.722,-2.7394,-2.7647,-2.8291,-2.8291,-2.7881,-2.7021,-2.7012,-2.6582,-2.5742,-2.701,-2.8111,-2.9223,-3.0609,-3.1889,-3.2896,-3.2982,0.0,-3.3081,-3.3081,-3.3081,-3.3167,-3.3326,-3.3313,-3.3398,-3.3823,-3.3992,-3.4076,-3.4314,-3.4397,-3.4397,-3.4397,-3.495,-3.5707,-3.5857,-3.6436,-3.6953,-3.6603,-3.6402,-3.6193,-3.5654,-3.5504,-3.5504,-3.5504,-3.5504,-3.5504,-3.5504,-3.5604,-3.5638,-3.5638,-3.5831,-3.5958,-3.6148,-3.6196,-3.6274,-3.6492,-3.6492,-3.6492,-3.6492,-3.6492,-3.6492,-3.6492,-3.6492,-3.6492,-3.6492,-3.6492,-3.6723,-3.7238,-3.7238,-3.7519,-3.8124,-3.8629,-3.892,-3.9028,-3.9644,-3.9952,-3.9952,-4.007,-4.007,-4.007,-4.007,-4.007,-1.5485,-1.5725,-1.5832,-1.5832,-1.5832,-1.5832,-1.5832,0.0,0.0,0.0,-1.5832,-1.5832,-1.5832,0.0,0.0,0.0,0.0,0.0,0.0,0.0,0.0,0.0,0.0,0.0,0.0,0.0,0.0,0.0,0.0,-2.6999,-2.7431,-2.7755,-2.797,-2.8291,-2.8291,-2.7881,-2.7021,-2.7012,-2.6582,-2.5917,-2.7284,-2.8473,-2.967,-3.0979,-3.2176,-3.3081,-3.3081,0.0,-3.3081,-3.3081,-3.3081,-3.3167,-3.3313,-3.3398,-3.3484,-3.3907,-3.4076,-3.416,-3.4314,-3.4397,-3.4481,-3.495,-3.5655,-3.6462,-3.6954,-3.7462,-3.7674,-3.7157,-3.6731,-3.6342,-3.5669,-3.5504,-3.5504,-3.5504,-3.5504,-3.5504,-3.5604,-3.5638,-3.5752,-3.5831,-3.5958,-3.6148,-3.6211,-3.6274,-3.6414,-3.6492,-3.6492,-3.6492,-3.6492,-3.6492,-3.6492,-3.6492,-3.6492,-3.6616,-3.6952,-3.6952,-3.7238,-3.7854,-3.7854,-3.8124,-3.8739,-3.9028,-3.9365,-3.9644,-3.9969,-4.007,-4.007,-4.007,-4.007,-4.007,-4.007,-4.007,-1.5866,-1.5832,-1.5832,-1.5832,-1.5832,-1.5832,-1.5832,-1.5832,0.0,0.0,-1.5832,-1.5825,-1.6109,0.0,-1.7419,0.0,0.0,0.0,0.0,0.0,0.0,0.0,0.0,0.0,0.0,0.0,0.0,0.0,0.0,0.0,-2.753,-2.7883,-2.8154,-2.8154,-2.8066,-2.7656,-2.6894,-2.6875,-2.6584,-2.61,-2.7558,-2.8751,-2.9852,-3.1247,-3.2351,-3.3081,-3.3081,0.0,0.0,-3.3081,-3.3081,-3.3167,-3.3398,-3.3484,-3.3484,-3.3992,-3.416,-3.416,-3.4314,-3.4564,-3.4799,-3.5655,-3.6346,-3.7049,-3.7947,-3.8355,-3.8467,-3.7808,-3.7165,-3.6537,-3.5878,-3.5609,-3.5504,-3.5554,-3.5554,-3.5604,-3.5703,-3.5816,-3.5879,-3.6037,-3.6148,-3.6274,-3.6274,-3.6414,-3.6492,-3.6492,-3.6492,-3.6492,-3.6492,-3.6492,-3.6492,-3.6492,-3.6492,-3.6723,-3.7358,-3.7417,-3.7679,-3.8463,-3.8518,-3.8739,-3.9365,-3.9365,-3.9644,-4.007,-4.007,-4.007,-4.007,-4.007,-4.007,-4.007,-4.007,-4.007,-1.6211,-1.6028,-1.5832,-1.5832,-1.5832,-1.5832,-1.5832,0.0,0.0,-1.5832,-1.5832,-1.6109,-1.6951,-1.7232,-1.7878,0.0,0.0,0.0,0.0,0.0,0.0,0.0,0.0,0.0,0.0,0.0,0.0,0.0,0.0,0.0,-2.7833,-2.7824,-2.7725,-2.7725,-2.7334,-2.6914,-2.6455,-2.6445,-2.63,-2.6091,-2.8215,-2.9487,-2.9852,-3.1977,-3.2982,-3.3081,-3.3081,0.0,0.0,-3.3081,-3.3081,-3.3154,-3.3556,-3.3628,-3.3725,-3.423,-3.4397,-3.4397,-3.4397,-3.495,-3.5736,-3.6503,-3.6802,-3.7049,-3.7947,-3.8694,-3.9185,-3.8497,-3.7823,-3.718,-3.6567,-3.5953,-3.5554,-3.5638,-3.5688,-3.5767,-3.591,-3.6085,-3.6133,-3.6211,-3.6352,-3.6492,-3.6492,-3.6492,-3.6492,-3.6492,-3.6492,-3.6492,-3.6492,-3.6492,-3.6492,-3.6492,-3.6492,-3.6723,-3.7358,-3.7417,-3.7911,-3.9028,-3.9152,-3.9365,-3.9969,-4.002,-4.002,-4.007,-4.007,-4.007,-4.007,-4.007,-4.007,-4.007,-4.007,-4.007,-1.6312,-1.6028,-1.5832,-1.5832,-1.5832,-1.5832,-1.5832,0.0,-1.5832,-1.5832,-1.5832,-1.6109,-1.7138,-1.7785,-1.8696,0.0,0.0,0.0,0.0,0.0,0.0,0.0,0.0,0.0,0.0,0.0,0.0,0.0,0.0,0.0,-2.7311,-2.726,-2.7275,-2.7275,-2.7109,-2.6816,-2.6396,-2.6387,-2.6635,-2.7189,-2.8669,-2.9954,-3.0968,-3.2426,-3.3081,-3.3081,-3.3081,0.0,0.0,-3.3081,-3.3081,-3.3154,-3.3556,-3.3713,-3.3797,-3.423,-3.4397,-3.4397,-3.4397,-3.495,-3.5816,-3.666,-3.7281,-3.7857,-3.8649,-3.9119,-3.9275,-3.8586,-3.8197,-3.7764,-3.6746,-3.6034,-3.5638,-3.5688,-3.5767,-3.5894,-3.6085,-3.6148,-3.6274,-3.6352,-3.6429,-3.6492,-3.6492,-3.6492,-3.6492,-3.6492,-3.6492,-3.6492,-3.6492,-3.6492,-3.6662,-3.7013,-3.7074,-3.7298,-3.7895,-3.8238,-3.8865,-3.9696,-3.9747,-3.985,-4.007,-4.007,-4.007,-4.007,-4.007,-4.007,-4.007,-4.007,-4.007,-4.007,-4.007,-4.007,-1.6407,-1.6116,-1.5927,-1.5832,-1.5832,-1.5832,0.0,0.0,-1.6204,-1.5832,-1.6292,-1.6943,-1.7598,-1.8611,-1.9521,0.0,0.0,0.0,0.0,0.0,0.0,0.0,0.0,0.0,0.0,0.0,0.0,0.0,0.0,0.0,0.0,-2.6709,-2.6699,-2.6826,-2.6699,-2.6494,-2.6201,-2.6191,-2.6778,-2.7913,-2.8936,-3.0147,-3.1625,-3.2624,-3.3081,-3.3081,0.0,0.0,0.0,-3.3081,-3.3154,-3.324,-3.3556,-3.3713,-3.3894,-3.423,-3.4397,-3.4481,-3.4716,-3.5345,-3.6201,-3.6986,-3.7857,-3.8664,-3.9192,-3.9424,-3.932,-3.8841,-3.8542,-3.8093,-3.6821,-3.625,-3.5944,-3.5812,-3.5958,-3.61,-3.6274,-3.6274,-3.6352,-3.6492,-3.6492,-3.6492,-3.6492,-3.6492,-3.6492,-3.6492,-3.6492,-3.6554,-3.6723,-3.6785,-3.7013,-3.7621,-3.7812,-3.8067,-3.8518,-3.8794,-3.9242,-4.007,-4.007,-4.007,-4.007,-4.007,-4.007,-4.007,-4.007,-4.007,-4.007,-4.007,-4.007,-4.007,-4.007,-4.007,-1.6588,-1.6407,-1.613,-1.5832,-1.5832,-1.5832,0.0,-1.6574,-1.6951,-1.6015,-1.7404,-1.8788,-1.8788,-1.9613,-2.0619,-2.1553,0.0,0.0,0.0,0.0,0.0,0.0,0.0,0.0,0.0,0.0,0.0,0.0,0.0,0.0,0.0,-2.5986,-2.5947,-2.6387,-2.5977,-2.5752,-2.5742,-2.5742,-2.6476,-2.7913,-2.8936,-3.0147,-3.1625,-3.2624,-3.3081,0.0,0.0,0.0,0.0,-3.3081,-3.324,-3.3398,-3.3641,-3.3894,-3.416,-3.4314,-3.4397,-3.4564,-3.5426,-3.6201,-3.7049,-3.7872,-3.8738,-3.9424,-3.9424,-3.9424,-3.9424,-3.9409,-3.8916,-3.8093,-3.6821,-3.6595,-3.6547,-3.614,-3.6085,-3.6274,-3.6429,-3.6492,-3.6492,-3.6492,-3.6492,-3.6492,-3.6492,-3.6492,-3.6492,-3.6492,-3.6492,-3.6723,-3.7298,-3.7417,-3.7621,-3.8238,-3.8794,-3.9189,-3.9206,-3.8629,-3.8849,-4.002,-4.007,-4.007,-4.007,-4.007,-4.007,-4.007,-4.007,-4.007,-4.007,-4.007,-4.007,-4.007,-4.007,-4.007,-1.6407,-1.6123,-1.5927,-1.5825,-1.5832,-1.6015,-1.6669,-1.7044,-1.7419,-1.7777,-1.8326,-1.8972,-1.9704,-2.0068,-2.0619,-2.1553,-2.1741,0.0,0.0,0.0,0.0,0.0,0.0,0.0,0.0,0.0,0.0,0.0,0.0,0.0,0.0,-2.581,-2.5801,-2.5937,-2.581,-2.5742,-2.5742,-2.637,-2.7474,-2.8947,-2.9966,-3.1169,-3.2624,-3.2982,0.0,0.0,0.0,0.0,0.0,-3.3081,-3.324,-3.3398,-3.3641,-3.3894,-3.416,-3.4314,-3.4397,-3.4564,-3.5426,-3.6201,-3.7049,-3.7947,-3.8738,-3.9424,-3.9424,-3.9424,-3.9424,-3.9424,-3.8931,-3.8197,-3.7345,-3.6992,-3.6773,-3.614,-3.6226,-3.6414,-3.6492,-3.6492,-3.6492,-3.6492,-3.6492,-3.6492,-3.6492,-3.6492,-3.6492,-3.6492,-3.6492,-3.6723,-3.7298,-3.7417,-3.7796,-3.881,-3.8739,-3.8739,-3.9135,-3.9401,-3.9679,-4.0087,-4.007,-4.007,-4.007,-4.007,-4.007,-4.007,-4.007,-4.007,-4.007,-4.007,-4.0138,-4.0238,-4.0337,-4.0337,0.0,-1.6123,-1.5927,-1.5832,-1.6109,0.0,0.0,-1.7878,-1.8519,-1.8788,-1.9338,-1.9985,-2.0257,-2.0619,-2.0997,-2.1642,-2.1741,0.0,0.0,0.0,0.0,0.0,0.0,0.0,0.0,0.0,0.0,0.0,0.0,0.0,0.0,-2.5742,-2.5742,-2.5742,-2.5742,-2.5917,-2.6284,-2.702,-2.8215,-2.9966,-3.0699,-3.1789,-3.3081,-3.3081,0.0,0.0,0.0,0.0,0.0,-3.3081,-3.324,-3.3556,-3.3641,-3.3894,-3.4243,-3.4314,-3.4397,-3.4551,-3.5736,-3.6503,-3.7112,-3.8263,-3.8958,-3.9424,-3.9424,-3.9424,-3.9424,-3.9424,-3.911,-3.8616,-3.8027,-3.7586,-3.7203,-3.6569,-3.6473,-3.6492,-3.6492,-3.6492,-3.6492,-3.6492,-3.6492,-3.6492,-3.6492,-3.6492,-3.6492,-3.6492,-3.6662,-3.7074,-3.7679,-3.7969,-3.8463,-3.9418,-3.9189,-3.9119,-3.9523,-3.9696,-3.9867,-4.007,-4.0138,-4.0188,-4.0188,-4.0221,-4.0221,-4.0221,-4.0221,-4.0221,-4.0221,-4.0221,-4.0271,-4.0387,-4.0485,-4.0436,0.0,-1.6588,0.0,0.0,0.0,0.0,-1.7512,-1.8972,0.0,-1.9155,-2.0447,-2.1454,-2.0529,-2.1087,-2.1741,-2.1741,-2.1741,0.0,0.0,0.0,0.0,0.0,0.0,0.0,0.0,0.0,0.0,0.0,0.0,0.0,0.0,-2.583,-2.583,-2.5917,-2.5917,-2.637,-2.7189,-2.7579,-2.8877,-3.0902,-3.1146,-3.1965,-3.3081,-3.3081,0.0,0.0,0.0,0.0,0.0,-3.3081,-3.3313,-3.3713,-3.3713,-3.3966,-3.4397,-3.4397,-3.4481,-3.4716,-3.6346,-3.6972,-3.7281,-3.887,-3.9424,-3.9424,-3.9424,-3.9424,-3.9424,-3.9424,-3.9409,-3.9331,-3.8752,-3.8296,-3.7764,-3.7247,-3.6812,-3.6492,-3.6492,-3.6492,-3.6492,-3.6492,-3.6492,-3.6492,-3.6492,-3.6492,-3.6492,-3.6554,-3.7074,-3.7637,-3.8294,-3.8849,-3.9418,-4.002,-4.007,-4.007,-4.007,-3.9592,-3.954,-4.007,-4.0238,-4.0288,-4.0288,-4.0436,-4.0485,-4.0485,-4.0485,-4.0485,-4.0485,-4.0534,-4.0534,-4.0534,-4.0534,-4.0534,-1.8519,0.0,-1.8149,-1.8141,-1.8234,-1.8611,0.0,-1.9977,-2.0439,-2.0907,0.0,-2.1642,-2.1365,-2.1553,-2.1741,-2.1741,-2.1741,-2.1741,0.0,0.0,0.0,0.0,0.0,0.0,0.0,0.0,0.0,0.0,0.0,0.0,0.0,-2.6829,-2.72,-2.7945,-2.8121,-2.784,-2.7189,-2.8958,-3.017,-3.0902,-3.1889,-3.2612,-3.3081,-3.3081,0.0,0.0,0.0,0.0,-3.3081,-3.3081,-3.3313,-3.3713,-3.3713,-3.3966,-3.4397,-3.4397,-3.4799,-3.5507,-3.6531,-3.7323,-3.8023,-3.9104,-3.9424,-3.9424,-3.9424,-3.9424,-3.9424,-3.9625,-3.9625,-3.9425,-3.8402,-3.8165,-3.7842,-3.6731,-3.6459,-3.6492,-3.6492,-3.6492,-3.6492,-3.6492,-3.6492,-3.6492,-3.6492,-3.6492,-3.6662,-3.7134,-3.7298,-3.7796,-3.8865,-3.9082,-3.9418,-4.002,-4.007,-4.007,-4.007,-4.007,-4.0087,-4.0238,-4.0387,-4.0436,-4.0436,-4.0468,-4.0485,-4.0485,-4.0485,-4.0485,-4.0485,-4.0583,-4.0648,-4.0648,-4.0745,-4.0728,-1.9613,-1.9247,-1.8788,-1.8788,-1.9155,-1.9613,-2.0158,0.0,0.0,0.0,0.0,-2.1741,-2.1741,-2.1741,-2.1741,-2.1741,-2.1741,0.0,0.0,0.0,0.0,0.0,0.0,0.0,0.0,0.0,0.0,0.0,0.0,0.0,0.0,-2.7652,-2.8121,-2.868,-2.9326,-2.9326,-2.868,-3.0147,-3.1158,-3.1713,-3.2525,-3.2982,-3.3081,-3.3081,-3.3081,0.0,0.0,0.0,-3.324,-3.324,-3.3484,-3.3894,-3.3894,-3.4063,-3.4481,-3.4868,-3.5264,-3.591,-3.7092,-3.8037,-3.8811,-3.9265,-3.9424,-3.9424,-3.9424,-3.9481,-3.9553,-3.9696,-3.9681,-3.9511,-3.8774,-3.8391,-3.7953,-3.6993,-3.6644,-3.6492,-3.6492,-3.6492,-3.6492,-3.6492,-3.6492,-3.6492,-3.6492,-3.6723,-3.7013,-3.7358,-3.7854,-3.8479,-3.9098,-3.9418,-3.9747,-4.007,-4.007,-4.0121,-4.0188,-4.0288,-4.0355,-4.0288,-4.0436,-4.0534,-4.0583,-4.0631,-4.068,-4.068,-4.068,-4.068,-4.068,-4.0745,-4.0793,-4.0793,-4.0888,-4.0888,-2.0529,-1.9886,-1.9247,-1.9247,-1.9886,-2.0529,-2.0529,0.0,0.0,0.0,0.0,0.0,0.0,-2.1741,0.0,0.0,0.0,0.0,0.0,0.0,0.0,0.0,0.0,0.0,0.0,0.0,0.0,0.0,0.0,0.0,0.0,-2.8402,-2.8958,-2.9143,-3.026,-3.0812,-3.0812,-3.1235,-3.1877,-3.2711,-3.2982,-3.3081,-3.3081,-3.3081,-3.3081,0.0,0.0,0.0,-3.3398,-3.3398,-3.3654,-3.4076,-3.4076,-3.4314,-3.4716,-3.5426,-3.583,-3.6294,-3.7872,-3.8811,-3.9394,-3.929,-3.926,-3.9245,-3.9155,-3.9253,-3.938,-3.9466,-3.9526,-3.9491,-3.9047,-3.8555,-3.7958,-3.7443,-3.6907,-3.6492,-3.6492,-3.6492,-3.6492,-3.6492,-3.6492,-3.6554,-3.66,-3.7074,-3.7476,-3.7637,-3.8535,-3.9259,-3.9312,-3.9799,-4.0138,-4.0138,-4.0121,-4.0188,-4.0305,-4.0436,-4.0485,-4.0355,-4.0485,-4.0631,-4.0745,-4.084,-4.0888,-4.0888,-4.0888,-4.0888,-4.0888,-4.0888,-4.0888,-4.0888,-4.0888,-4.0888,-2.1275,-2.1365,-2.1275,-2.1275,-2.1374,-2.1463,-2.1463,0.0,0.0,0.0,0.0,0.0,0.0,0.0,0.0,0.0,0.0,0.0,0.0,0.0,0.0,0.0,0.0,0.0,0.0,0.0,0.0,0.0,0.0,0.0,0.0,-2.9418,-3.0351,-3.1193,-3.1837,-3.2113,-3.2113,-3.2363,-3.2525,-3.2711,-3.2982,-3.3081,-3.3081,-3.3081,-3.3081,0.0,0.0,-3.324,-3.3398,-3.3398,-3.3654,-3.4076,-3.4076,-3.4634,-3.5507,-3.5669,-3.661,-3.7962,-3.8885,-3.9265,-3.9334,-3.8736,-3.8542,-3.8437,-3.7883,-3.7871,-3.8024,-3.8243,-3.8759,-3.9017,-3.7993,-3.7658,-3.7428,-3.6815,-3.6569,-3.6492,-3.6492,-3.6492,-3.6492,-3.6492,-3.6492,-3.6662,-3.7178,-3.7358,-3.7754,-3.8756,-3.9082,-3.9365,-3.9918,-4.002,-4.0121,-4.0238,-4.0255,-4.0337,-4.0485,-4.0485,-4.0534,-4.0648,-4.0745,-4.0823,-4.0888,-4.0888,-4.0888,-4.0888,-4.0888,-4.0888,-4.0888,-4.0888,-4.0888,-4.0888,-4.0888,-4.0888,-2.1642,-2.1741,-2.1741,-2.1741,-2.1741,-2.1741,-2.1741,0.0,0.0,0.0,0.0,0.0,0.0,0.0,0.0,0.0,0.0,0.0,0.0,0.0,0.0,0.0,0.0,0.0,0.0,0.0,0.0,0.0,0.0,0.0,0.0,0.0,-3.1193,-3.1661,-3.2125,-3.24,-3.24,-3.2425,-3.2584,-3.2896,-3.3068,-3.2918,-3.2604,-3.2604,-3.2453,-3.2164,0.0,-3.251,-3.2676,-3.2829,-3.3075,-3.332,-3.332,-3.386,-3.4784,-3.5607,-3.6747,-3.7807,-3.8191,-3.8332,-3.8287,-3.7958,-3.7853,-3.7808,-3.7646,-3.7707,-3.7849,-3.7603,-3.8101,-3.8442,-3.7689,-3.7507,-3.7323,-3.6661,-3.6492,-3.6492,-3.6492,-3.6492,-3.6492,-3.6492,-3.6492,-3.6662,-3.7298,-3.7679,-3.8181,-3.9098,-3.954,-3.9918,-4.0188,-4.0288,-4.0337,-4.0387,-4.0387,-4.0436,-4.06,-4.06,-4.0648,-4.0697,-4.084,-4.0888,-4.0888,-4.0888,-4.0888,-4.0888,-4.0888,-4.0888,-4.0888,-4.0888,-4.0888,-4.0888,-4.0888,-4.0888,-2.1741,-2.1741,-2.1741,-2.1741,0.0,-2.1741,-2.1741,0.0,0.0,0.0,0.0,0.0,0.0,0.0,0.0,0.0,0.0,0.0,0.0,0.0,0.0,0.0,0.0,0.0,0.0,0.0,0.0,0.0,0.0,0.0,0.0,0.0,-3.1387,-3.1387,-3.1834,-3.2019,-3.2093,-3.2072,-3.2303,-3.2867,-3.2742,-3.2453,-3.2026,-3.2026,-3.1788,-3.1386,-3.1574,-3.183,-3.2085,-3.2313,-3.254,-3.2685,-3.2922,-3.352,-3.456,-3.5957,-3.6906,-3.7404,-3.7404,-3.7404,-3.7389,-3.724,-3.7195,-3.7233,-3.7218,-3.7373,-3.7481,-3.7063,-3.7342,-3.7698,-3.7336,-3.7261,-3.7138,-3.6615,-3.6492,-3.6492,-3.6492,-3.6492,-3.6492,-3.6492,-3.66,-3.6892,-3.7519,-3.8124,-3.8739,-3.9365,-3.9918,-4.0305,-4.0337,-4.0436,-4.0534,-4.0534,-4.0534,-4.0583,-4.0745,-4.0745,-4.0745,-4.0745,-4.084,-4.0888,-4.0888,-4.0888,-4.0888,-4.0888,-4.0888,-4.0888,-4.0888,-4.0888,-4.0888,-4.0888,-4.0888,-4.0888,-2.1741,-2.1741,-2.1741,-2.1741,-2.1741,0.0,-2.1741,-2.1741,0.0,-2.1741,0.0,0.0,0.0,0.0,0.0,0.0,0.0,0.0,0.0,0.0,0.0,0.0,0.0,0.0,0.0,0.0,0.0,0.0,0.0,0.0,0.0,0.0,0.0,-3.047,-3.0805,-3.0971,-3.1208,-3.1392,-3.1725,-3.2265,-3.175,-3.1486,-3.1449,-3.1449,-3.1436,-3.1386,-3.1574,-3.183,-3.2085,-3.2313,-3.254,-3.2765,-3.3443,-3.4635,-3.61,-3.6976,-3.7336,-3.7404,-3.7404,-3.7404,-3.7315,-3.6746,-3.667,-3.6667,-3.6034,-3.6095,-3.6333,-3.6287,-3.6444,-3.6615,-3.6569,-3.6569,-3.6553,-3.6507,-3.6492,-3.6492,-3.6492,-3.6492,-3.6492,-3.6492,-3.6952,-3.7519,-3.8124,-3.8739,-3.9365,-4.0138,-4.0255,-4.0337,-4.0485,-4.0468,-4.0534,-4.0648,-4.0697,-4.0745,-4.0871,-4.0888,-4.0888,-4.0888,-4.0871,-4.0888,-4.0888,-4.0888,-4.0888,-4.0888,-4.0888,-4.0888,-4.0888,-4.0888,-4.0888,-4.0888,-4.0888,-4.0888,-2.1741,-2.1741,-2.1741,-2.1741,-2.1741,0.0,0.0,-2.1741,-2.1741,0.0,0.0,0.0,0.0,0.0,0.0,0.0,0.0,0.0,0.0,0.0,0.0,0.0,0.0,0.0,0.0,0.0,0.0,0.0,0.0,0.0,0.0,0.0,0.0,-3.0445,-3.0765,-3.1013,-3.1083,-3.1004,-3.1009,-3.1223,-3.1336,-3.1223,-3.0909,-3.0909,-3.0788,-3.0618,-3.0775,-3.1022,-3.1268,-3.1486,-3.183,-3.2482,-3.3615,-3.4468,-3.5121,-3.5926,-3.6222,-3.6222,-3.6222,-3.6222,-3.6178,-3.6039,-3.6014,-3.6099,-3.6019,-3.607,-3.6211,-3.6352,-3.6414,-3.6492,-3.6492,-3.6492,-3.6492,-3.6492,-3.6492,-3.6492,-3.6492,-3.6492,-3.66,-3.7013,-3.7238,-3.7695,-3.8684,-3.9028,-3.947,-4.0188,-4.0387,-4.0485,-4.06,-4.068,-4.0776,-4.084,-4.084,-4.084,-4.0888,-4.0888,-4.0888,-4.0888,-4.0888,-4.0888,-4.0888,-4.0888,-4.0888,-4.0888,-4.0888,-4.0888,-4.0888,-4.0888,-4.0888,-4.0888,-4.0888,-4.0888,-2.1741,-2.1741,-2.1741,-2.1741,0.0,0.0,-2.1741,0.0,0.0,0.0,0.0,0.0,0.0,0.0,0.0,0.0,0.0,0.0,0.0,0.0,0.0,0.0,0.0,0.0,0.0,0.0,0.0,0.0,0.0,0.0,0.0,0.0,0.0,0.0,-3.0399,-3.0562,-3.0667,-3.0453,-3.0357,-3.0357,-3.0721,-3.0696,-3.0357,-3.0423,-3.0287,-3.0075,-3.0381,-3.0609,-3.0698,-3.0911,-3.1542,-3.2577,-3.3822,-3.4461,-3.4758,-3.5294,-3.5504,-3.5504,-3.5504,-3.5504,-3.5504,-3.5638,-3.5752,-3.5831,-3.6133,-3.6274,-3.6336,-3.6492,-3.6492,-3.6492,-3.6492,-3.6492,-3.6492,-3.6492,-3.6492,-3.6492,-3.6492,-3.6662,-3.6892,-3.7298,-3.7695,-3.8254,-3.9028,-3.9365,-3.9679,-4.0288,-4.0436,-4.0583,-4.0745,-4.084,-4.0888,-4.0888,-4.0888,-4.0888,-4.0888,-4.0888,-4.0888,-4.0888,-4.0888,-4.0888,-4.0888,-4.0888,-4.0888,-4.0888,-4.0888,-4.0888,-4.0888,-4.0888,-4.0888,-4.0888,-4.0888,-4.0888,-2.1741,-2.1741,-2.1741,0.0,0.0,0.0,0.0,0.0,0.0,0.0,0.0,0.0,0.0,0.0,0.0,0.0,0.0,0.0,0.0,0.0,0.0,0.0,0.0,0.0,0.0,0.0,0.0,0.0,0.0,0.0,0.0,0.0,0.0,0.0,-2.9419,-2.9509,-2.9792,-2.9792,-2.9792,-2.9792,-2.9792,-2.9792,-2.9792,-3.0011,-3.0075,-3.0164,-3.0546,-3.0698,-3.0698,-3.0911,-3.1896,-3.3283,-3.4027,-3.4824,-3.5504,-3.5504,-3.5504,-3.5504,-3.5504,-3.5504,-3.5489,-3.5638,-3.5831,-3.6037,-3.6148,-3.6352,-3.6492,-3.6492,-3.6492,-3.6492,-3.6492,-3.6492,-3.6492,-3.6492,-3.6492,-3.6492,-3.6492,-3.6952,-3.7401,-3.7417,-3.8367,-3.9206,-3.9206,-3.9696,-4.0171,-4.0485,-4.0485,-4.0583,-4.0888,-4.0888,-4.0888,-4.0888,-4.0888,-4.0888,-4.0888,-4.0888,-4.0888,-4.0888,-4.0888,-4.0888,-4.0888,-4.0888,-4.0888,-4.0888,-4.0888,-4.0888,-4.0888,-4.0888,-4.0888,-4.0888,-4.0888,-4.0888,-2.1741,-2.1741,0.0,-2.2501,0.0,0.0,0.0,0.0,0.0,0.0,0.0,0.0,0.0,0.0,0.0,0.0,0.0,0.0,0.0,0.0,0.0,0.0,0.0,0.0,0.0,0.0,0.0,0.0,0.0,0.0,0.0,0.0,0.0,0.0,-2.9599,-2.9702,-2.9792,-2.9792,-2.9792,-2.9792,-2.9934,-2.9934,-2.9792,-3.0011,-3.0152,-3.0292,-3.0622,-3.0773,-3.0986,-3.2101,-3.3143,-3.4041,-3.4839,-3.5279,-3.5504,-3.5504,-3.5504,-3.5504,-3.5504,-3.5554,-3.5638,-3.5831,-3.6022,-3.6148,-3.6352,-3.6429,-3.6492,-3.6492,-3.6492,-3.6492,-3.6492,-3.6492,-3.6492,-3.6492,-3.6492,-3.6616,-3.7074,-3.7298,-3.7637,-3.8479,-3.899,-3.9312,-3.9747,-4.007,-4.0288,-4.0485,-4.0583,-4.068,-4.0888,-4.0888,-4.0888,-4.0888,-4.0888,-4.0888,-4.0888,-4.0888,-4.0888,-4.0888,-4.0888,-4.0888,-4.0888,-4.0888,-4.0888,-4.0888,-4.0888,-4.0888,-4.0888,-4.0888,-4.0888,-4.0888,-4.0888,-4.1041,-2.2246,-2.2511,0.0,-2.3008,-2.3357,-2.38,0.0,0.0,0.0,0.0,0.0,0.0,0.0,0.0,0.0,0.0,0.0,0.0,0.0,0.0,0.0,0.0,0.0,0.0,0.0,0.0,0.0,0.0,0.0,0.0,0.0,0.0,0.0,0.0,-2.9702,-2.9792,-2.9792,-2.9792,-2.9792,-2.9792,-2.9934,-2.9934,-2.9934,-3.0241,-3.0381,-3.0533,-3.0761,-3.1048,-3.1542,-3.272,-3.363,-3.438,-3.5213,-3.5504,-3.5504,-3.5504,-3.5554,-3.5604,-3.5604,-3.5653,-3.5831,-3.6022,-3.6148,-3.6274,-3.6414,-3.6492,-3.6492,-3.6492,-3.6492,-3.6492,-3.6492,-3.6662,-3.6785,-3.6554,-3.6662,-3.6952,-3.7298,-3.7754,-3.8311,-3.9028,-3.9418,-3.9747,-4.0138,-4.0288,-4.0436,-4.0534,-4.0697,-4.0793,-4.0888,-4.0888,-4.0888,-4.0888,-4.0888,-4.0888,-4.0888,-4.0888,-4.0888,-4.0888,-4.0888,-4.0888,-4.0888,-4.0888,-4.0888,-4.0888,-4.0888,-4.0888,-4.0888,-4.0888,-4.0888,-4.0871,-4.1041,-4.1283,-2.327,0.0,0.0,-2.3531,-2.4049,0.0,0.0,0.0,0.0,0.0,0.0,0.0,0.0,0.0,0.0,0.0,0.0,0.0,0.0,0.0,0.0,0.0,0.0,0.0,0.0,0.0,0.0,0.0,0.0,0.0,0.0,0.0,0.0,-2.9792,-2.9792,-2.9792,-2.9792,-2.9792,-2.9792,0.0,-2.9869,-2.9934,-3.0152,-3.0533,-3.0698,-3.0836,-3.1048,-3.1542,-3.2362,-3.3003,-3.3768,-3.4461,-3.5198,-3.5504,-3.5504,-3.5504,-3.5604,-3.5752,-3.5752,-3.5831,-3.6037,-3.6148,-3.6211,-3.6274,-3.6414,-3.6492,-3.6492,-3.6492,-3.6492,-3.6492,-3.6492,-3.6952,-3.7238,-3.6723,-3.7058,-3.7519,-3.7578,-3.8423,-3.9206,-3.9259,-3.985,-4.0305,-4.0305,-4.0436,-4.0583,-4.0697,-4.084,-4.0888,-4.0888,-4.0888,-4.0888,-4.0888,-4.0888,-4.0888,-4.0888,-4.0888,-4.0888,-4.0888,-4.0888,-4.0888,-4.0888,-4.0888,-4.0888,-4.0888,-4.0888,-4.0888,-4.0888,-4.0888,-4.0935,-4.0965,-4.1328,-4.1561,-2.4231,-2.4327,0.0,0.0,-2.5924,0.0,0.0,0.0,0.0,0.0,0.0,0.0,0.0,0.0,0.0,0.0,0.0,0.0,0.0,0.0,0.0,0.0,0.0,0.0,0.0,0.0,0.0,0.0,0.0,0.0,0.0,0.0,0.0,-2.9792,-2.9792,-2.9792,-2.9792,-2.9792,-2.9869,0.0,-3.0228,-3.0381,-3.0546,-3.0533,-3.0947,-3.1809,-3.1809,-3.2635,-3.3822,-3.4027,-3.4543,-3.5279,-3.5424,-3.5539,-3.5638,-3.5638,-3.5767,-3.5973,-3.5973,-3.6022,-3.6148,-3.6196,-3.6274,-3.6414,-3.6492,-3.6492,-3.6492,-3.6492,-3.6492,-3.6492,-3.6492,-3.6952,-3.7358,-3.7238,-3.7679,-3.8238,-3.8701,-3.9028,-3.9365,-3.9799,-4.0138,-4.0305,-4.0305,-4.0502,-4.0697,-4.084,-4.0888,-4.0888,-4.0888,-4.0888,-4.0888,-4.0888,-4.0888,-4.0888,-4.0888,-4.0888,-4.0888,-4.0888,-4.0888,-4.0888,-4.0888,-4.0888,-4.0888,-4.0888,-4.0888,-4.0888,-4.0888,-4.0888,-4.1041,-4.1356,-4.1445,-4.1906,0.0,0.0,0.0,-2.6362,0.0,0.0,0.0,0.0,0.0,0.0,0.0,0.0,0.0,0.0,0.0,0.0,0.0,0.0,0.0,0.0,0.0,0.0,0.0,0.0,0.0,0.0,0.0,0.0,0.0,-2.9197,0.0,-2.9689,-2.9792,-2.9792,-2.9792,-2.9792,-2.9792,-2.9792,-2.9856,-3.0075,-3.0228,-3.0381,-3.0698,-3.1022,-3.1502,-3.2146,-3.2434,-3.3269,-3.4312,-3.4312,-3.4758,-3.5504,-3.5504,-3.5604,-3.5688,-3.5688,-3.5879,-3.61,-3.61,-3.6211,-3.6352,-3.6352,-3.6414,-3.6492,-3.6492,-3.6492,-3.6492,-3.6492,-3.6492,-3.6492,-3.6492,-3.7178,-3.7854,-3.7854,-3.8294,-3.8849,-3.9226,-3.9523,-3.985,-4.0221,-4.0387,-4.0502,-4.0502,-4.0648,-4.084,-4.0888,-4.0888,-4.0888,-4.0888,-4.0888,-4.0888,-4.0888,-4.0888,-4.0888,-4.0888,-4.0888,-4.0888,-4.0888,-4.0888,-4.0888,-4.0888,-4.0888,-4.0888,-4.0888,-4.0888,-4.0888,-4.0888,-4.1071,-4.1283,-4.1516,-4.1948,-4.2418,0.0,0.0,-2.7313,0.0,0.0,0.0,0.0,0.0,0.0,0.0,0.0,0.0,0.0,0.0,0.0,0.0,0.0,0.0,0.0,0.0,0.0,0.0,0.0,0.0,0.0,0.0,0.0,0.0,0.0,-2.9197,-2.9431,-2.9702,-2.9792,-2.9792,-2.9792,-2.9792,-2.9792,-2.9792,-2.9934,-3.0152,-3.0228,-3.0533,-3.0973,-3.1882,-3.229,-3.2362,-3.3073,-3.3837,-3.4528,-3.4528,-3.489,-3.5554,-3.5554,-3.5653,-3.5816,-3.5816,-3.6006,-3.6274,-3.6274,-3.6352,-3.6492,-3.6492,-3.6492,-3.6492,-3.6492,-3.6492,-3.6492,-3.6492,-3.6492,-3.6492,-3.66,-3.7445,-3.8334,-3.8446,-3.8957,-3.9418,-3.9558,-3.9952,-4.0355,-4.0485,-4.06,-4.0697,-4.0745,-4.084,-4.0888,-4.0888,-4.0888,-4.0888,-4.0888,-4.0888,-4.0888,-4.0888,-4.0888,-4.0888,-4.0888,-4.0888,-4.0888,-4.0888,-4.0888,-4.0888,-4.0888,-4.0888,-4.0888,-4.0888,-4.0888,-4.0888,-4.0888,-4.1328,-4.1516,-4.1648,-4.2498,-4.2938,0.0,0.0,0.0,0.0,0.0,0.0,0.0,0.0,0.0,0.0,0.0,0.0,0.0,0.0,0.0,0.0,0.0,0.0,0.0,0.0,0.0,0.0,0.0,0.0,0.0,0.0,0.0,0.0,-2.9341,-2.9431,-2.9702,-2.9792,-2.9792,-2.9792,-2.9792,-2.9792,-2.9792,-2.9792,-3.0011,-3.0368,-3.0685,-3.1259,-3.1942,-3.272,-3.3073,-3.3073,-3.3837,-3.461,-3.5359,-3.5359,-3.5459,-3.5688,-3.5688,-3.5879,-3.6133,-3.6133,-3.6274,-3.6492,-3.6492,-3.6492,-3.6492,-3.6492,-3.6492,-3.6492,-3.6492,-3.6492,-3.6492,-3.6492,-3.6492,-3.6616,-3.7118,-3.7796,-3.8446,-3.9102,-3.9731,-4.0138,-4.0188,-4.0337,-4.0485,-4.0485,-4.06,-4.0745,-4.0823,-4.0888,-4.0888,-4.0888,-4.0888,-4.0888,-4.0888,-4.0888,-4.0888,-4.0888,-4.0888,-4.0888,-4.0888,-4.0888,-4.0888,-4.0888,-4.0888,-4.0888,-4.0888,-4.0888,-4.0888,-4.0888,-4.0888,-4.0888,-4.0888,-4.1328,-4.1692,-4.2115,-4.2634,-4.3087,-2.7893,0.0,0.0,0.0,0.0,0.0,0.0,0.0,0.0,0.0,0.0,0.0,0.0,0.0,0.0,0.0,0.0,0.0,0.0,0.0,0.0,0.0,0.0,0.0,0.0,0.0,0.0,0.0,-2.9419,-2.9509,-2.9792,-2.9792,-2.9792,-2.9792,-2.9792,-2.9869,-2.9934,-2.9934,-3.0368,-3.122,-3.1455,-3.2028,-3.272,-3.3478,-3.3837,-3.3837,-3.4624,-3.5198,-3.5504,-3.5504,-3.5604,-3.5688,-3.5688,-3.5879,-3.6196,-3.6196,-3.6352,-3.6492,-3.6492,-3.6492,-3.6492,-3.6492,-3.6492,-3.6492,-3.6492,-3.6492,-3.6492,-3.6492,-3.6723,-3.7074,-3.7358,-3.8084,-3.8903,-3.9332,-3.9935,-4.0436,-4.0502,-4.0551,-4.0631,-4.0728,-4.0776,-4.084,-4.0888,-4.0888,-4.0888,-4.0888,-4.0888,-4.0888,-4.0888,-4.0888,-4.0888,-4.0888,-4.0888,-4.0888,-4.0888,-4.0888,-4.0888,-4.0888,-4.0888,-4.0888,-4.0888,-4.0888,-4.0888,-4.0888,-4.0888,-4.0995,-4.1237,-4.1666,-4.2115,-4.2595,-4.3032,-4.3339,0.0,0.0,0.0,0.0,0.0,0.0,0.0,0.0,0.0,0.0,0.0,0.0,0.0,0.0,0.0,0.0,0.0,0.0,0.0,0.0,0.0,0.0,0.0,0.0,0.0,0.0,0.0,0.0,-2.9509,-2.9611,-2.9792,-2.9792,-2.9792,-2.9792,-2.9792,-2.9856,-3.0075,-3.0368,-3.1084,-3.206,-3.229,-3.2791,-3.3492,-3.4041,-3.438,-3.461,-3.5213,-3.5504,-3.5504,-3.5554,-3.5653,-3.5752,-3.5816,-3.6006,-3.6274,-3.6274,-3.6352,-3.6492,-3.6492,-3.6492,-3.6492,-3.6492,-3.6492,-3.6492,-3.6492,-3.6616,-3.6723,-3.6723,-3.7178,-3.7679,-3.7796,-3.8535,-3.9295,-3.961,-4.0087,-4.0534,-4.0697,-4.0745,-4.0793,-4.0888,-4.0888,-4.0888,-4.0888,-4.0888,-4.0888,-4.0888,-4.0888,-4.0888,-4.0888,-4.0888,-4.0888,-4.0888,-4.0888,-4.0888,-4.0888,-4.0888,-4.0888,-4.0888,-4.0888,-4.0888,-4.0888,-4.0888,-4.0965,-4.1041,-4.1041,-4.1209,-4.1472,-4.2074,-4.2555,-4.292,-4.3304,-4.3497,0.0,0.0,0.0,0.0,0.0,0.0,0.0,0.0,0.0,0.0,0.0,0.0,0.0,0.0,0.0,0.0,0.0,0.0,0.0,0.0,0.0,0.0,0.0,0.0,0.0,0.0,0.0,0.0,-2.9792,-2.9792,-2.9792,-2.9792,-2.9792,-2.9792,-2.9792,-2.9856,-3.0075,-3.1158,-3.206,-3.282,-3.3059,-3.3561,-3.423,-3.4312,-3.4691,-3.5439,-3.5504,-3.5504,-3.5504,-3.5653,-3.5831,-3.5973,-3.6148,-3.6274,-3.6492,-3.6492,-3.6492,-3.6492,-3.6492,-3.6492,-3.6492,-3.6492,-3.6492,-3.6492,-3.6492,-3.6892,-3.7358,-3.7358,-3.7796,-3.839,-3.8974,-3.9152,-3.9418,-4.0254,-4.0468,-4.0583,-4.0823,-4.0888,-4.0888,-4.0888,-4.0888,-4.0888,-4.0888,-4.0888,-4.0888,-4.0888,-4.0888,-4.0888,-4.0888,-4.0888,-4.0888,-4.0888,-4.0888,-4.0888,-4.0888,-4.0888,-4.0888,-4.0888,-4.0888,-4.0888,-4.0888,-4.0888,-4.1088,-4.1445,-4.149,-4.149,-4.1472,-4.2418,-4.2882,-4.292,-4.3304,-4.3497,0.0,0.0,0.0,0.0,0.0,0.0,0.0,0.0,0.0,0.0,0.0,0.0,0.0,0.0,0.0,0.0,0.0,0.0,0.0,0.0,0.0,0.0,0.0,0.0,0.0,0.0,0.0,0.0,0.0,-2.9792,-2.9792,-2.9792,-2.9869,-3.0011,-3.0011,-3.0368,-3.1158,-3.1723,-3.2635,-3.3808,-3.3891,-3.4327,-3.5052,-3.5052,-3.5213,-3.5504,-3.5604,-3.5653,-3.5653,-3.5831,-3.5958,-3.6148,-3.6211,-3.6336,-3.6492,-3.6492,-3.6492,-3.6492,-3.6492,-3.6492,-3.6492,-3.6492,-3.6492,-3.6554,-3.6952,-3.7238,-3.746,-3.7854,-3.8407,-3.8974,-3.9226,-3.9627,-4.002,-4.0485,-4.068,-4.0776,-4.0888,-4.0888,-4.0888,-4.0888,-4.0888,-4.0888,-4.0888,-4.0888,-4.0888,-4.0888,-4.0888,-4.0888,-4.0888,-4.0888,-4.0888,-4.0888,-4.0888,-4.0888,-4.0888,-4.0888,-4.0888,-4.0888,-4.0888,-4.0888,-4.0888,-4.1163,-4.1356,-4.149,-4.2074,-4.2418,-4.2418,-4.2729,-4.3032,-4.3304,-4.341,-4.3497,0.0,0.0,0.0,0.0,0.0,0.0,0.0,0.0,0.0,0.0,0.0,0.0,0.0,0.0,0.0,0.0,0.0,0.0,0.0,0.0,0.0,0.0,0.0,0.0,0.0,0.0,0.0,0.0,0.0,0.0,-3.0583,-3.0279,-3.0139,-3.0075,-3.0432,-3.1145,-3.2132,-3.2635,-3.3478,-3.4677,-3.4677,-3.4971,-3.5504,-3.5504,-3.5489,-3.5604,-3.5703,-3.5752,-3.5688,-3.5958,-3.6148,-3.6211,-3.6274,-3.6352,-3.6492,-3.6492,-3.6492,-3.6492,-3.6492,-3.6492,-3.6492,-3.6492,-3.6492,-3.66,-3.7238,-3.7578,-3.7911,-3.8502,-3.9119,-3.9679,-3.9765,-4.0104,-4.0502,-4.0648,-4.0793,-4.0888,-4.0888,-4.0888,-4.0888,-4.0888,-4.0888,-4.0888,-4.0888,-4.0888,-4.0888,-4.0888,-4.0888,-4.0888,-4.0888,-4.0888,-4.0888,-4.0888,-4.0888,-4.0888,-4.0888,-4.0888,-4.0888,-4.0888,-4.0888,-4.0965,-4.1088,-4.1356,-4.1648,-4.1948,-4.2577,-4.2957,-4.3105,-4.3105,-4.3232,-4.3497,-4.3497,-4.3497,0.0,0.0,0.0,0.0,0.0,0.0,0.0,0.0,0.0,0.0,0.0,0.0,0.0,0.0,0.0,0.0,0.0,0.0,0.0,0.0,0.0,0.0,0.0,0.0,0.0,0.0,0.0,0.0,-3.1415,-3.1267,-3.2074,-3.1415,-3.0696,-3.0228,-3.122,-3.2205,-3.2961,-3.3808,-3.4677,-3.5504,-3.5504,-3.5504,-3.5504,-3.5504,-3.5604,-3.5688,-3.5894,-3.5894,-3.5752,-3.607,-3.6211,-3.6211,-3.6414,-3.6492,-3.6492,-3.6492,-3.6492,-3.6492,-3.6492,-3.6492,-3.6492,-3.6492,-3.6554,-3.6662,-3.7298,-3.7953,-3.8668,-3.9262,-3.9935,-4.0485,-4.0517,-4.06,-4.0697,-4.0697,-4.0793,-4.0888,-4.0888,-4.0888,-4.0888,-4.0888,-4.0888,-4.0888,-4.0888,-4.0888,-4.0888,-4.0888,-4.0888,-4.0888,-4.0888,-4.0888,-4.0888,-4.0888,-4.0888,-4.0888,-4.0888,-4.0888,-4.0888,-4.0888,-4.0918,-4.1071,-4.1472,-4.1516,-4.199,-4.2882,-4.292,-4.3123,-4.3497,-4.3497,-4.3497,-4.3497,-4.3497,-4.3497,-2.9131,0.0,0.0,0.0,0.0,0.0,0.0,0.0,0.0,0.0,0.0,0.0,0.0,0.0,0.0,0.0,0.0,0.0,0.0,0.0,0.0,0.0,0.0,0.0,0.0,0.0,0.0,0.0,-3.1856,-3.1915,-3.2263,-3.2321,-3.2249,-3.2119,-3.2563,-3.3199,-3.3891,-3.4163,-3.4677,-3.5504,-3.5504,-3.5504,-3.5504,-3.5589,-3.5638,-3.5688,-3.6022,-3.6133,-3.607,-3.6352,-3.6414,-3.6414,-3.6492,-3.6492,-3.6492,-3.6492,-3.6492,-3.6492,-3.6492,-3.6492,-3.6554,-3.7013,-3.7222,-3.7488,-3.8557,-3.9065,-3.9437,-4.0037,-4.0353,-4.0534,-4.0648,-4.0745,-4.084,-4.084,-4.0871,-4.0888,-4.0888,-4.0888,-4.0888,-4.0888,-4.0888,-4.0888,-4.0888,-4.0888,-4.0888,-4.0888,-4.0888,-4.0888,-4.0888,-4.0888,-4.0888,-4.0888,-4.0888,-4.0888,-4.0888,-4.0888,-4.0888,-4.0888,-4.1163,-4.1401,-4.149,-4.2157,-4.2634,-4.2882,-4.3196,-4.3375,-4.3497,-4.3497,-4.3497,-4.3497,-4.3497,-4.3497,0.0,0.0,0.0,0.0,0.0,0.0,-3.2119,-3.2191,-3.2191,0.0,0.0,0.0,0.0,0.0,0.0,0.0,0.0,0.0,0.0,0.0,0.0,0.0,0.0,0.0,0.0,-3.2349,-3.2492,-3.3213,-3.3003,-3.2847,-3.2904,-3.3255,-3.3255,-3.289,-3.3394,-3.3905,-3.4312,-3.461,-3.5052,-3.5504,-3.5504,-3.5504,-3.5504,-3.5638,-3.5752,-3.5831,-3.6085,-3.6274,-3.6352,-3.6429,-3.6492,-3.6492,-3.6492,-3.6492,-3.6492,-3.6492,-3.6492,-3.6492,-3.6492,-3.6616,-3.68,-3.7282,-3.7621,-3.801,-3.9156,-3.9594,-3.98,-4.0419,-4.0631,-4.068,-4.0745,-4.084,-4.0888,-4.0888,-4.0888,-4.0888,-4.0888,-4.0888,-4.0888,-4.0888,-4.0888,-4.0888,-4.0888,-4.0888,-4.0888,-4.0888,-4.0888,-4.0888,-4.0888,-4.0888,-4.0888,-4.0888,-4.0888,-4.0888,-4.0888,-4.0888,-4.0965,-4.1117,-4.1356,-4.1692,-4.2074,-4.2634,-4.2957,-4.316,-4.3375,-4.3497,-4.3497,-4.3497,-4.3497,-4.3497,-4.3497,-4.3497,0.0,0.0,0.0,0.0,0.0,0.0,-3.3367,-3.3367,-3.3367,0.0,0.0,0.0,0.0,0.0,0.0,0.0,0.0,0.0,0.0,0.0,0.0,0.0,0.0,0.0,-3.3575,-3.2989,-3.3199,-3.4787,-3.4288,-3.3934,-3.3934,-3.4153,-3.3919,-3.3241,-3.4027,-3.4461,-3.4461,-3.5133,-3.5504,-3.5504,-3.5504,-3.5504,-3.5504,-3.5653,-3.5831,-3.6037,-3.6148,-3.6352,-3.6492,-3.6492,-3.6492,-3.6492,-3.6492,-3.6492,-3.6492,-3.6492,-3.6492,-3.6492,-3.6492,-3.6693,-3.706,-3.7562,-3.7953,-3.8423,-3.9401,-3.98,-4.0053,-4.0583,-4.0793,-4.0888,-4.0888,-4.0888,-4.0888,-4.0888,-4.0888,-4.0888,-4.0888,-4.0888,-4.0888,-4.0888,-4.0888,-4.0888,-4.0888,-4.0888,-4.0888,-4.0888,-4.0888,-4.0888,-4.0888,-4.0888,-4.0888,-4.0888,-4.0888,-4.0888,-4.0888,-4.0918,-4.1117,-4.149,-4.1604,-4.2032,-4.2882,-4.292,-4.3142,-4.3479,-4.3497,-4.3497,-4.3497,-4.3497,-4.3497,-4.3497,-4.3497,-4.3497,0.0,0.0,0.0,0.0,0.0,0.0,-3.4249,-3.4264,-3.4249,0.0,0.0,0.0,0.0,0.0,0.0,0.0,0.0,0.0,0.0,0.0,0.0,0.0,0.0,0.0,-3.4467,-3.4317,-3.4385,-3.4868,-3.4935,-3.4935,-3.4935,-3.5148,-3.5148,-3.5001,-3.5133,-3.5279,-3.5279,-3.5424,-3.5504,-3.5504,-3.5504,-3.5504,-3.5504,-3.5797,-3.5973,-3.6037,-3.6289,-3.6492,-3.6492,-3.6492,-3.6492,-3.6492,-3.6492,-3.6492,-3.6492,-3.6492,-3.6492,-3.6492,-3.6492,-3.6693,-3.7165,-3.801,-3.8629,-3.9189,-4.0154,-4.0566,-4.071,-4.084,-4.0888,-4.0888,-4.0888,-4.0888,-4.0888,-4.0888,-4.0888,-4.0888,-4.0888,-4.0888,-4.0888,-4.0888,-4.0888,-4.0888,-4.0888,-4.0888,-4.0888,-4.0888,-4.0888,-4.0888,-4.0888,-4.0888,-4.0888,-4.0888,-4.0888,-4.0888,-4.0888,-4.1209,-4.1401,-4.149,-4.2198,-4.2711,-4.2882,-4.3232,-4.341,-4.3497,-4.3497,-4.3497,-4.3497,-4.3497,-4.3497,-4.3497,-4.3497,-4.3497,0.0,0.0,0.0,-3.3213,0.0,0.0,0.0,-3.475,-3.4668,0.0,0.0,0.0,0.0,0.0,0.0,0.0,0.0,0.0,0.0,0.0,0.0,0.0,0.0,0.0,-3.4964,-3.4964,-3.503,-3.5228,-3.5294,-3.5359,-3.5359,-3.5439,-3.5504,-3.5504,-3.5504,-3.5504,-3.5504,-3.5504,-3.5504,-3.5504,-3.5504,-3.5554,-3.5604,-3.5846,-3.6037,-3.6085,-3.6352,-3.6492,-3.6492,-3.6492,-3.6492,-3.6492,-3.6492,-3.6492,-3.6492,-3.6492,-3.6492,-3.6492,-3.6677,-3.7105,-3.7669,-3.859,-3.9242,-3.9901,-4.0583,-4.084,-4.0888,-4.0888,-4.0888,-4.0888,-4.0888,-4.0888,-4.0888,-4.0888,-4.0888,-4.0888,-4.0888,-4.0888,-4.0888,-4.0888,-4.0888,-4.0888,-4.0888,-4.0888,-4.0888,-4.0888,-4.0888,-4.0888,-4.0888,-4.0888,-4.0888,-4.0888,-4.0888,-4.0965,-4.1163,-4.1401,-4.1692,-4.2157,-4.2634,-4.2995,-4.3178,-4.3375,-4.3497,-4.3497,-4.3497,-4.3497,-4.3497,-4.3497,-4.3497,-4.3497,-4.3497,-4.3497,0.0,0.0,0.0,0.0,0.0,-3.4765,0.0,0.0,0.0,0.0,0.0,0.0,0.0,0.0,0.0,0.0,0.0,0.0,0.0,0.0,0.0,0.0,0.0,0.0,0.0,-3.5228,-3.5359,-3.5504,-3.5504,-3.5504,-3.5504,-3.5504,-3.5504,-3.5504,-3.5504,-3.5504,-3.5504,-3.5504,-3.5504,-3.5504,-3.5504,-3.5604,-3.5688,-3.5958,-3.6085,-3.6211,-3.6414,-3.6492,-3.6492,-3.6492,-3.6492,-3.6492,-3.6492,-3.6492,-3.6492,-3.6492,-3.6492,-3.6554,-3.6984,-3.7551,-3.8214,-3.9028,-3.9782,-4.0502,-4.0776,-4.0888,-4.0888,-4.0888,-4.0888,-4.0888,-4.0888,-4.0888,-4.0888,-4.0888,-4.0888,-4.0888,-4.0888,-4.0888,-4.0888,-4.0888,-4.0888,-4.0888,-4.0888,-4.0888,-4.0888,-4.0888,-4.0888,-4.0888,-4.0888,-4.0888,-4.0888,-4.0888,-4.0965,-4.1163,-4.1472,-4.1648,-4.2074,-4.2844,-4.2957,-4.316,-4.3497,-4.3497,-4.3497,-4.3497,-4.3497,-4.3497,-4.3497,-4.3497,-4.3497,-4.3497,-4.3497,-4.3497,0.0,0.0,0.0,0.0,-3.475,0.0,0.0,0.0,0.0,-3.5359,0.0,0.0,0.0,0.0,0.0,0.0,0.0,0.0,0.0,0.0,0.0,0.0,0.0,0.0,0.0,-3.5359,-3.5504,-3.5504,-3.5504,-3.5504,-3.5504,-3.5504,-3.5504,-3.5504,-3.5504,-3.5504,-3.5504,-3.5504,-3.5504,-3.5504,-3.5589,-3.5688,-3.5688,-3.6006,-3.6211,-3.6211,-3.6414,-3.6492,-3.6492,-3.6492,-3.6492,-3.6492,-3.6492,-3.6492,-3.6492,-3.6492,-3.6492,-3.66,-3.7266,-3.7796,-3.8254,-3.9368,-4.022,-4.084,-4.0888,-4.0888,-4.0888,-4.0888,-4.0888,-4.0888,-4.0888,-4.0888,-4.0888,-4.0888,-4.0888,-4.0888,-4.0888,-4.0888,-4.0888,-4.0888,-4.0888,-4.0888,-4.0888,-4.0888,-4.0888,-4.0888,-4.0888,-4.0888,-4.0888,-4.0888,-4.0888,-4.0888,-4.1209,-4.1445,-4.149,-4.2239,-4.2806,-4.2882,-4.3214,-4.3444,-4.3497,-4.3497,-4.3497,-4.3497,-4.3497,-4.3497,-4.3497,-4.3497,-4.3497,-4.3497,-4.3497,-4.3497,0.0,0.0,0.0,0.0,0.0,0.0,-3.5359,0.0,-3.5294,0.0,0.0,0.0,0.0,0.0,0.0,0.0,-3.5504,0.0,0.0,0.0,0.0,0.0,0.0,0.0,0.0,0.0,0.0,0.0,-3.5504,-3.5504,-3.5504,-3.5504,-3.5504,-3.5504,-3.5504,-3.5504,-3.5504,-3.5504,-3.5554,-3.5589,-3.5688,-3.5816,-3.6006,-3.6148,-3.6274,-3.6352,-3.6492,-3.6492,-3.6492,-3.6492,-3.6492,-3.6538,-3.6982,-3.6876,-3.6554,-3.6982,-3.7147,-3.7266,-3.8238,-3.8778,-3.9262,-4.017,-4.0662,-4.0888,-4.0888,-4.0888,-4.0888,-4.0888,-4.0888,-4.0888,-4.0888,-4.0888,-4.0888,-4.0888,-4.0888,-4.0888,-4.0888,-4.0888,-4.0888,-4.0888,-4.0888,-4.0888,-4.0888,-4.0888,-4.0888,-4.0888,-4.0888,-4.0888,-4.0888,-4.0888,-4.1012,-4.1192,-4.1401,-4.1735,-4.2257,-4.2673,-4.2995,-4.3232,-4.341,-4.3497,-4.3497,-4.3497,-4.3497,-4.3497,-4.3497,-4.3497,-4.3497,-4.3497,-4.3497,-4.3497,-4.3497,-4.3497,-3.4935,0.0,0.0,0.0,0.0,0.0,0.0,0.0,0.0,0.0,0.0,0.0,0.0,0.0,0.0,0.0,0.0,0.0,0.0,0.0,0.0,0.0,0.0,0.0,0.0,0.0,0.0,-3.5504,-3.5504,-3.5504,-3.5504,-3.5504,-3.5504,-3.5504,-3.5504,-3.5504,-3.5504,-3.5504,-3.5554,-3.5688,-3.5752,-3.5958,-3.6196,-3.6274,-3.6352,-3.6492,-3.6492,-3.6492,-3.6492,-3.6662,-3.6723,-3.6831,-3.7546,-3.7488,-3.7103,-3.7706,-3.7921,-3.8035,-3.8995,-3.9697,-4.017,-4.071,-4.0888,-4.0888,-4.0888,-4.0888,-4.0888,-4.0888,-4.0888,-4.0888,-4.0888,-4.0888,-4.0888,-4.0888,-4.0888,-4.0888,-4.0888,-4.0888,-4.0888,-4.0888,-4.0888,-4.0888,-4.0888,-4.0888,-4.0888,-4.0888,-4.0888,-4.0918,-4.1041,-4.1041,-4.1255,-4.1648,-4.1821,-4.2157,-4.2844,-4.2995,-4.3196,-4.3479,-4.3497,-4.3497,-4.3497,-4.3497,-4.3497,-4.3497,-4.3497,-4.3497,-4.3497,-4.3497,-4.3497,-4.3497,-4.3497,-4.3497,0.0,0.0,0.0,-3.5213,0.0,0.0,0.0,0.0,-3.5504,0.0,0.0,0.0,0.0,0.0,0.0,0.0,0.0,0.0,0.0,0.0,0.0,0.0,0.0,0.0,0.0,0.0,0.0,-3.5504,-3.5504,-3.5504,-3.5504,-3.5504,-3.5504,-3.5504,-3.5504,-3.5504,-3.5504,-3.5504,-3.5554,-3.5688,-3.5894,-3.6085,-3.6211,-3.6414,-3.6492,-3.6492,-3.6492,-3.6492,-3.6554,-3.7118,-3.7358,-3.746,-3.8181,-3.8446,-3.8446,-3.858,-3.8674,-3.8799,-3.9508,-4.0269,-4.0871,-4.0871,-4.0888,-4.0888,-4.0888,-4.0888,-4.0888,-4.0888,-4.0888,-4.0888,-4.0888,-4.0888,-4.0888,-4.0888,-4.0888,-4.0888,-4.0888,-4.0888,-4.0888,-4.0888,-4.0888,-4.0888,-4.0888,-4.0888,-4.0888,-4.0888,-4.0888,-4.1041,-4.1445,-4.1472,-4.1648,-4.2115,-4.2577,-4.2882,-4.29,-4.3268,-4.3497,-4.3497,-4.3497,-4.3497,-4.3497,-4.3497,-4.3497,-4.3497,-4.3497,-4.3497,-4.3497,-4.3497,-4.3497,-4.3497,-4.3497,-4.3497,0.0,0.0,-3.5424,-3.5424,0.0,0.0,0.0,0.0,0.0,0.0,0.0,0.0,0.0,0.0,0.0,0.0,0.0,0.0,0.0,0.0,0.0,0.0,0.0,0.0,0.0,0.0,0.0,-3.5504,-3.5504,-3.5504,-3.5504,-3.5504,-3.5504,-3.5504,-3.5504,-3.5668,-3.6085,-3.6165,-3.6523,-3.7115,-3.6829,-3.6799,-3.6997,-3.7058,-3.7134,-3.7134,-3.7504,-3.7663,-3.7722,-3.7895,-3.8067,-3.8181,-3.8941,-3.9262,-3.9351,-3.9404,-3.9456,-3.956,-4.0269,-4.071,-4.0888,-4.0888,-4.0888,-4.0888,-4.0888,-4.0888,-4.0888,-4.0888,-4.0888,-4.0888,-4.0888,-4.0888,-4.0888,-4.0888,-4.0888,-4.0888,-4.0888,-4.0888,-4.0888,-4.0888,-4.0888,-4.0888,-4.0888,-4.1117,-4.1209,-4.0918,-4.1117,-4.1373,-4.1472,-4.1778,-4.2157,-4.2634,-4.2806,-4.2995,-4.325,-4.341,-4.3497,-4.3497,-4.3497,-4.3497,-4.3497,-4.3497,-4.3497,-4.3497,-4.3497,-4.3497,-4.3497,-4.3497,-4.3497,-4.3497,-4.3497,-4.3497,-3.5504,-3.5504,0.0,-3.5797,-3.5797,0.0,-3.5797,0.0,0.0,0.0,0.0,0.0,0.0,0.0,0.0,0.0,0.0,0.0,0.0,-3.6085,0.0,0.0,0.0,0.0,0.0,0.0,-3.6196,-3.6211,-3.6196,-3.6196,0.0,0.0,-3.6211,-3.6211,-3.6211,-3.6383,-3.6829,-3.6919,-3.7263,-3.7847,-3.7557,-3.7531,-3.7738,-3.7738,-3.7738,-3.7738,-3.8124,-3.8278,-3.8351,-3.8518,-3.8684,-3.8887,-3.9662,-4.002,-4.012,-4.017,-4.017,-4.0269,-4.071,-4.0888,-4.0888,-4.0888,-4.0888,-4.0888,-4.0888,-4.0888,-4.0888,-4.0888,-4.0888,-4.0888,-4.0888,-4.0888,-4.0888,-4.0888,-4.0888,-4.0888,-4.0888,-4.0888,-4.0888,-4.0888,-4.0888,-4.0965,-4.1088,-4.1328,-4.1401,-4.1163,-4.149,-4.1821,-4.199,-4.2239,-4.2616,-4.3069,-4.3105,-4.3232,-4.3497,-4.3497,-4.3497,-4.3497,-4.3497,-4.3497,-4.3497,-4.3497,-4.3497,-4.3497,-4.3497,-4.3497,-4.3497,-4.3497,-4.3497,-4.3497,-4.3497,-4.3497]}]]